GFSGL_sfc_dewp_000.txt.gz
Dewpoint
42 43 43 44 44 44 43 44 44 43 43 42 42 42 43 44 46 48 50 53 56 56 57 58 58 58 58 57 56 55 55 54 53 52 54 54 48 46 47 44 45 45 47
43 44 44 44 45 44 44 44 45 45 45 44 44 44 43 43 44 46 47 48 50 52 54 56 56 57 58 58 56 55 55 55 54 53 54 54 47 44 45 43 43 42 44
45 45 45 45 45 45 45 45 45 45 44 44 45 45 45 45 45 44 45 46 48 50 52 53 54 55 55 56 57 56 55 55 55 54 53 54 48 44 43 43 42 41 40
44 44 43 44 43 42 42 42 42 42 42 42 43 43 44 44 45 45 45 46 49 49 51 52 53 54 54 55 55 56 56 56 55 54 54 53 44 42 43 42 39 40 38
39 40 41 42 40 40 39 39 39 40 40 40 40 40 41 42 41 45 45 45 46 47 48 49 51 51 50 53 55 55 56 56 55 54 53 50 44 40 41 42 42 39 39
36 37 38 38 38 38 37 37 38 38 38 38 38 39 39 39 45 46 46 46 45 46 47 47 49 50 51 52 53 52 54 55 54 53 53 51 49 47 44 43 42 37 34
34 34 33 31 31 33 34 33 34 33 32 35 37 37 38 38 44 46 48 45 45 45 46 47 48 50 50 52 52 53 53 53 54 55 54 53 51 49 45 42 41 38 33
28 28 27 28 27 27 28 27 28 28 29 29 32 35 36 37 43 47 46 41 41 42 44 44 47 48 50 51 52 52 53 54 54 54 54 54 53 51 47 44 41 33 30
24 21 23 24 23 23 24 23 22 24 26 25 27 29 34 34 41 44 39 36 39 40 42 42 43 45 46 49 50 50 50 52 46 48 51 51 51 49 46 38 34 32 26
15 16 17 19 19 19 19 18 18 21 20 22 21 25 32 31 37 41 38 35 35 38 39 39 42 43 45 46 47 48 48 50 42 40 41 43 45 44 43 40 34 31 29
12 12 13 14 14 14 15 16 16 15 19 19 19 20 24 27 25 37 37 33 35 34 30 34 38 42 44 44 44 45 45 49 43 39 36 34 34 34 34 34 35 33 30
12 12 12 12 11 10 12 13 13 13 14 18 17 19 22 20 31 32 36 38 37 32 32 32 36 39 41 43 44 45 46 47 38 34 33 32 31 31 32 32 32 31 31
11 11 12 12 11 11 12 12 12 13 12 14 15 19 17 18 24 32 35 37 37 34 32 35 39 41 42 42 43 44 46 40 35 33 32 31 31 31 31 30 30 30 30
11 12 13 13 14 13 15 14 13 12 14 15 17 17 20 22 24 25 29 32 34 32 34 35 39 42 44 44 43 43 37 36 35 34 33 32 31 30 28 28 27 27 26
13 13 13 15 14 14 15 14 14 15 21 22 22 23 22 23 24 32 34 32 31 32 36 36 37 37 39 39 37 34 34 35 32 32 30 29 29 28 27 28 27 27 26
13 14 16 16 15 16 16 15 22 26 29 30 31 30 25 30 32 34 34 34 35 37 33 34 35 35 35 36 34 32 32 31 30 30 29 29 28 27 26 28 27 26 24
15 15 15 17 15 15 16 18 19 22 26 26 28 30 30 31 33 32 33 33 33 33 30 33 34 33 33 34 33 32 31 30 30 29 28 28 28 27 27 26 26 24 23
16 21 17 17 18 19 20 21 21 20 20 21 24 26 27 29 30 31 30 29 29 29 29 30 33 33 32 32 32 31 29 29 28 28 28 27 27 27 26 25 24 22 21
16 16 17 19 21 22 21 21 21 21 21 21 23 24 26 27 27 28 29 26 28 27 26 28 32 33 32 32 32 30 29 28 28 28 28 27 27 27 26 24 23 23 22
17 21 22 20 20 20 21 21 21 21 22 23 23 23 23 24 23 23 24 26 26 26 25 28 32 33 33 32 30 29 28 29 28 28 27 27 27 27 24 23 22 21 21
19 19 22 20 20 21 20 20 21 22 22 21 21 23 26 23 22 22 23 24 24 26 26 29 32 33 32 32 30 29 29 28 28 27 27 27 27 24 23 23 21 22 19
19 19 20 20 20 20 20 20 21 21 22 23 23 24 26 22 23 22 22 24 25 25 27 31 31 33 32 32 30 29 28 27 27 27 27 27 25 23 22 21 21 18 15
19 19 18 18 19 21 20 22 23 22 21 22 22 22 23 22 22 22 22 24 25 25 29 29 29 32 32 32 31 30 28 27 28 28 27 26 23 22 21 21 18 16 15
18 19 19 19 19 19 20 19 19 20 20 20 21 23 22 22 22 22 23 24 24 27 27 25 27 32 31 31 31 31 30 29 29 28 27 25 22 22 21 17 15 12 12
20 20 19 20 19 19 19 20 20 19 20 19 21 21 22 22 22 22 23 23 24 27 24 24 28 31 31 31 30 30 29 30 29 28 27 24 22 20 16 15 14 13 12
20 19 18 18 19 20 19 18 18 18 19 20 21 22 23 22 22 21 22 22 24 24 22 24 27 31 30 30 30 30 32 31 30 30 25 23 20 18 15 14 12 14 12

GFSGL_sfc_dewp_003.txt.gz
Dewpoint
45 45 45 45 46 46 45 45 45 45 45 45 45 45 45 45 45 44 44 45 45 47 49 52 53 55 56 56 57 57 57 56 54 53 53 53 51 52 50 51 50 49 51
45 45 45 46 45 44 43 43 42 43 43 43 43 44 44 44 44 44 44 45 45 46 47 50 51 52 53 55 55 55 56 56 55 53 53 54 52 49 50 48 47 48 48
40 42 42 43 42 41 41 39 38 38 39 40 41 41 40 41 41 41 42 44 45 46 48 49 50 51 51 52 53 54 54 54 55 55 54 55 55 46 44 44 44 45 45
37 38 37 40 38 37 37 37 37 37 38 39 39 38 38 40 40 39 42 39 41 44 47 48 48 49 50 50 51 52 53 53 53 53 53 54 54 47 47 47 42 43 43
35 35 35 34 31 31 32 34 34 35 35 36 34 33 39 38 38 40 39 40 44 46 46 46 47 47 48 49 50 51 52 52 52 51 51 52 53 44 44 45 46 44 42
29 28 29 28 28 29 29 29 30 30 31 31 31 36 33 37 41 43 43 44 45 40 38 40 43 45 47 49 51 51 52 51 50 50 50 50 50 52 50 47 45 40 38
24 25 22 23 24 24 24 25 26 25 25 24 30 28 30 33 39 43 43 39 33 35 39 38 42 41 42 44 46 48 49 50 51 51 51 51 52 52 52 49 47 44 43
23 16 16 18 18 19 19 20 20 21 20 20 23 22 26 23 36 41 44 30 31 34 36 37 40 35 38 43 44 45 45 46 48 50 51 51 52 53 53 51 48 41 33
14 11 12 13 13 14 15 15 16 16 18 16 16 21 17 21 33 40 34 29 27 29 33 37 30 31 38 41 41 42 42 42 44 46 47 48 48 50 52 42 36 35 31
11 12 12 12 13 12 12 12 13 14 14 15 12 14 24 22 33 33 29 26 27 28 34 31 34 34 38 39 37 39 39 39 41 42 45 46 44 46 49 47 44 39 32
13 13 13 13 12 12 12 11 12 13 13 13 12 13 18 22 18 29 32 28 27 31 32 33 32 35 38 39 41 40 41 43 43 43 44 37 34 34 35 36 38 39 34
13 13 13 13 13 13 12 13 13 14 13 12 12 16 16 15 24 26 29 32 32 31 32 32 31 36 36 40 41 43 44 43 42 42 37 33 32 32 32 32 33 33 33
13 13 13 14 14 13 14 14 14 14 14 13 16 17 19 21 21 28 30 31 33 32 31 33 36 35 38 38 38 40 40 38 38 36 33 32 32 32 31 30 30 31 31
13 14 14 14 15 15 16 16 15 15 16 17 19 22 22 23 24 24 26 28 31 30 31 31 34 33 36 36 35 36 35 35 35 33 32 32 31 30 29 29 27 28 27
14 14 14 15 15 15 16 16 16 17 21 21 23 23 23 24 24 29 29 27 28 29 31 31 28 28 32 32 34 33 35 34 32 32 31 30 29 28 27 28 27 27 25
14 15 16 16 16 17 16 15 22 25 27 27 27 26 24 27 29 29 29 31 31 29 30 27 26 27 29 31 31 32 33 34 31 31 30 29 28 27 26 27 27 27 25
16 15 16 17 15 15 16 18 19 22 26 26 27 26 27 27 27 27 28 29 28 28 27 27 26 28 28 32 32 32 31 33 31 30 29 28 28 27 27 26 26 26 25
17 22 18 17 18 18 19 21 21 20 20 21 24 25 25 25 26 27 27 25 23 26 25 25 27 28 28 31 32 31 31 30 29 28 28 28 27 27 26 26 26 25 22
16 17 17 19 20 22 21 21 21 21 20 20 21 23 24 26 27 28 26 22 23 24 25 25 27 27 29 31 32 32 31 29 28 28 27 27 27 27 26 26 25 23 21
18 21 21 19 20 20 20 21 20 20 20 21 22 22 21 24 25 22 22 22 22 25 25 25 26 27 29 29 31 31 30 29 28 27 27 27 27 27 26 25 22 19 17
18 18 22 19 20 21 20 20 20 21 23 22 21 23 25 21 22 22 23 22 22 24 23 24 26 27 25 28 31 30 29 28 27 27 27 27 27 25 25 22 21 20 16
19 19 19 20 20 20 20 20 20 20 22 21 20 21 24 21 24 24 23 23 23 24 24 24 27 23 24 28 31 30 29 27 27 27 27 26 26 24 22 21 19 16 15
19 18 18 19 20 21 20 21 22 22 20 20 20 20 19 20 22 23 23 23 23 24 23 26 25 22 25 28 31 30 29 27 28 28 26 26 24 22 21 18 15 14 13
19 19 21 21 20 20 20 20 20 21 20 20 18 18 18 20 21 21 22 23 23 23 24 25 23 22 26 27 30 30 29 29 29 28 27 25 22 20 18 15 13 9 11
20 20 20 20 20 20 20 21 21 20 18 17 18 18 19 20 20 21 22 22 22 22 24 23 22 23 25 27 29 30 29 30 29 28 27 21 18 14 14 12 11 11 11
20 20 20 20 20 19 19 18 18 18 17 18 19 19 20 20 21 21 20 21 22 23 21 22 22 23 24 29 29 30 31 31 30 29 24 20 17 15 13 12 11 13 11

GFSGL_sfc_dewp_006.txt.gz
Dewpoint
43 43 43 44 44 43 41 41 39 39 38 39 39 40 41 42 40 40 41 41 41 43 46 46 48 49 50 52 53 53 53 53 51 50 53 55 56 54 53 52 52 52 52
40 40 40 42 39 37 35 35 35 34 35 35 37 37 37 35 37 39 39 39 41 38 39 43 46 47 49 50 50 50 50 51 51 49 50 52 53 55 55 53 52 52 52
37 37 36 37 33 30 30 30 31 31 32 31 33 32 31 33 37 35 37 39 36 38 40 43 46 47 45 46 48 48 48 49 50 49 49 51 52 53 52 51 52 52 51
34 33 35 30 28 28 28 27 27 28 28 27 27 26 29 34 30 33 37 33 38 39 44 46 44 40 40 44 45 46 47 48 48 48 49 48 49 50 51 52 49 46 48
28 30 28 28 25 25 25 24 24 24 23 25 22 22 24 30 23 34 30 31 35 41 41 35 37 39 43 45 40 38 43 44 44 46 46 48 49 48 47 47 47 50 46
25 25 22 19 18 19 19 19 19 19 19 20 19 20 26 18 32 36 34 30 37 32 29 29 35 37 41 38 38 41 43 43 44 44 44 44 45 48 49 50 49 47 46
22 16 14 14 14 15 15 16 16 15 17 16 16 18 15 17 32 34 37 28 26 27 25 26 28 34 35 29 34 39 37 41 43 43 42 42 43 44 48 48 48 49 47
15 11 12 13 13 13 13 13 13 13 13 12 14 14 15 12 30 33 35 20 17 18 25 25 30 34 32 33 34 34 34 37 38 40 41 41 42 44 46 46 47 46 37
10 11 12 13 12 13 12 12 12 12 12 13 13 13 13 13 28 34 28 19 23 25 25 26 32 33 35 36 33 34 35 36 40 42 43 44 44 45 46 45 43 39 36
10 12 13 14 13 12 13 13 13 13 13 14 13 14 18 13 25 27 26 22 23 25 26 28 35 33 34 34 32 34 35 37 39 39 40 42 44 44 44 42 43 41 38
12 13 14 14 14 13 13 14 14 14 14 15 14 14 14 18 20 28 29 25 25 26 28 30 29 33 33 34 35 36 37 37 38 36 38 40 42 36 35 35 35 39 36
13 14 14 14 14 13 14 14 15 15 15 15 15 17 19 21 27 28 30 30 30 28 29 28 28 32 35 37 35 37 37 37 35 34 35 35 35 34 33 33 33 33 34
13 14 14 14 14 14 15 15 15 16 16 16 17 20 22 23 23 29 30 31 32 28 27 30 30 33 32 31 32 34 35 33 33 32 33 34 34 33 30 30 31 30 29
14 14 15 14 16 16 16 16 15 16 17 18 21 22 23 23 25 25 26 27 28 30 30 25 30 28 28 28 29 30 31 32 33 33 32 33 32 30 29 29 28 28 26
15 15 14 16 16 16 16 16 16 17 21 22 22 23 23 25 24 28 26 24 32 26 24 26 25 24 25 26 26 28 30 31 32 32 32 31 30 28 27 28 28 27 25
15 15 16 17 16 17 16 15 22 24 26 26 26 24 22 26 28 26 27 33 29 25 22 23 23 23 24 25 26 28 29 31 32 31 30 30 28 27 26 27 28 26 24
16 15 16 18 16 16 16 17 19 22 25 25 25 25 25 26 25 25 29 31 25 24 21 24 23 22 24 25 25 28 28 30 32 30 29 28 28 26 27 26 27 26 25
16 21 18 17 18 18 19 20 20 19 19 19 22 24 25 25 25 26 29 25 20 22 22 23 22 22 23 25 26 26 27 30 30 29 28 27 27 27 26 26 26 25 22
16 17 18 19 19 21 20 20 19 20 19 18 19 22 24 25 25 27 25 22 22 21 22 21 21 21 24 26 23 25 26 29 30 28 27 27 26 26 26 26 26 24 22
17 21 21 18 19 19 19 20 19 19 19 19 21 20 20 21 22 22 21 22 22 22 21 21 21 22 26 23 23 25 26 29 28 27 26 26 27 27 26 25 24 22 20
18 19 22 18 19 19 19 19 19 21 22 20 19 21 24 20 20 18 20 23 22 22 22 22 21 23 25 23 23 25 26 28 28 27 26 26 26 25 24 23 22 19 17
19 19 18 18 19 19 19 20 20 19 20 21 20 20 23 18 18 19 24 21 21 22 23 23 22 24 23 22 24 25 25 28 27 26 26 26 25 23 22 20 18 16 14
18 18 18 19 19 22 21 22 23 21 20 20 21 19 17 17 18 19 20 21 21 22 22 22 23 22 22 23 25 26 27 28 28 27 26 25 23 22 20 17 15 14 14
19 19 20 20 20 19 19 20 21 21 20 20 18 17 18 18 18 19 20 21 21 21 22 22 22 21 22 23 25 26 30 29 28 28 27 23 23 20 17 14 13 10 11
19 19 19 19 19 19 19 19 19 19 17 17 17 17 19 19 19 20 21 21 20 20 21 21 22 21 22 23 25 27 30 31 28 27 25 21 17 14 12 12 11 11 10
18 18 16 15 15 16 16 17 17 17 17 18 18 19 20 20 20 21 20 20 20 21 19 21 21 21 22 24 26 30 32 31 29 26 21 19 16 14 13 12 11 13 12

GFSGL_sfc_dewp_009.txt.gz
Dewpoint
39 39 39 39 37 35 32 32 32 32 31 31 31 31 30 30 31 35 34 35 38 37 36 38 40 43 46 47 46 47 46 47 46 45 47 48 50 51 52 54 54 53 53
36 35 36 32 28 27 27 27 26 25 26 27 25 25 23 25 28 30 28 34 31 31 35 38 40 44 44 43 42 42 45 45 44 43 44 45 47 49 50 52 53 54 53
32 33 30 26 25 25 25 24 22 22 22 21 22 21 21 22 28 24 23 31 25 27 32 36 43 39 40 36 38 43 42 38 40 41 44 45 45 47 49 50 51 53 54
28 28 23 22 22 22 22 21 20 20 18 18 19 18 19 20 21 19 25 25 26 30 34 41 34 33 35 35 39 34 31 36 38 38 39 41 42 44 46 48 48 50 49
25 22 20 20 19 19 19 18 17 17 16 16 16 15 16 16 12 21 23 25 30 23 21 25 25 30 34 37 37 34 33 35 36 34 36 38 38 40 41 44 44 46 48
20 15 16 16 16 16 15 15 15 15 14 14 14 14 15 13 25 28 28 28 24 18 16 18 25 29 28 37 37 37 36 34 33 34 34 34 36 38 40 42 42 42 41
15 13 14 15 15 15 15 14 14 14 13 13 13 13 13 14 25 28 30 25 20 20 22 24 25 25 31 34 35 36 36 35 35 34 34 36 36 38 39 39 39 40 42
12 12 14 15 14 14 14 13 13 13 13 13 13 14 14 14 25 27 28 21 22 22 23 25 25 27 31 32 31 29 31 31 32 34 37 38 39 39 41 41 41 41 42
11 12 13 14 14 14 13 13 13 13 14 14 14 15 15 15 25 27 27 23 24 24 25 26 29 28 31 32 29 29 29 30 33 38 39 39 40 39 40 41 39 39 39
11 12 13 14 14 14 13 13 14 14 15 15 15 15 19 16 24 28 27 25 25 26 31 30 31 29 31 32 28 29 32 35 36 35 35 35 35 36 39 40 38 35 36
12 14 15 15 14 14 14 14 15 15 15 16 15 16 17 20 23 28 29 25 25 30 30 26 26 31 32 30 31 30 33 33 34 33 33 32 33 34 34 36 36 34 32
14 14 15 15 15 14 14 15 15 16 16 15 16 18 20 22 26 27 29 29 30 25 25 27 28 28 28 29 27 28 29 31 31 31 30 31 32 32 33 34 32 32 32
14 14 15 15 15 15 15 15 16 16 15 16 17 20 21 22 23 28 30 31 28 25 29 29 27 27 27 25 27 29 30 28 31 30 30 30 32 33 33 30 31 30 28
14 14 15 15 16 16 17 17 16 15 16 18 20 21 22 23 23 23 28 24 26 28 32 22 23 25 26 25 25 26 27 27 28 30 30 31 32 31 30 29 28 28 26
14 15 15 16 16 16 17 16 15 16 20 21 22 22 22 22 22 25 26 22 24 33 23 20 19 21 21 21 22 24 25 25 27 27 30 30 28 28 28 28 28 27 25
15 15 16 17 17 17 16 15 21 23 25 25 25 23 21 25 26 26 26 27 30 26 20 19 20 21 21 21 22 22 24 25 25 27 29 29 28 27 27 27 27 26 24
16 15 16 18 17 16 16 17 18 21 24 24 24 24 24 25 25 24 26 27 26 22 20 21 20 20 21 21 21 23 23 23 26 27 29 29 28 27 27 26 27 26 23
16 21 18 17 18 18 18 19 18 18 18 18 21 23 24 24 24 24 26 22 17 20 22 20 20 21 21 20 21 23 22 23 25 26 28 27 27 26 26 26 26 23 22
16 16 17 19 19 20 18 18 18 18 18 17 18 21 22 24 25 27 22 15 18 23 21 20 20 22 21 21 23 23 23 23 25 26 28 27 26 26 26 26 26 25 22
17 21 21 18 18 18 18 18 18 18 18 19 20 19 19 22 24 18 17 18 21 21 20 20 21 21 21 22 23 23 22 23 24 26 27 26 26 26 26 25 24 22 20
18 18 21 18 18 18 18 18 19 21 22 20 19 20 23 21 18 17 18 18 19 20 20 21 22 21 21 22 22 22 22 22 24 27 26 26 26 24 24 23 21 19 18
18 18 18 18 18 19 19 20 20 20 20 20 19 20 24 18 17 18 18 19 20 21 21 22 21 21 22 22 22 22 22 23 25 27 26 25 24 23 21 19 18 15 14
18 17 18 19 20 21 20 21 22 20 20 20 20 19 17 17 18 19 19 19 20 21 21 21 21 21 21 22 23 24 23 23 27 27 26 24 23 21 19 16 14 12 12
18 19 19 19 18 18 18 18 18 18 17 17 17 17 17 18 18 18 19 20 20 20 20 21 21 21 21 22 23 24 25 28 28 27 26 23 20 17 15 12 11 9 11
19 19 18 17 16 15 15 15 16 16 16 16 17 17 17 18 19 19 19 20 20 19 19 20 21 20 21 22 23 24 27 31 28 26 23 18 14 11 11 12 12 11 12
18 16 14 13 13 14 15 16 16 17 17 18 18 20 20 19 19 20 20 20 19 18 18 20 20 20 21 23 24 27 33 31 27 23 20 17 14 13 14 12 13 19 20

GFSGL_sfc_dewp_012.txt.gz
Dewpoint
35 34 30 27 26 25 25 25 24 25 24 23 21 23 21 20 21 23 28 22 29 29 26 28 32 36 41 41 43 38 37 40 40 39 36 35 37 42 46 48 48 49 51
32 29 25 24 22 22 22 22 21 20 20 19 18 19 18 18 19 22 20 19 27 23 26 30 33 37 33 36 37 32 36 41 34 32 32 34 38 38 41 43 44 47 48
28 23 19 19 18 18 18 18 18 18 17 16 17 17 16 17 17 15 17 21 22 25 28 26 20 27 26 27 27 29 36 35 34 34 33 36 35 35 40 41 40 41 45
21 17 17 17 16 16 17 17 17 17 16 15 15 15 15 15 15 15 20 22 24 28 23 20 18 19 22 27 25 28 35 34 34 34 34 33 33 34 37 36 36 39 40
15 15 16 17 16 16 17 17 16 16 15 15 14 14 14 15 12 20 22 23 24 23 21 20 23 27 30 29 29 30 33 33 32 34 33 31 31 31 32 35 36 38 39
14 13 15 16 16 17 16 15 15 15 14 15 14 14 14 14 24 27 27 23 23 22 22 23 23 27 28 33 33 33 31 29 28 30 31 28 28 30 34 36 37 36 34
12 13 14 15 16 16 15 15 14 14 15 14 14 14 14 15 25 28 29 23 23 23 24 24 24 25 30 29 31 32 31 32 31 29 28 29 29 32 36 35 34 35 36
11 12 14 15 15 15 15 14 14 14 14 14 14 15 15 15 25 27 29 24 24 24 25 26 26 30 29 27 27 30 32 27 27 30 32 34 34 37 36 34 36 35 36
11 12 13 14 15 15 14 14 14 14 14 14 15 15 16 16 25 27 27 23 24 24 25 27 31 27 29 31 29 28 25 30 31 32 34 34 35 34 34 33 33 33 33
11 13 13 15 15 14 14 14 15 15 15 16 15 16 19 17 24 28 26 23 24 24 28 30 28 26 30 30 23 25 27 24 25 29 31 32 31 31 33 33 34 32 31
13 14 15 15 15 14 14 15 15 15 16 16 15 16 17 20 22 28 28 23 23 28 27 22 23 31 31 27 27 24 24 25 29 28 28 29 30 30 32 34 34 33 31
14 14 15 15 14 14 15 15 16 16 16 15 15 17 19 21 25 26 28 27 28 25 22 22 27 32 26 25 26 27 27 27 25 26 26 28 28 29 30 32 32 33 32
13 14 14 14 15 15 15 16 16 16 15 15 16 19 21 21 22 27 28 29 29 23 22 31 28 25 24 23 25 26 25 22 24 25 25 27 27 29 32 30 31 30 29
13 14 14 15 16 16 17 17 17 16 16 16 19 20 21 21 22 23 24 26 26 25 31 29 23 22 23 23 21 21 21 22 23 26 25 25 26 28 29 29 29 27 25
14 14 15 15 16 17 17 17 16 16 20 20 20 21 21 21 22 25 26 21 23 25 24 19 18 18 18 18 19 19 20 21 25 24 23 23 24 28 27 27 28 27 25
14 14 15 16 17 17 16 16 21 23 24 24 24 23 21 24 26 26 25 26 28 23 16 16 20 19 18 18 19 19 20 21 22 22 23 24 24 27 26 27 27 26 24
15 14 16 18 16 16 17 18 17 19 22 23 24 24 24 24 24 24 26 27 23 20 17 22 19 18 18 19 20 20 19 21 23 23 23 24 25 26 26 26 26 25 23
15 20 17 16 17 18 18 18 17 17 17 18 21 22 23 23 23 24 26 21 14 18 20 20 18 18 19 20 20 19 20 22 22 23 23 24 27 26 25 25 25 23 22
15 16 17 18 19 20 18 17 17 17 18 17 18 21 21 23 24 28 22 15 17 18 18 19 19 19 21 20 20 20 21 22 23 22 23 25 26 25 25 26 26 25 22
17 20 21 18 18 17 17 17 17 18 18 19 20 18 18 22 24 18 17 18 18 18 18 19 20 20 20 20 20 21 21 21 21 22 23 26 25 25 24 24 23 21 20
18 18 21 17 17 17 18 18 19 21 20 19 19 19 23 21 17 17 17 18 18 19 20 20 20 20 20 20 21 21 21 21 22 22 25 25 24 23 23 22 21 20 18
18 18 17 17 18 19 19 19 18 19 19 18 19 18 21 17 17 18 18 18 19 20 20 21 20 20 20 21 21 21 21 21 21 23 25 24 23 22 20 19 17 16 16
18 17 17 18 19 20 18 18 18 17 17 17 17 16 16 16 17 18 18 18 19 20 20 20 19 19 20 22 23 22 21 21 23 26 25 23 22 19 18 16 14 15 18
18 18 18 18 18 16 15 15 15 16 16 16 16 16 16 16 17 18 19 19 19 20 20 19 19 19 20 22 22 23 24 25 28 26 22 18 15 14 14 15 15 15 16
19 18 18 16 15 14 14 14 15 15 15 16 16 16 17 18 18 18 19 19 20 20 18 18 19 19 21 21 22 23 25 32 26 21 17 13 13 17 18 17 16 11 12
18 16 14 13 13 13 14 15 16 16 16 17 18 18 18 18 19 20 20 20 19 18 17 18 18 20 21 22 23 27 32 27 23 21 17 16 19 20 17 12 16 22 20

GFSGL_sfc_dewp_015.txt.gz
Dewpoint
25 21 18 17 17 16 16 17 17 17 17 16 15 15 14 14 14 16 16 16 19 23 24 27 29 29 26 28 33 33 31 30 30 29 35 35 34 34 35 36 36 35 42
21 17 15 15 15 13 14 15 15 15 15 14 13 13 12 13 14 13 14 18 20 22 24 29 24 19 22 23 25 26 29 30 32 31 36 33 32 34 36 36 35 39 39
16 13 13 13 13 13 13 14 14 14 14 13 14 13 12 14 14 14 16 20 21 23 24 24 22 21 21 24 27 28 30 29 32 33 30 32 34 34 34 34 35 36 37
14 13 13 13 14 14 15 14 14 14 14 14 13 13 14 13 15 15 20 22 22 23 23 23 22 22 23 26 26 29 29 31 31 31 31 30 31 31 32 30 32 34 35
12 13 14 15 15 15 16 15 15 15 14 14 14 13 14 15 11 21 23 23 23 23 23 23 24 27 30 30 28 29 30 30 30 29 29 29 29 28 29 30 29 32 35
12 12 15 15 15 16 16 15 15 15 14 15 14 13 14 13 24 27 27 24 24 23 23 24 24 28 28 32 32 31 30 30 29 32 29 27 27 29 31 32 33 31 33
11 11 13 14 15 16 15 15 14 14 14 14 13 13 14 15 25 28 29 24 24 23 23 24 25 25 30 29 31 31 33 31 29 27 27 29 30 28 32 33 33 34 32
10 11 13 14 14 15 14 13 14 14 14 13 13 14 15 15 25 27 28 23 23 22 23 24 25 28 28 26 26 34 26 24 26 27 27 27 29 31 31 30 32 32 33
11 11 13 14 14 14 13 13 14 14 14 14 14 15 14 16 24 27 27 23 22 22 23 24 29 24 26 29 34 25 23 24 26 28 28 30 30 31 31 31 32 30 29
11 13 13 14 14 13 13 14 15 15 15 16 15 15 19 16 24 27 26 22 23 22 25 28 27 24 28 34 24 22 23 24 25 25 26 26 28 28 31 31 33 30 30
13 14 14 14 13 14 14 15 15 15 15 15 15 15 16 19 21 27 27 22 22 26 28 23 21 27 36 28 26 21 23 24 25 23 24 25 26 27 30 30 34 32 30
14 14 13 13 13 13 15 16 16 16 16 15 15 16 18 20 24 25 27 27 27 24 23 22 24 35 26 24 23 25 26 25 22 22 24 24 26 26 28 29 30 32 33
13 13 13 13 13 15 16 16 16 16 16 15 16 18 20 20 21 26 27 29 28 23 23 28 28 23 23 22 23 24 24 22 22 23 23 24 26 26 27 28 30 33 32
12 12 13 13 16 15 16 17 16 16 16 17 18 19 21 21 22 22 24 26 26 27 31 20 20 21 23 22 20 20 21 21 22 23 23 25 25 25 25 27 29 29 29
13 12 13 14 15 16 17 16 16 17 20 20 20 20 21 22 22 25 24 20 23 28 20 17 15 19 19 17 18 19 20 20 22 22 23 24 24 24 24 26 30 29 27
12 12 14 16 17 16 16 16 21 23 24 23 24 23 21 24 26 26 25 26 28 23 17 16 17 20 18 17 18 19 20 21 21 22 23 23 23 24 25 28 29 28 26
14 13 15 17 15 15 17 18 18 18 22 22 23 24 24 24 24 24 25 28 23 21 16 18 18 18 18 18 19 20 20 20 23 23 23 24 24 24 27 26 27 26 24
15 20 16 15 17 18 18 18 17 16 16 17 20 22 23 23 23 24 25 21 15 17 18 19 19 18 19 19 20 20 21 21 22 23 23 23 24 26 26 27 25 24 23
16 16 16 18 19 19 18 17 17 17 17 17 19 20 20 22 25 25 22 15 17 18 19 19 19 19 19 20 20 21 21 21 22 22 22 23 26 25 25 25 25 25 23
16 19 20 18 18 17 17 17 17 17 18 18 17 18 17 20 23 18 17 18 18 19 18 19 19 19 20 20 20 21 21 21 21 22 22 24 25 25 24 23 21 21 20
17 17 21 17 17 18 18 18 19 19 18 18 16 17 22 19 18 17 17 18 18 19 20 19 19 20 20 20 20 21 21 21 21 22 23 25 25 23 21 19 18 18 19
18 18 18 18 18 18 18 18 17 17 16 16 17 16 21 16 17 17 17 18 19 20 20 20 20 20 19 21 21 20 20 20 21 23 24 25 23 21 18 17 17 21 22
18 18 18 18 18 20 17 17 16 16 16 16 16 15 15 15 15 17 18 19 19 20 20 20 20 19 20 21 22 22 21 21 23 25 25 23 19 17 17 15 16 20 20
19 18 18 17 17 16 15 14 15 15 15 14 15 15 15 15 16 17 17 19 20 20 20 19 19 19 20 21 22 23 24 25 29 23 20 18 18 21 21 21 20 19 20
19 18 17 16 15 13 13 13 14 15 15 15 15 15 16 16 16 17 18 20 20 19 19 19 19 21 21 21 22 23 26 27 26 21 19 19 22 22 21 22 22 22 22
17 16 14 13 12 13 14 15 16 16 16 17 17 17 16 16 18 18 19 19 18 18 19 19 20 21 21 22 24 28 26 24 22 21 23 23 23 24 24 24 26 26 27

GFSGL_sfc_dewp_018.txt.gz
Dewpoint
21 18 16 13 10 10 10 11 11 11 11 10 10 10 9 10 10 11 11 13 16 18 20 21 22 25 22 20 22 21 22 23 26 26 27 27 26 28 29 28 31 30 32
18 14 13 12 11 10 10 11 10 9 10 10 10 9 9 10 11 10 11 14 16 18 19 21 21 19 21 21 20 21 24 25 27 29 27 26 26 26 28 28 27 26 28
15 12 11 11 11 10 10 11 10 10 10 10 11 10 10 12 12 12 11 15 18 19 20 20 21 21 20 21 22 24 25 25 29 29 27 28 28 28 27 28 28 27 25
12 12 12 12 12 12 12 12 11 11 11 12 11 11 12 11 12 10 16 19 19 20 21 22 21 21 21 22 23 24 27 27 27 28 29 29 28 28 28 27 26 28 29
10 12 13 13 13 13 13 13 12 13 12 13 13 11 11 12 7 18 21 21 21 21 21 20 21 24 28 27 25 28 29 27 29 29 29 26 24 24 25 27 29 28 29
10 10 12 12 13 15 14 13 13 13 13 13 12 11 10 9 21 25 26 23 22 21 20 19 19 23 24 29 31 30 28 28 29 30 26 23 23 25 27 26 28 28 27
9 9 10 11 13 13 13 12 13 13 13 13 11 11 10 12 21 26 28 23 22 20 19 19 18 17 25 26 27 28 30 35 32 25 24 25 27 26 27 29 30 30 29
9 8 10 12 11 11 10 10 12 12 12 11 10 11 13 11 22 25 28 22 20 19 19 19 19 22 26 24 24 28 32 24 24 21 23 26 29 31 29 28 30 31 32
8 8 10 10 10 10 10 11 11 12 12 11 12 12 12 12 22 25 25 21 19 19 19 19 23 24 25 27 28 32 26 23 22 25 28 29 28 28 28 28 30 28 29
8 10 10 10 10 9 11 12 12 12 12 12 11 11 16 13 22 25 25 21 20 19 21 23 26 23 26 30 29 21 25 21 23 25 24 23 24 25 28 27 30 28 28
10 11 11 10 10 10 11 12 12 12 12 11 10 11 13 17 19 25 26 21 21 24 26 23 21 26 29 26 25 20 22 22 23 22 22 23 24 25 26 28 29 29 27
11 11 11 10 10 10 12 12 11 11 11 10 10 14 16 16 22 24 26 26 26 25 23 22 24 29 24 23 22 25 24 24 22 22 23 23 24 25 26 28 28 29 30
11 10 10 10 10 12 11 11 10 10 10 11 13 15 16 17 17 24 25 27 28 23 21 26 28 23 22 21 23 23 23 21 22 23 23 24 25 26 27 28 29 30 30
9 9 10 10 12 11 12 11 10 10 12 14 16 17 18 18 18 20 23 25 25 24 29 26 21 20 20 21 19 19 20 21 22 23 24 25 25 25 25 26 27 28 29
9 9 10 11 11 11 10 10 12 14 19 19 20 20 20 20 20 24 25 21 23 26 24 18 15 15 17 17 18 19 20 20 23 24 24 23 23 24 25 27 28 29 28
10 10 11 13 11 10 10 11 18 21 23 23 24 23 20 23 25 25 24 25 28 25 18 15 16 19 18 17 17 18 20 22 23 23 23 23 24 24 24 26 29 29 26
11 11 12 11 9 10 11 13 14 15 20 21 22 23 23 24 24 24 25 27 24 21 15 18 19 19 18 19 19 20 21 22 24 23 23 23 23 24 26 27 27 26 25
13 18 13 11 13 14 14 14 14 13 13 14 18 21 22 22 23 23 24 22 14 16 19 19 19 19 19 19 20 21 21 22 22 23 23 23 24 24 26 26 26 27 24
13 12 12 14 14 17 15 14 14 14 14 14 15 17 18 21 23 23 22 15 17 18 19 18 19 19 19 20 21 21 21 21 22 22 22 23 24 26 25 24 23 22 22
13 16 18 15 14 14 14 14 14 14 14 14 14 14 14 19 21 18 17 17 18 18 18 19 19 20 20 21 21 21 21 21 21 22 23 24 26 26 23 20 18 20 21
13 13 18 16 15 15 15 14 15 15 14 14 13 14 21 19 18 16 17 17 18 19 19 20 20 20 21 22 22 21 21 21 22 23 24 24 26 24 20 18 21 24 25
14 14 16 16 16 15 14 15 14 14 13 13 14 14 20 15 16 17 17 19 19 20 20 21 21 21 22 22 21 21 21 22 23 24 25 25 24 23 23 21 21 24 26
15 17 16 15 14 16 14 14 13 13 13 14 14 13 13 13 15 17 18 18 19 20 20 20 20 22 22 23 23 24 23 23 25 27 25 22 23 24 24 24 23 23 24
18 16 15 13 12 13 12 11 12 14 14 13 13 13 14 16 15 15 17 19 19 20 20 20 21 22 22 23 24 25 26 28 29 26 23 24 24 25 25 25 25 25 24
16 14 12 11 10 10 11 12 13 13 14 14 14 14 16 15 15 17 18 19 20 19 19 19 22 23 23 23 23 25 27 25 26 28 27 26 27 27 27 26 26 26 26
13 11 9 9 10 11 13 14 16 16 17 16 17 18 17 16 17 19 19 19 19 19 19 20 21 23 23 24 25 27 26 28 31 30 27 27 28 28 28 29 28 28 28

GFSGL_sfc_dewp_021.txt.gz
Dewpoint
25 22 20 16 14 14 13 11 10 9 9 9 9 9 9 10 10 12 12 14 13 17 20 21 22 22 23 22 24 24 24 24 22 23 24 28 27 26 26 27 28 28 28
22 19 18 17 16 14 11 10 9 8 9 9 9 10 10 10 11 11 12 12 13 16 19 20 21 18 22 23 23 23 24 24 24 25 26 26 25 26 27 27 25 25 26
19 18 17 16 15 12 10 10 9 10 10 10 11 12 11 12 12 11 11 11 15 18 19 20 21 22 21 22 22 23 24 24 27 27 25 25 26 28 27 24 21 23 24
18 17 16 15 13 13 12 12 11 11 12 13 13 13 13 11 12 12 12 17 19 19 21 22 22 21 20 21 22 24 26 28 28 27 25 26 27 27 25 22 21 25 26
15 15 15 15 13 12 13 13 12 13 13 14 14 13 13 14 9 16 19 20 21 21 21 20 20 25 27 25 21 25 27 29 25 26 28 28 30 24 22 22 23 24 24
13 12 13 12 12 14 13 13 13 14 14 15 14 13 13 11 21 24 23 22 22 21 21 20 19 25 23 26 28 29 28 25 24 27 29 29 23 21 21 23 24 25 24
12 10 9 10 11 12 12 12 13 14 14 14 13 13 12 13 22 24 26 22 22 21 19 19 18 17 23 24 28 29 28 29 31 27 25 24 21 20 24 26 28 27 23
11 9 9 10 9 10 10 10 13 12 13 12 12 13 14 11 21 23 25 22 21 21 19 19 19 21 24 25 23 28 30 29 25 21 22 21 22 26 29 26 24 26 28
9 8 8 8 9 9 10 11 12 12 13 12 13 13 12 11 21 23 24 21 21 20 20 20 22 22 26 28 27 30 23 20 23 26 27 27 26 27 26 24 26 25 24
8 8 8 9 9 9 10 11 13 13 13 13 12 11 15 11 21 24 24 21 21 21 22 24 27 23 27 30 26 20 21 19 25 23 21 21 23 23 26 25 26 25 24
9 9 9 9 9 10 12 12 13 12 13 11 10 9 11 15 17 24 25 21 21 22 26 23 22 26 29 29 25 19 20 25 23 20 19 21 22 23 24 25 26 26 24
10 10 10 10 10 10 12 12 11 11 11 9 9 12 15 15 22 23 25 25 25 23 23 22 22 32 26 23 22 23 24 23 19 20 22 22 22 23 24 25 25 26 27
9 9 9 11 11 11 11 11 11 10 9 8 11 15 17 18 18 24 25 26 27 22 21 24 32 24 22 20 22 23 22 19 20 22 23 22 23 24 24 25 26 27 27
8 8 11 11 12 11 13 11 9 9 11 13 16 18 20 20 20 20 20 23 25 24 28 30 21 20 21 20 19 19 18 19 20 22 23 23 23 23 24 25 26 26 26
9 10 11 12 11 12 11 9 9 11 17 18 20 20 20 19 19 23 23 20 23 26 24 19 16 15 16 17 17 17 18 19 23 22 22 22 22 23 23 25 25 27 26
11 12 12 13 11 11 9 9 17 20 21 21 22 21 19 23 25 25 24 25 27 25 18 15 16 17 17 16 16 17 19 21 21 22 22 22 22 22 22 25 27 27 25
12 12 12 13 10 9 11 12 13 16 20 20 21 22 22 22 23 23 24 26 24 21 16 17 18 17 17 17 18 20 21 21 22 22 22 22 22 23 23 25 24 25 24
13 18 14 11 13 12 12 14 14 13 13 13 18 19 21 21 21 23 24 21 16 17 18 18 18 18 18 18 21 21 21 21 21 21 22 21 22 23 23 23 22 22 22
14 14 13 15 16 16 15 14 14 13 13 13 14 16 17 20 22 23 21 16 17 17 18 18 18 18 19 21 22 22 21 21 22 21 21 22 23 24 24 24 23 25 26
15 17 17 15 14 14 14 14 13 13 14 14 14 14 13 18 21 17 17 17 17 18 18 18 18 19 22 22 22 21 21 20 20 21 22 23 24 25 24 24 23 23 24
14 14 17 14 14 15 15 14 14 15 15 14 13 14 21 18 17 16 16 17 18 18 18 19 19 21 22 22 21 21 20 20 21 22 23 24 25 23 25 25 24 25 26
14 14 15 16 16 15 14 15 14 14 14 14 14 14 19 15 16 17 17 18 18 19 19 19 20 22 22 22 22 21 21 21 22 23 24 25 23 23 26 25 26 25 26
15 16 16 15 14 15 12 13 13 13 13 14 14 13 13 14 15 17 17 17 19 19 19 19 21 21 21 22 23 23 22 23 25 27 25 24 23 24 26 26 26 25 25
18 16 15 13 11 11 11 10 12 13 13 13 14 14 15 15 15 15 17 19 19 19 19 19 21 21 22 22 23 23 25 26 29 29 28 26 25 26 27 26 27 26 25
17 15 12 10 9 9 10 11 13 14 15 15 15 16 16 16 16 18 18 19 19 18 18 19 20 22 22 21 22 24 26 31 31 31 30 28 28 28 29 28 28 26 24
14 11 9 9 10 10 13 15 17 17 18 18 18 18 17 17 17 19 19 18 18 17 18 18 19 20 21 22 24 27 30 33 33 32 31 30 29 29 29 29 29 29 28

GFSGL_sfc_dewp_024.txt.gz
Dewpoint
24 21 18 16 16 15 13 12 10 11 10 11 11 11 12 13 12 13 13 13 13 15 16 17 20 20 21 22 23 24 23 23 22 22 22 22 26 24 24 24 27 26 27
21 19 19 18 16 13 11 11 11 10 11 11 12 13 13 14 14 13 12 13 13 15 17 19 19 19 21 22 23 21 22 23 22 21 24 26 24 24 24 24 26 25 24
20 19 18 16 14 12 12 12 12 12 12 13 14 15 15 16 15 13 13 13 17 18 20 21 21 21 21 22 21 21 21 21 26 27 25 26 25 24 25 27 28 24 21
19 18 17 15 14 13 13 14 14 13 13 15 15 16 17 16 15 14 15 17 19 20 22 22 22 21 21 20 20 20 22 25 26 26 27 28 24 25 27 30 22 22 19
18 19 17 16 14 14 16 16 15 15 15 16 17 16 16 15 11 15 18 19 20 21 22 22 22 24 28 25 20 22 24 23 26 30 28 26 26 25 24 22 19 19 21
16 16 16 14 13 16 15 15 14 15 15 16 16 15 15 12 22 25 22 19 20 21 22 21 20 23 23 27 28 28 26 27 27 29 28 25 19 19 22 21 21 22 22
14 12 12 12 13 14 13 13 14 14 14 14 14 13 13 14 23 24 25 19 21 21 21 20 19 18 23 22 27 30 34 33 30 25 20 19 19 24 27 25 25 26 25
13 11 12 12 11 12 11 11 12 13 13 13 13 13 13 12 22 23 24 20 21 21 21 21 21 21 23 24 24 29 29 28 23 21 20 20 24 23 23 22 23 23 24
12 9 9 10 10 11 11 11 12 13 13 13 13 13 12 10 21 23 22 19 20 20 21 22 23 24 27 28 26 30 26 22 24 25 29 29 26 25 24 21 24 24 21
10 10 9 10 10 10 10 12 13 13 13 13 11 11 16 10 21 24 23 20 20 20 22 24 28 25 27 30 26 21 21 18 20 25 19 19 21 22 26 23 24 23 22
10 10 11 11 10 10 12 13 13 12 13 12 10 9 11 14 17 25 26 20 20 21 26 24 24 26 31 29 26 18 19 22 23 17 17 19 21 23 23 24 25 25 22
11 11 12 11 11 11 12 13 12 12 11 10 9 12 15 17 24 24 26 26 25 23 23 21 21 30 25 24 21 24 24 23 17 18 20 22 21 21 22 23 24 25 26
10 9 10 11 12 12 12 12 11 11 10 10 12 15 18 20 20 25 26 27 27 23 21 25 30 25 22 19 22 23 22 18 19 22 22 21 22 23 24 24 25 25 26
9 9 11 12 14 12 14 13 11 9 11 12 15 17 18 18 19 19 20 23 24 23 28 28 22 20 21 20 18 18 17 18 22 23 22 22 23 23 22 24 23 23 25
10 11 12 14 13 13 13 10 9 11 16 16 17 17 17 18 18 23 22 19 21 25 22 18 14 15 16 15 16 16 18 20 23 22 22 21 21 21 21 23 24 25 23
12 14 14 15 14 14 11 10 18 20 22 22 22 20 17 22 24 24 23 24 26 24 17 14 16 16 16 16 17 19 20 22 22 22 21 21 21 21 21 24 24 23 22
13 13 14 15 13 11 12 12 13 16 20 20 21 21 22 22 22 22 24 24 23 21 15 17 17 17 17 18 19 21 20 21 22 21 21 21 21 20 22 22 24 23 22
14 19 16 15 15 15 14 15 15 14 13 13 18 20 21 21 21 23 23 21 15 17 17 18 17 17 18 20 21 21 21 20 20 21 21 20 21 22 22 23 23 22 23
14 15 15 16 17 17 15 15 15 14 13 13 14 17 18 20 22 23 21 15 16 17 18 17 17 18 20 21 21 21 20 20 21 20 20 21 22 22 23 23 23 25 26
16 19 18 16 15 15 15 15 15 14 14 14 14 13 13 17 18 15 15 16 17 17 16 17 18 19 21 21 20 20 20 19 19 20 21 21 23 24 22 22 24 23 24
16 15 18 15 15 16 16 15 14 15 14 13 13 14 21 17 15 15 15 17 16 16 17 19 19 20 21 20 20 20 19 19 20 21 22 23 25 23 22 23 25 25 25
16 16 16 16 17 16 14 14 12 13 13 13 13 14 20 14 15 16 17 16 16 18 19 19 20 20 20 20 20 20 19 19 20 21 22 25 25 24 23 24 25 25 24
17 17 17 17 15 16 12 13 12 12 12 13 14 14 13 14 15 17 16 16 18 19 19 19 20 20 20 21 21 21 20 20 22 23 25 27 26 25 25 25 25 25 25
18 18 16 14 12 11 10 9 11 13 14 15 15 14 15 16 15 15 17 18 19 18 18 18 19 19 20 20 21 22 23 24 25 29 30 28 26 26 27 27 26 23 25
18 16 13 11 10 9 10 11 13 15 16 15 15 16 16 16 16 17 17 18 18 18 17 17 19 19 19 20 21 22 24 30 32 32 31 28 25 25 27 26 25 26 24
14 12 10 10 11 11 13 15 16 16 17 18 18 17 17 17 17 17 17 17 17 16 16 17 18 18 19 21 22 25 30 34 34 35 32 30 28 27 27 26 27 26 25

GFSGL_sfc_dewp_027.txt.gz
Dewpoint
20 17 16 16 14 13 11 11 10 11 11 11 12 13 13 14 14 14 14 14 14 16 18 18 20 20 22 22 23 23 24 24 21 21 21 21 22 25 24 24 26 24 24
20 18 18 16 13 11 11 11 12 11 12 12 14 14 15 16 16 15 14 14 15 17 19 21 20 21 22 22 22 22 22 21 21 20 22 24 25 25 24 26 23 23 27
20 18 17 15 13 12 12 13 13 13 13 14 15 16 16 18 18 16 14 14 17 19 21 21 22 22 22 22 22 21 22 21 24 26 27 26 24 28 28 25 27 28 27
19 18 16 14 13 13 14 15 15 14 14 15 16 17 18 17 17 16 15 18 19 20 22 23 22 22 22 22 21 21 22 23 23 22 23 28 26 26 29 23 18 20 21
19 19 17 15 14 15 16 15 15 15 15 17 17 17 17 16 12 17 18 19 19 20 22 22 22 25 27 25 21 21 22 23 27 30 26 28 26 20 18 19 18 21 23
17 17 16 14 14 15 14 14 14 15 15 15 15 15 15 13 23 25 23 18 19 20 21 21 22 24 24 28 28 28 27 25 25 28 28 23 19 19 20 19 22 25 22
15 13 14 14 13 14 13 13 13 13 14 14 14 14 13 14 23 24 25 18 20 21 21 21 21 20 25 23 28 29 29 32 32 27 22 21 21 20 23 27 26 24 23
14 13 13 13 11 12 11 11 12 13 13 13 13 14 14 12 23 23 25 19 20 21 21 21 21 23 26 25 23 25 30 30 25 22 21 21 25 26 22 20 21 23 24
12 10 10 10 10 11 10 10 12 13 13 13 13 13 12 12 22 24 23 20 20 20 21 22 25 24 27 27 25 30 26 24 22 25 29 28 25 25 24 22 24 22 19
10 11 9 10 10 10 10 11 13 13 13 14 12 12 16 12 22 25 24 21 21 20 24 26 27 23 26 31 26 22 20 17 22 25 17 18 20 21 26 23 24 20 20
11 11 11 11 10 10 12 12 13 13 13 12 11 10 12 16 20 26 26 21 21 26 25 22 21 26 34 26 25 17 18 22 21 16 16 18 20 21 21 22 25 24 21
12 11 11 10 11 12 12 13 13 12 12 10 10 13 15 18 24 24 26 26 27 22 22 21 22 31 24 23 21 24 24 23 17 18 19 20 20 21 23 24 25 25 26
10 9 10 12 12 13 12 13 13 12 10 10 12 15 17 18 19 24 26 26 25 21 23 26 27 23 22 19 22 23 23 18 21 21 20 20 21 23 24 24 24 25 25
9 10 12 13 16 13 14 13 11 10 12 14 16 17 17 17 18 19 19 20 23 27 27 22 20 20 21 20 18 18 18 21 22 22 21 21 22 22 22 23 22 23 24
11 12 13 15 14 14 14 11 13 13 18 17 18 17 17 17 17 22 22 19 22 24 21 16 14 15 16 16 16 17 18 20 21 21 21 21 21 21 21 22 22 23 22
12 14 15 16 15 14 12 13 19 20 22 22 22 20 17 22 24 24 24 26 25 23 17 14 15 17 16 15 16 18 19 20 20 21 20 20 20 20 20 22 23 23 23
13 13 15 15 14 13 14 14 14 16 20 20 21 21 22 22 22 23 24 23 22 21 15 17 17 16 16 17 19 20 19 20 21 20 20 21 20 20 21 21 23 23 22
14 19 17 15 15 16 15 16 15 14 14 14 17 20 20 21 22 23 22 20 14 16 17 17 16 16 18 19 20 19 20 19 19 20 21 20 20 20 20 21 21 22 24
15 16 16 17 17 18 16 15 16 15 14 14 14 16 17 20 23 22 21 14 16 17 16 16 17 18 19 20 20 19 18 19 20 19 19 20 20 21 21 21 21 24 26
16 19 19 16 15 15 16 16 15 14 13 13 13 12 13 17 17 15 15 16 17 16 16 17 18 19 19 19 19 18 18 18 18 19 19 20 21 23 23 22 21 22 23
16 16 20 15 15 16 17 15 15 14 12 12 11 13 21 17 15 15 16 16 16 16 18 19 19 19 19 19 18 18 18 18 18 19 19 21 21 24 25 24 23 24 24
16 17 17 17 18 17 15 13 12 11 11 12 13 14 20 14 15 16 16 16 17 18 19 19 19 18 19 19 19 18 17 17 19 20 20 20 22 26 25 24 25 25 25
17 18 17 17 16 15 12 11 11 12 12 14 15 15 14 14 16 16 16 17 18 18 18 18 19 18 18 19 20 20 19 19 21 21 21 22 26 26 26 25 25 25 24
18 18 17 14 12 11 10 11 11 14 15 15 15 15 15 16 15 15 17 17 18 17 17 18 18 18 18 19 20 21 22 22 23 26 30 29 26 26 25 25 24 25 25
17 15 12 10 10 10 10 12 14 15 15 16 16 16 15 15 16 17 16 17 17 16 16 16 17 19 19 19 19 20 23 28 32 32 32 29 28 27 25 24 23 25 24
14 11 10 11 11 11 13 14 15 16 17 17 16 15 17 17 17 16 16 16 16 15 15 16 17 18 19 20 21 24 30 33 34 34 31 30 29 28 27 25 25 23 23

GFSGL_sfc_dewp_030.txt.gz
Dewpoint
17 16 16 15 13 12 11 10 10 11 11 12 13 14 14 15 15 15 15 15 14 16 18 19 21 22 22 22 24 24 23 23 22 21 21 22 22 24 25 25 26 24 27
18 17 16 14 12 11 11 12 12 11 12 13 14 15 15 16 17 16 16 15 14 17 19 21 22 20 21 23 23 23 23 23 22 22 25 25 24 23 23 24 28 27 26
19 17 15 14 13 12 12 13 13 13 13 14 15 16 17 19 18 17 16 15 17 18 20 21 22 22 21 22 23 23 22 22 24 22 21 22 22 25 27 27 25 19 19
18 17 15 14 13 13 14 14 15 14 14 15 16 17 18 17 17 16 17 19 19 19 21 23 23 22 22 22 22 21 23 22 22 23 24 27 26 24 30 21 18 19 19
18 18 16 15 15 15 15 15 14 15 15 16 16 16 16 16 11 19 20 20 19 19 20 21 22 24 27 25 22 22 22 24 28 28 24 23 27 20 19 19 19 19 20
19 18 17 15 15 15 14 14 13 14 14 15 14 14 15 13 23 25 23 19 19 19 20 21 21 24 24 28 28 28 27 23 23 24 28 22 20 19 20 20 21 24 20
17 15 14 15 14 14 13 12 12 13 13 13 13 13 13 14 23 25 26 21 20 20 20 20 20 20 25 25 28 27 28 30 33 25 21 20 19 20 24 26 23 22 21
14 14 15 14 11 12 11 11 11 12 12 13 13 13 14 12 23 26 27 22 21 21 21 21 22 24 24 22 21 25 30 25 24 20 19 21 25 24 21 21 23 24 24
13 12 11 11 10 10 10 10 11 12 13 13 13 13 11 13 23 25 25 21 21 21 21 22 26 23 25 27 30 25 22 20 20 25 29 26 25 25 24 24 23 21 18
11 11 10 11 10 10 10 11 12 13 13 14 12 11 16 13 21 25 24 21 20 20 23 27 26 23 27 31 21 19 18 16 24 25 17 18 20 20 25 22 24 20 19
11 11 11 11 10 11 12 12 13 13 13 11 11 11 11 15 19 25 26 21 20 26 24 20 20 28 28 25 24 17 19 23 23 16 17 18 20 20 20 22 25 24 20
12 11 11 10 11 12 12 13 13 12 11 11 11 13 15 17 24 24 25 26 26 20 21 23 25 27 24 23 22 24 25 23 17 19 20 20 20 21 22 23 24 25 25
10 9 11 12 13 13 13 13 12 12 12 12 14 17 17 18 18 24 25 26 24 22 24 25 25 23 22 20 22 24 22 18 19 20 20 20 21 22 23 23 24 24 24
9 11 13 13 16 14 14 13 12 13 14 16 17 17 17 17 18 18 20 20 24 24 25 21 20 20 21 20 18 17 17 18 20 21 20 20 21 21 21 22 22 21 22
11 12 13 15 15 14 13 12 15 16 19 18 18 18 17 17 18 22 21 19 21 22 21 16 14 15 15 15 15 16 17 18 20 19 20 19 19 20 20 21 22 23 21
11 13 15 17 14 14 13 14 19 20 22 21 22 20 18 22 23 23 24 24 24 23 17 14 15 16 16 15 16 17 18 19 19 19 19 19 19 20 19 21 21 22 22
12 14 16 15 14 14 14 15 15 16 20 20 20 21 22 21 22 23 24 23 22 20 15 16 16 16 16 17 18 18 17 18 19 18 18 19 20 19 20 19 20 22 21
13 19 17 15 16 16 16 16 15 15 15 14 17 18 19 20 22 23 22 20 14 16 16 16 16 17 17 18 18 18 18 17 17 17 20 18 19 19 19 19 21 21 23
15 17 17 17 16 18 15 16 16 16 15 13 13 14 16 20 23 22 20 15 16 16 16 16 17 17 18 18 18 18 18 17 19 19 17 18 19 20 19 20 23 24 25
16 19 19 17 15 16 16 16 15 14 12 12 11 11 13 19 17 15 15 16 16 16 16 17 17 18 18 18 18 18 17 17 17 17 18 19 19 20 20 22 24 22 23
15 16 20 17 17 17 17 15 14 12 12 11 12 13 22 18 15 15 16 15 15 17 17 17 17 17 18 17 17 17 16 17 17 18 18 19 20 20 21 25 24 25 25
16 17 18 18 18 16 14 12 11 11 11 12 14 15 20 15 15 16 15 16 17 17 17 18 18 17 18 18 18 17 17 17 17 18 19 19 20 21 23 25 24 25 24
18 17 17 16 14 14 11 11 11 12 13 14 14 14 14 15 15 15 15 16 17 17 17 17 17 17 18 19 19 19 18 18 20 21 20 20 22 26 26 25 24 24 23
17 16 14 11 11 11 10 11 12 15 15 14 15 15 15 14 14 15 16 17 16 16 16 16 17 17 18 18 19 20 21 21 22 24 28 30 28 27 26 25 24 25 22
15 12 11 10 11 11 11 12 14 15 15 15 15 14 14 14 15 16 15 16 16 15 15 15 17 18 19 19 19 20 22 28 32 31 31 30 29 28 27 25 20 22 22
12 11 11 11 11 12 13 13 14 15 15 15 15 15 15 15 15 15 15 15 14 14 14 15 17 18 18 19 20 24 29 33 33 33 29 28 29 28 28 22 22 24 22

GFSGL_sfc_dewp_033.txt.gz
Dewpoint
18 16 15 14 12 11 11 11 11 12 12 13 14 14 15 16 16 16 16 16 15 16 17 19 20 22 23 22 23 24 24 23 22 21 22 23 24 22 21 22 24 24 25
17 16 15 13 12 11 11 12 12 12 13 14 15 15 16 17 17 16 16 16 16 16 18 19 20 20 22 22 23 23 23 23 22 23 25 23 20 21 22 22 25 27 34
17 15 14 13 12 12 13 13 13 13 14 15 16 16 16 18 17 16 15 16 17 18 19 20 20 21 22 22 22 22 23 23 25 24 22 22 23 24 25 28 28 24 19
17 16 15 14 13 14 14 14 14 14 14 15 16 16 16 16 16 15 18 19 20 19 21 21 21 22 22 22 22 22 24 23 22 23 24 25 24 27 28 20 17 19 18
17 18 17 15 15 15 15 15 14 15 14 15 15 15 15 15 11 20 21 21 20 19 20 20 21 24 26 25 22 21 22 24 25 25 23 26 21 19 16 18 18 19 21
18 18 17 16 16 16 15 13 13 13 14 14 14 14 14 13 23 25 25 23 21 20 20 21 21 24 24 28 28 28 26 22 25 28 23 20 18 17 19 19 23 23 18
17 16 16 16 16 15 13 12 12 12 13 13 13 13 13 13 22 26 27 23 21 21 21 21 21 20 25 25 27 27 30 32 27 23 20 18 18 19 26 25 23 23 21
16 15 16 15 13 12 11 10 11 12 12 13 13 13 13 11 24 25 27 22 22 22 21 21 21 22 26 23 24 31 24 22 20 19 19 21 26 24 20 21 24 24 24
14 13 13 12 11 10 10 11 11 12 13 12 13 12 11 12 23 25 25 21 21 21 21 22 25 25 25 28 27 23 19 18 20 25 29 26 25 26 25 25 22 21 18
12 12 11 11 10 10 11 12 12 13 13 13 11 11 16 13 22 25 24 21 20 20 25 26 25 23 27 30 21 19 18 17 24 26 17 18 21 21 25 22 24 20 19
12 12 12 11 11 12 12 13 13 12 12 12 12 12 13 16 20 25 25 21 20 21 19 21 22 27 29 25 25 18 19 24 22 16 17 18 20 20 20 22 24 23 20
13 12 11 12 12 12 13 13 12 12 12 12 13 15 17 17 23 23 25 25 25 19 21 22 23 27 24 24 22 25 26 23 16 17 19 19 19 20 21 22 23 24 25
10 11 12 13 13 13 13 12 12 13 14 14 15 17 17 18 18 24 25 26 24 23 22 23 25 24 22 20 22 24 23 17 18 20 19 19 19 21 22 22 23 23 23
10 12 13 14 15 14 14 13 13 15 16 17 17 17 18 17 18 19 20 20 24 22 24 21 21 20 21 20 18 17 16 17 19 20 19 19 20 19 19 20 20 20 21
11 12 14 16 14 14 13 13 17 17 19 18 19 18 17 17 18 23 22 20 21 22 21 16 14 14 15 15 15 16 16 17 19 18 18 18 18 18 18 20 20 21 19
12 13 16 16 14 14 14 14 19 20 22 22 22 20 18 22 23 24 24 25 24 24 17 14 15 15 15 15 15 16 17 18 18 19 18 17 17 18 18 19 20 20 20
12 15 15 15 14 14 15 15 15 16 20 20 20 21 21 21 22 23 24 23 22 21 15 16 16 16 16 16 17 17 17 17 18 17 17 17 19 17 18 18 19 20 21
14 20 16 16 16 16 16 15 16 15 14 14 17 18 19 21 22 24 23 20 14 16 16 16 16 16 16 17 18 17 17 17 17 16 18 17 17 17 17 18 19 20 24
15 16 17 17 16 18 16 16 16 16 14 12 12 14 16 20 23 22 20 15 16 16 15 16 16 16 17 18 18 17 17 17 19 18 16 17 17 18 17 18 20 24 26
15 19 19 17 16 17 17 16 15 13 11 11 11 11 13 18 18 15 15 16 16 15 15 16 16 17 18 18 17 16 16 16 16 17 16 17 18 19 19 19 20 22 23
15 16 19 17 17 17 16 14 12 11 11 11 12 14 21 18 15 15 15 15 15 16 16 16 16 17 17 17 17 16 16 16 17 17 17 18 19 19 20 21 21 24 24
17 17 17 17 16 13 13 12 11 11 12 13 14 14 20 15 15 16 15 15 16 17 17 17 17 17 18 17 17 17 16 16 17 18 18 19 20 20 21 22 24 24 24
16 16 15 13 12 14 11 11 12 12 14 14 14 14 14 14 14 14 14 15 16 16 16 16 17 16 17 18 19 19 18 17 19 20 19 19 21 22 26 26 24 24 22
15 13 11 10 11 12 11 12 12 15 14 14 14 13 14 14 13 14 15 16 15 15 15 16 17 17 17 18 19 20 20 21 22 24 28 30 28 28 28 26 25 23 21
12 11 11 11 11 11 12 13 14 14 14 13 13 14 14 13 14 15 15 14 14 14 14 15 16 17 18 18 18 19 22 29 32 32 31 29 29 28 28 26 26 22 20
11 11 11 11 11 12 12 13 13 13 13 13 14 14 14 14 14 14 14 14 13 13 13 14 16 17 18 18 20 24 29 34 33 33 29 28 29 29 29 24 22 22 18

GFSGL_sfc_dewp_036.txt.gz
Dewpoint
18 16 14 13 11 11 11 12 12 13 13 14 15 15 15 16 16 15 15 15 16 17 17 18 20 20 22 23 24 23 23 23 21 21 22 22 23 22 21 22 24 23 24
16 14 13 12 12 11 12 12 13 13 14 14 15 15 15 16 16 14 14 15 17 18 19 19 20 19 21 22 22 22 23 23 22 22 24 22 21 22 23 24 26 28 31
15 14 13 13 13 12 13 14 13 14 14 15 15 15 15 16 15 14 14 17 18 19 20 20 20 21 21 22 22 22 23 23 25 24 21 22 23 24 26 26 22 20 17
15 14 14 14 13 14 14 14 15 14 14 15 15 15 15 15 15 14 18 20 21 20 21 21 21 21 21 22 22 22 22 21 21 23 23 24 28 24 21 17 16 18 18
16 17 16 16 16 15 15 15 15 15 14 15 14 14 14 14 11 20 22 22 22 20 21 21 21 24 27 26 22 22 22 23 24 27 26 22 20 18 17 17 17 19 23
18 17 17 17 16 16 15 14 14 14 13 14 13 13 13 12 22 25 25 23 23 21 21 21 21 24 24 28 28 28 26 25 29 23 21 19 18 17 18 19 24 22 19
17 16 17 17 16 15 14 13 13 12 13 13 12 13 12 13 23 26 26 23 22 22 21 21 21 21 25 23 28 29 30 31 26 22 19 18 18 19 26 24 22 22 21
16 15 16 16 14 13 12 12 12 12 12 12 12 13 12 12 25 25 26 22 22 21 21 21 21 22 24 25 23 30 26 22 20 19 19 21 27 24 21 21 24 24 23
15 14 13 13 12 12 11 11 12 12 12 12 13 12 12 14 24 25 25 22 21 21 21 22 23 24 26 28 29 25 20 19 21 25 29 27 25 26 25 24 22 21 18
13 13 12 12 12 11 12 12 13 12 12 12 12 13 18 15 23 25 24 21 21 20 21 21 25 24 27 31 21 19 19 17 23 26 17 18 20 20 25 21 22 19 18
12 12 12 12 12 12 12 12 12 12 12 12 13 15 15 17 20 25 25 21 21 21 19 20 22 26 27 26 25 18 19 24 22 16 16 17 19 19 19 20 22 22 19
13 12 13 13 12 12 12 12 11 12 13 14 15 16 17 18 23 24 25 26 25 20 20 22 21 26 25 24 22 25 26 23 16 17 18 19 19 19 20 21 21 22 23
11 12 13 14 13 13 12 12 12 14 15 15 16 18 18 18 18 24 26 26 25 23 22 23 26 24 22 20 22 24 23 17 17 19 19 18 19 19 20 20 20 21 22
12 12 14 17 14 13 14 13 15 15 16 17 18 18 18 18 18 19 20 21 24 24 24 22 21 20 20 20 17 16 16 16 19 19 18 18 19 18 18 19 19 19 20
12 13 15 15 14 13 14 14 16 18 19 19 19 19 18 17 18 22 22 20 22 22 21 17 14 14 15 14 14 15 16 16 18 18 18 17 17 17 17 18 19 20 18
12 14 18 15 14 14 14 15 19 20 22 22 21 19 17 21 23 24 24 25 24 24 18 14 14 15 15 14 15 15 16 18 17 18 17 17 16 16 17 18 18 18 19
13 15 15 15 14 14 15 16 15 16 19 19 19 20 21 21 23 24 24 23 22 21 15 15 15 15 15 16 16 17 16 17 18 18 17 16 18 17 17 16 17 18 19
18 21 16 16 15 15 17 16 16 15 14 13 16 18 19 21 23 24 23 20 14 16 16 16 15 15 15 16 16 17 17 16 16 16 18 18 16 16 16 15 16 17 20
16 17 18 17 16 18 17 16 15 15 13 11 11 14 16 20 23 23 20 15 15 15 15 15 15 16 16 17 17 17 17 17 19 18 16 17 17 17 16 16 17 22 24
15 20 20 17 16 16 16 14 14 12 10 11 11 12 13 18 19 15 15 16 15 15 15 15 15 16 17 17 16 16 16 16 16 16 17 17 17 18 17 18 19 20 20
16 16 19 16 16 15 13 13 11 11 11 11 12 14 21 18 15 15 15 15 14 15 16 16 16 16 16 16 16 16 16 16 17 17 17 17 18 18 19 20 21 22 24
17 16 16 15 13 11 13 11 11 12 12 13 14 14 20 14 14 15 14 14 15 16 16 16 16 16 17 17 17 16 16 16 16 17 18 18 19 20 20 21 22 24 23
14 13 12 10 11 14 11 11 12 13 14 14 13 13 13 13 13 14 14 14 15 15 15 16 16 15 16 18 18 18 17 17 19 19 19 19 20 21 25 26 25 24 21
12 11 10 10 11 12 11 13 13 14 13 13 13 12 13 13 13 13 14 15 15 14 15 15 16 16 16 16 18 20 20 21 21 23 26 30 27 28 27 26 26 23 21
11 11 11 11 11 11 12 12 13 12 12 12 12 12 13 12 13 13 14 14 14 14 14 15 16 16 16 17 18 19 21 28 32 33 31 29 28 28 28 26 23 17 15
11 11 11 11 11 12 12 11 11 12 11 12 13 12 12 12 13 14 13 13 13 13 13 14 16 16 16 17 19 23 29 32 34 34 31 28 28 29 29 25 20 18 16

GFSGL_sfc_dewp_039.txt.gz
Dewpoint
23 20 18 15 14 13 13 13 14 14 15 16 16 16 16 16 15 14 14 16 17 19 20 20 21 21 21 21 22 23 22 22 21 21 22 22 21 21 21 23 25 24 26
19 17 15 14 13 12 12 13 14 14 15 15 15 15 14 15 14 13 14 17 19 20 20 21 21 20 21 21 21 21 22 22 23 22 22 22 20 21 23 25 23 21 22
16 14 14 14 13 13 13 14 14 15 15 15 15 14 14 15 14 13 16 19 21 21 21 21 21 20 19 20 21 22 23 22 24 24 22 23 24 26 24 21 18 18 17
15 15 15 14 14 14 14 14 15 15 15 15 14 14 14 13 13 15 20 22 23 22 22 22 21 21 21 22 23 23 24 23 23 24 24 27 25 22 23 20 19 20 20
16 18 16 16 16 15 16 15 15 15 15 15 14 13 13 14 10 21 23 24 23 23 23 21 21 24 27 27 24 23 23 24 26 27 27 23 23 20 18 19 19 21 24
17 17 18 16 16 16 15 15 15 15 14 14 13 13 12 11 22 25 26 23 23 22 21 21 21 25 25 28 28 28 27 25 29 28 25 22 18 18 20 21 25 23 21
17 17 16 15 15 15 15 14 14 14 13 13 12 12 12 13 23 26 26 23 22 22 21 21 20 20 25 23 27 29 29 34 29 25 20 18 19 20 27 27 25 24 22
16 16 15 15 14 14 14 13 13 13 12 12 12 12 13 13 25 25 26 23 22 22 22 21 21 22 23 25 24 31 30 24 20 19 21 22 27 28 23 23 24 25 24
15 15 13 12 13 13 13 12 13 12 12 12 12 13 14 17 24 25 25 22 21 21 21 22 22 21 25 27 28 28 21 19 21 25 28 28 26 26 25 24 25 22 20
14 13 12 13 13 13 13 13 13 12 12 12 12 15 18 16 23 25 24 21 21 20 22 20 24 24 26 29 24 21 21 17 23 27 17 17 20 20 25 21 23 22 21
13 12 13 13 13 13 13 12 12 12 13 13 14 16 17 18 20 25 25 21 21 22 20 20 22 26 29 26 25 19 19 24 23 16 16 17 18 19 19 20 22 24 21
13 14 14 13 12 12 12 12 12 13 14 14 16 17 18 18 22 23 25 26 25 20 20 22 22 27 25 24 22 24 26 24 16 16 18 20 21 21 23 23 23 24 24
13 14 13 13 13 12 12 12 13 14 15 15 17 17 17 18 18 24 25 26 25 23 24 24 26 25 23 20 22 24 23 16 16 18 20 21 21 22 23 23 24 24 24
13 15 15 14 14 13 14 13 15 15 16 17 18 17 18 17 17 18 20 21 24 25 24 23 22 20 20 20 17 16 15 16 18 20 20 20 21 21 21 22 21 22 22
13 14 15 14 13 13 14 14 17 18 19 18 18 18 17 17 17 23 23 21 23 22 22 18 13 13 14 14 14 15 16 16 19 19 20 19 19 20 20 21 21 22 20
14 16 15 14 14 14 14 14 19 20 21 21 20 19 17 21 23 24 24 26 24 24 18 13 14 14 14 14 14 15 16 19 18 20 19 19 19 19 20 21 21 20 20
14 16 17 14 14 14 15 15 14 14 18 18 19 20 21 22 23 24 24 24 23 21 14 15 15 15 15 16 17 18 18 18 20 20 20 19 20 20 19 19 19 20 20
19 20 16 15 15 16 17 15 14 13 11 11 15 19 20 21 23 24 23 20 13 15 15 15 16 16 16 17 18 19 19 19 19 19 20 21 19 19 19 19 19 19 21
17 18 17 16 17 18 15 13 13 12 10 10 11 14 16 21 23 22 20 14 15 15 15 15 15 16 17 18 18 19 18 18 20 20 18 19 20 20 19 19 20 22 24
17 21 19 15 15 14 12 12 12 10 10 11 11 12 13 19 18 15 14 15 15 14 15 15 16 17 18 18 18 18 18 18 18 19 19 20 20 21 20 20 21 22 22
16 16 18 14 12 11 11 13 10 11 11 12 12 14 21 17 14 14 14 15 14 15 15 16 17 17 17 18 18 18 17 17 18 19 19 20 21 21 22 22 23 24 25
15 14 13 11 10 11 14 11 11 12 12 13 13 13 19 13 13 14 14 14 15 16 16 17 17 17 18 18 18 18 17 17 18 19 20 20 21 23 23 24 24 26 26
12 11 9 9 10 14 11 12 13 13 13 13 12 12 11 12 12 14 14 14 15 16 16 16 17 17 17 19 20 19 18 18 20 21 20 21 22 24 27 28 28 26 25
10 10 10 10 11 12 11 13 12 14 13 11 11 11 12 12 12 13 14 15 15 15 15 16 17 17 18 18 19 20 21 21 22 24 27 30 30 30 29 29 27 25 24
11 11 10 10 10 10 11 12 12 11 11 11 11 12 12 12 12 14 14 15 15 15 15 16 17 18 18 18 19 20 21 27 32 32 34 32 30 29 30 29 26 24 22
11 11 10 10 10 11 11 11 11 11 11 12 13 13 12 13 13 15 15 15 15 15 15 16 18 18 19 19 20 24 29 32 34 34 32 30 29 30 30 28 26 24 23

GFSGL_sfc_dewp_042.txt.gz
Dewpoint
35 30 25 20 19 18 19 19 17 16 16 16 15 16 15 15 14 13 13 15 16 19 20 20 21 21 21 19 20 19 19 19 18 19 19 20 20 21 19 22 23 23 23
28 25 20 19 18 18 17 16 15 15 15 15 14 14 13 13 12 11 11 15 18 19 20 21 20 18 19 18 18 19 19 20 21 21 22 22 21 21 22 23 20 16 18
23 19 18 18 18 17 16 15 14 14 15 15 15 13 12 13 12 10 13 16 19 20 21 21 21 19 17 19 19 21 21 20 24 25 24 23 24 25 24 22 19 19 17
19 18 19 19 17 15 15 15 15 15 15 15 14 13 13 11 12 13 18 20 21 21 22 22 21 19 19 20 20 21 20 22 21 22 24 27 29 25 25 21 18 20 20
18 20 20 18 17 16 16 15 15 16 15 15 14 13 13 14 8 19 21 22 22 21 21 20 20 22 26 27 23 22 22 23 26 28 28 29 26 22 17 19 20 22 24
20 19 19 17 16 17 16 16 17 16 15 15 13 13 12 10 19 25 26 22 21 20 19 18 18 22 22 27 27 28 27 27 31 32 28 24 18 16 19 21 24 27 21
19 18 17 16 16 16 16 16 16 16 15 14 13 12 11 12 21 26 27 22 21 19 19 19 18 18 23 20 24 27 28 30 30 26 21 17 17 19 26 29 27 25 23
18 16 15 15 14 15 15 16 16 14 13 12 12 12 13 12 23 25 26 22 20 20 19 20 20 20 21 22 22 29 30 25 20 18 19 20 24 28 27 23 25 25 25
17 15 13 13 13 14 14 14 14 13 13 12 13 12 13 14 20 25 25 20 19 19 19 19 21 20 24 27 27 31 20 19 20 23 26 29 29 26 25 24 26 24 22
15 13 11 12 13 14 14 14 14 13 13 13 11 13 15 14 18 24 24 20 19 18 20 19 23 22 26 28 26 21 21 16 21 27 23 19 20 20 25 22 25 25 23
12 12 13 13 14 14 14 14 13 13 13 12 11 12 14 15 17 23 25 21 20 20 19 17 19 25 27 27 26 19 18 22 26 19 16 17 19 20 21 22 24 26 24
13 14 14 14 13 13 14 13 13 13 12 10 12 12 12 13 18 20 25 26 25 20 18 20 21 26 26 25 23 24 25 25 18 16 18 20 22 24 25 26 25 26 26
14 14 14 14 13 13 13 14 13 12 11 11 12 12 12 13 13 20 24 24 24 22 24 24 26 25 24 20 21 24 23 17 17 19 21 23 25 26 26 26 27 27 26
13 14 14 14 13 13 14 13 12 12 12 13 12 13 13 13 13 15 18 20 22 24 24 24 21 21 19 19 17 16 16 17 19 21 22 23 24 25 24 25 24 23 24
14 16 16 15 13 13 13 12 13 15 18 15 15 14 14 14 15 22 23 20 23 23 23 17 13 12 14 13 15 16 16 17 20 21 22 22 21 23 23 24 24 25 22
13 14 14 14 13 13 12 10 18 19 19 19 19 18 17 20 23 24 24 25 25 24 18 13 13 15 14 14 15 16 18 21 21 22 22 22 22 22 23 24 24 24 22
15 15 15 13 11 11 11 10 8 9 13 14 16 19 21 22 23 24 24 23 23 20 13 15 15 16 16 17 19 20 21 21 23 23 23 22 23 23 22 22 23 24 23
17 19 14 13 13 13 11 9 8 8 6 6 12 16 19 21 23 23 22 20 13 14 15 16 16 16 17 18 20 21 22 22 22 22 23 23 23 23 22 22 23 23 24
16 16 15 13 15 13 9 8 9 7 7 8 10 13 15 20 22 21 19 13 14 15 15 15 16 17 18 20 21 22 21 22 23 23 22 22 23 23 23 22 23 24 25
20 20 14 11 9 7 7 9 8 8 9 10 10 11 12 16 17 13 14 15 15 15 15 16 16 18 20 21 22 22 21 21 21 22 22 23 24 24 23 23 24 25 25
12 14 14 8 7 7 10 10 9 10 11 11 11 12 20 17 14 14 14 14 15 15 16 16 18 20 21 21 21 21 21 21 22 22 23 23 24 24 25 25 26 27 26
10 9 8 7 8 10 11 10 11 11 12 12 11 11 18 11 13 14 14 15 16 16 17 18 20 20 21 21 21 21 20 20 21 22 23 23 24 25 26 27 27 29 26
8 7 6 7 8 13 9 10 12 11 12 12 11 10 10 11 12 14 15 15 16 17 17 18 20 20 21 22 23 23 21 21 22 23 22 23 23 25 27 30 30 26 25
7 8 8 8 9 10 10 11 11 12 12 11 11 11 11 12 13 14 16 17 17 18 19 20 20 20 21 21 22 23 24 24 24 24 26 29 31 32 31 30 28 27 26
9 8 8 8 9 9 10 11 11 11 12 12 12 12 12 13 14 16 17 18 19 19 19 19 21 22 21 22 22 23 24 27 31 32 34 32 32 32 31 30 27 26 26
10 8 8 9 9 10 12 13 14 14 14 14 15 15 15 15 16 18 18 19 19 19 19 20 22 22 23 23 24 26 30 33 34 32 31 31 31 31 30 28 27 26 26

GFSGL_sfc_dewp_045.txt.gz
Dewpoint
46 39 34 28 22 21 21 22 20 21 20 19 18 17 16 16 14 13 13 14 15 18 20 21 21 21 22 21 22 21 21 21 19 19 21 22 22 22 22 22 24 23 23
38 33 28 23 22 21 21 20 20 19 17 16 15 14 14 13 12 10 11 13 16 18 19 21 21 18 22 21 20 20 21 21 21 21 22 22 23 23 22 24 23 22 20
33 27 23 22 22 21 20 23 20 19 15 15 15 14 13 14 12 10 12 14 17 19 20 21 21 21 20 20 20 21 22 21 23 22 21 23 23 24 26 27 22 21 18
27 24 22 21 19 18 18 19 18 16 16 16 15 14 13 12 12 12 17 19 21 20 22 22 21 21 20 20 21 23 22 22 23 23 23 25 26 29 26 22 19 20 21
25 23 21 21 19 20 19 18 17 17 16 16 15 14 13 15 9 19 21 22 21 20 21 20 20 24 25 25 23 24 24 24 25 27 26 27 27 22 20 19 19 21 22
23 23 21 21 20 20 19 18 18 17 17 16 15 13 13 10 21 24 26 23 21 20 20 19 19 23 22 25 27 27 26 24 28 30 28 26 23 20 19 20 23 24 24
24 21 21 20 20 19 18 18 18 17 16 15 14 13 12 13 19 25 26 23 21 20 19 19 18 17 23 21 24 26 27 29 29 26 24 21 19 19 24 25 26 25 22
22 21 19 19 17 17 18 17 17 16 15 13 13 13 14 12 20 24 26 22 19 19 19 20 20 20 21 22 22 27 28 28 25 20 21 20 22 25 29 30 24 24 24
20 18 17 16 16 16 16 15 15 14 14 13 14 13 13 12 18 22 25 20 19 19 19 19 20 21 23 26 25 28 27 21 23 24 25 27 29 28 25 23 24 24 21
20 16 14 15 15 16 16 15 15 15 15 15 14 12 13 13 16 21 23 20 19 19 20 20 23 21 26 27 24 23 22 19 21 24 23 23 22 21 25 23 24 25 23
14 14 15 15 15 16 16 15 15 15 16 13 13 12 12 13 16 20 23 21 21 21 21 19 20 25 27 28 27 22 21 22 23 23 19 18 19 21 22 24 25 26 24
15 16 15 15 14 14 15 14 14 13 14 11 11 13 13 12 16 18 22 24 25 21 19 20 23 26 27 26 24 24 25 25 20 18 19 20 21 23 25 25 24 25 26
15 15 15 15 14 15 14 15 14 13 11 10 13 13 13 14 12 18 21 23 24 21 21 25 26 26 24 21 21 23 22 18 18 20 21 23 24 24 25 25 26 26 26
14 15 15 14 13 14 17 15 12 11 11 13 12 13 14 13 14 16 19 21 23 23 25 24 23 22 19 18 17 17 17 18 19 22 22 23 23 23 23 24 24 24 23
14 15 16 16 14 14 14 12 11 14 17 15 15 14 14 15 16 23 23 21 23 24 23 20 16 13 15 15 15 17 18 18 21 22 23 23 22 22 22 23 23 24 23
15 16 16 15 13 14 13 10 19 18 18 20 19 18 17 21 23 24 25 25 25 25 19 15 14 16 16 15 16 17 19 21 22 23 22 22 22 21 21 23 23 22 22
15 15 15 12 11 10 9 9 8 13 20 19 15 16 20 21 22 24 24 24 23 20 14 16 17 17 17 18 19 20 21 21 23 23 22 21 21 22 21 21 22 22 22
18 20 16 13 13 11 9 8 7 7 5 6 11 15 17 19 21 23 22 20 13 15 17 17 17 17 17 19 20 21 21 21 21 21 21 22 22 22 21 21 21 22 22
17 16 14 14 15 12 8 7 8 7 6 7 10 13 15 18 21 21 19 14 15 16 16 17 17 18 19 20 21 22 21 21 22 23 21 21 22 23 21 21 22 25 25
19 18 14 10 8 6 6 8 7 7 8 10 10 11 12 17 18 14 15 16 16 16 16 17 18 19 20 22 22 22 21 21 21 21 21 22 23 23 22 23 23 24 24
15 14 12 7 6 7 9 9 8 10 10 11 11 12 18 17 14 14 15 16 16 17 18 18 19 20 21 22 22 21 20 20 20 21 22 22 23 22 23 24 25 25 26
10 9 7 7 7 8 10 10 10 11 11 11 11 11 17 11 13 15 16 17 18 18 19 20 20 21 22 22 21 21 20 20 20 21 22 23 23 23 24 24 25 28 28
8 6 5 6 7 11 9 9 11 11 11 12 11 10 10 11 12 15 16 17 19 20 20 21 22 21 21 23 23 23 21 21 22 23 22 22 23 24 25 27 29 28 26
7 7 6 6 7 10 9 10 11 12 11 11 11 11 12 12 13 15 17 19 20 20 21 22 22 22 22 22 23 23 24 25 25 26 28 27 30 30 30 29 27 25 26
8 7 6 7 8 9 9 10 11 12 13 13 13 13 14 14 15 17 18 20 20 21 21 21 21 22 23 23 23 24 26 30 32 32 30 30 30 30 30 28 25 25 25
8 7 7 8 9 10 12 15 16 16 16 16 16 17 17 16 17 18 19 20 21 20 19 21 22 23 24 24 25 27 31 33 35 33 30 28 28 29 30 29 28 27 25

GFSGL_sfc_dewp_048.txt.gz
Dewpoint
49 40 32 28 27 27 26 24 23 24 22 22 23 19 19 17 16 16 14 15 16 18 19 21 22 21 23 22 23 22 22 22 19 19 20 22 22 22 22 24 24 22 25
34 30 25 24 22 21 21 21 22 21 20 18 17 17 16 15 12 11 12 14 16 18 19 21 21 20 21 22 21 20 21 21 21 20 22 22 22 22 22 22 24 27 25
29 25 23 23 23 21 21 22 22 22 19 20 16 16 15 16 14 12 14 15 17 19 21 21 21 22 21 21 21 21 23 22 23 22 22 23 22 24 25 27 26 22 21
24 23 23 22 21 20 20 21 20 17 18 17 16 16 16 14 14 15 19 20 21 21 23 23 21 21 21 20 21 22 23 23 23 23 23 24 25 28 28 24 21 21 19
23 24 23 21 20 20 19 18 20 20 18 17 16 16 15 17 16 22 24 24 23 21 21 21 21 24 26 25 21 23 24 24 24 25 26 25 25 24 23 23 19 20 21
25 27 23 20 19 20 19 20 19 18 18 18 16 15 17 10 22 24 26 25 23 21 21 20 20 24 23 26 27 27 26 23 26 25 26 27 26 24 21 20 20 21 22
24 23 22 20 20 21 19 18 18 18 17 16 15 14 14 19 22 23 25 24 23 22 20 20 19 18 24 22 26 26 26 28 29 26 24 22 20 20 22 22 24 27 25
25 22 21 20 19 19 19 18 18 17 15 14 14 14 15 17 21 22 25 23 21 20 20 19 20 20 22 23 22 25 26 27 27 25 22 21 22 23 25 30 27 24 23
25 24 20 19 19 18 16 16 15 15 15 14 15 14 13 15 21 20 23 22 21 19 20 20 21 21 25 26 25 25 25 25 24 26 26 27 28 28 26 23 23 22 21
24 22 22 24 19 18 16 16 17 17 16 16 13 12 16 13 17 20 22 22 21 21 21 22 26 22 26 27 24 24 22 20 21 23 23 23 22 22 25 22 23 23 22
33 31 26 18 17 16 16 16 16 16 15 13 11 12 12 13 15 19 21 21 21 22 22 21 21 26 27 28 27 21 21 22 23 21 19 19 19 20 21 22 24 25 23
18 16 16 17 18 16 15 14 14 14 13 11 12 13 14 12 19 20 20 22 24 21 20 21 22 27 27 26 24 24 25 24 18 17 18 19 21 22 23 23 24 24 24
15 15 16 15 15 16 15 15 14 13 11 11 13 13 14 15 14 21 24 25 25 22 21 24 27 26 25 22 21 23 22 18 18 19 21 21 22 23 23 23 23 23 23
15 15 15 15 15 15 16 15 13 13 14 14 13 15 15 15 16 18 21 22 24 23 25 24 24 23 21 19 18 18 18 18 19 20 20 22 22 22 21 21 22 22 22
15 16 17 16 15 14 14 13 12 18 18 17 18 17 16 17 18 23 23 21 22 23 23 20 17 15 16 16 16 17 18 18 20 21 21 21 21 20 20 21 21 22 21
16 17 17 16 15 14 11 13 19 17 16 18 18 17 18 20 23 24 25 25 25 24 18 15 15 16 16 16 16 17 18 20 20 21 21 21 20 20 20 21 22 20 20
16 15 15 13 11 10 10 10 8 12 17 17 18 16 18 20 21 23 24 23 22 20 15 16 17 17 17 17 17 18 19 19 20 21 20 20 20 20 21 19 20 20 20
19 23 15 14 13 11 10 8 9 8 7 7 13 15 18 20 21 23 22 20 14 16 17 17 17 17 17 17 18 19 20 20 20 19 20 21 21 20 19 19 20 20 21
17 15 15 15 14 11 8 9 9 8 8 9 11 14 16 19 22 21 19 15 16 16 16 16 17 17 18 19 20 20 20 20 21 22 20 21 21 21 20 20 20 23 24
18 18 15 10 8 7 8 10 9 9 10 11 11 12 12 17 17 15 15 16 16 16 17 17 17 18 19 20 20 20 20 20 20 20 20 21 21 22 21 21 21 21 22
16 14 12 8 8 8 10 10 10 11 12 12 12 13 19 17 14 14 15 16 16 17 17 18 18 19 20 20 20 20 19 19 20 20 20 21 22 21 22 22 22 23 24
11 10 9 8 8 9 12 12 10 12 12 12 12 12 17 12 13 14 15 16 17 18 19 20 20 20 21 21 21 20 19 19 20 21 21 22 22 23 22 22 23 24 27
8 7 6 7 8 11 10 10 12 12 12 12 12 11 11 12 13 14 15 16 18 18 19 21 21 21 21 22 22 22 20 20 22 23 22 23 24 25 26 28 28 27 26
8 7 7 7 8 10 9 11 11 13 12 13 13 13 13 14 14 15 16 17 19 19 20 21 22 22 21 21 22 24 24 25 26 28 31 30 28 29 28 28 28 27 27
9 7 7 8 9 9 10 12 13 14 15 14 14 14 15 16 16 16 16 17 18 19 20 20 20 21 22 22 22 23 25 30 33 33 32 29 28 27 29 29 28 28 26
9 8 8 8 10 11 13 13 14 14 13 16 15 15 16 16 16 16 16 17 18 19 19 20 20 20 21 22 24 27 31 34 35 34 30 29 28 28 29 27 26 25 24

GFSGL_sfc_dewp_051.txt.gz
Dewpoint
46 43 43 41 40 37 35 31 27 26 26 26 24 24 24 21 19 18 18 17 16 18 19 20 21 21 22 22 23 22 22 21 19 20 21 22 22 22 23 23 24 23 25
37 38 36 35 32 33 30 26 24 23 24 22 22 22 19 17 16 17 17 14 16 18 19 20 21 20 21 22 22 21 21 21 21 20 22 22 23 23 23 23 24 25 27
32 30 28 26 27 26 28 24 23 21 23 20 18 16 16 17 14 13 15 16 18 19 21 21 21 22 21 22 21 21 22 21 23 23 22 24 24 25 25 26 27 26 24
27 26 26 25 25 24 23 23 24 23 23 20 17 17 17 16 16 19 21 22 23 22 23 23 22 21 21 20 20 21 22 23 23 23 24 24 25 25 26 25 23 23 21
28 29 27 29 26 23 24 23 21 22 20 19 19 20 21 18 18 22 25 25 24 23 22 21 21 24 26 24 22 23 23 23 24 23 25 24 24 23 24 23 22 21 21
26 26 27 23 23 24 21 22 20 18 18 19 19 19 15 18 27 27 26 25 24 22 22 22 20 24 23 26 26 26 25 23 23 23 25 24 23 23 21 21 21 21 21
25 22 21 21 23 25 24 22 18 17 16 17 17 15 16 22 26 25 26 24 23 22 20 20 19 18 24 22 25 27 27 28 28 26 25 24 23 21 22 22 25 26 25
22 24 26 28 28 25 20 20 21 21 21 17 15 15 17 21 24 24 26 22 22 21 20 20 20 21 22 23 23 25 26 26 26 26 25 23 22 24 26 27 25 23 23
25 25 29 28 23 22 21 19 16 15 16 15 16 14 14 21 22 21 23 22 21 21 21 22 23 23 26 27 25 24 24 25 26 26 27 28 28 28 26 23 22 21 19
32 31 26 26 27 28 27 27 25 19 16 16 13 13 18 12 18 19 20 21 20 21 22 22 27 23 26 28 25 24 22 20 21 23 22 21 21 21 25 22 22 21 21
33 33 33 33 32 29 25 20 17 16 15 12 11 13 12 14 15 19 21 19 20 21 22 21 21 26 28 28 27 22 21 22 23 17 17 18 19 20 21 22 23 24 22
33 33 31 26 21 18 17 15 14 14 12 12 13 14 15 14 22 22 24 25 25 22 21 21 22 28 27 26 23 24 24 24 17 17 18 19 21 22 22 23 23 24 24
22 20 20 19 16 15 14 14 13 13 13 12 14 14 14 15 15 23 25 26 26 23 22 25 27 26 23 21 22 23 22 17 18 18 20 20 21 22 23 22 22 22 21
20 20 16 15 15 15 17 14 14 14 14 14 15 15 15 16 17 19 22 22 25 24 25 24 22 20 20 20 19 18 17 17 19 20 20 21 22 22 21 21 20 20 20
15 16 17 17 14 13 13 13 17 18 15 14 18 17 16 17 18 23 23 21 23 23 22 18 15 15 16 16 16 17 17 18 19 20 20 20 20 20 20 20 20 20 20
16 16 17 16 14 12 11 11 20 19 19 18 18 17 16 19 22 23 24 24 24 23 16 14 15 16 16 16 16 16 17 20 19 20 19 19 19 19 19 20 21 20 18
16 16 17 13 10 10 9 8 8 12 18 18 17 18 19 20 21 23 23 22 21 20 15 16 16 16 16 17 17 18 18 19 20 20 19 19 19 19 20 19 19 19 19
19 21 15 14 12 10 9 9 9 8 7 8 15 18 19 20 21 22 21 18 14 16 17 16 16 17 17 17 18 18 19 19 19 19 20 21 21 20 19 19 19 19 19
15 15 14 13 12 11 9 10 9 8 9 10 11 14 16 20 21 19 18 15 16 16 16 17 17 17 18 18 18 19 18 18 21 21 19 20 21 21 19 19 20 23 23
17 19 14 9 8 8 10 10 9 10 11 11 12 12 12 17 15 13 15 16 16 16 16 17 17 18 19 19 19 18 18 18 18 18 19 21 21 21 21 20 21 21 21
14 13 15 9 8 10 11 11 10 11 12 12 12 13 20 16 14 14 14 15 15 16 17 18 19 19 19 19 19 19 18 18 18 20 21 21 22 22 23 23 22 22 22
11 9 9 8 8 10 12 10 11 12 12 12 12 12 18 12 14 14 14 15 16 17 19 20 19 20 20 20 20 19 19 19 19 21 22 23 23 23 24 24 24 25 26
9 8 7 7 9 12 10 11 12 12 12 12 13 13 13 13 14 15 15 16 17 18 19 20 20 20 20 21 21 21 20 20 22 23 23 24 26 28 28 27 27 27 26
8 7 7 8 10 9 10 11 12 15 15 14 14 14 14 15 15 15 16 16 17 17 18 19 20 20 20 20 22 23 24 25 26 28 32 30 28 27 27 27 27 26 26
8 7 7 8 9 10 11 13 14 15 15 14 14 15 15 15 15 15 15 16 17 17 18 18 19 19 20 20 21 22 24 30 33 32 32 28 28 28 28 28 26 25 25
8 8 8 9 10 12 12 12 11 11 11 14 15 13 14 15 15 15 15 16 16 17 17 18 19 19 19 20 22 25 30 33 35 36 34 31 29 29 29 28 25 24 24

GFSGL_sfc_dewp_054.txt.gz
Dewpoint
47 45 45 45 45 44 44 43 38 34 33 31 27 28 27 25 24 22 22 19 18 19 21 21 21 21 23 22 23 23 22 22 20 20 21 21 22 23 23 24 25 23 25
44 43 43 43 43 42 42 38 34 32 29 28 25 25 24 24 17 18 20 22 23 21 19 20 21 20 21 21 22 21 21 21 21 20 21 23 23 24 24 23 24 25 26
41 41 40 40 40 39 34 32 30 28 24 23 22 20 19 18 16 16 16 18 19 21 23 21 21 21 21 22 21 21 21 21 22 22 22 23 24 24 25 25 26 26 25
38 36 36 36 34 30 28 26 25 25 24 24 23 20 18 18 22 25 26 27 27 24 23 22 21 22 21 20 20 21 21 22 23 23 23 23 24 26 25 23 23 22 22
35 33 31 30 30 27 26 25 25 23 21 22 23 26 29 30 29 29 30 28 25 22 22 21 22 24 27 25 22 23 23 23 23 22 23 22 23 23 22 23 21 21 21
35 32 30 28 28 28 26 26 24 26 27 28 30 30 28 27 32 31 27 24 23 22 21 21 20 23 23 27 27 27 26 24 22 20 20 24 24 23 23 22 21 21 21
30 29 29 27 25 26 26 27 28 28 28 28 24 22 26 29 29 27 29 23 21 21 20 20 20 20 25 22 26 27 27 29 28 26 25 24 24 24 23 23 24 25 23
31 31 30 30 31 31 30 29 30 31 29 29 28 27 27 25 27 26 27 22 21 20 21 21 21 22 23 24 24 25 25 26 25 25 25 25 25 25 27 27 23 23 22
31 31 32 32 31 30 30 29 25 22 24 24 20 17 21 23 24 23 24 21 20 20 21 22 24 24 26 27 25 25 25 25 26 27 27 28 29 28 26 23 22 21 19
32 33 33 33 32 31 30 31 32 32 29 25 20 15 18 12 22 19 21 21 20 20 21 22 26 24 27 28 25 24 22 20 21 23 21 19 21 20 25 22 21 20 20
34 33 33 34 33 33 33 32 30 27 21 14 13 13 14 16 16 21 23 20 20 22 22 21 21 27 28 28 26 21 20 22 21 17 17 17 19 20 21 22 23 23 21
34 34 34 33 34 33 31 27 20 15 12 13 14 15 15 14 23 23 25 25 26 23 22 22 22 27 26 25 23 24 25 24 17 17 18 19 20 21 21 22 23 23 23
33 31 30 26 20 16 14 13 12 13 13 12 14 14 14 16 17 24 25 25 25 23 23 25 26 25 22 21 23 23 23 17 17 18 19 20 20 21 22 23 23 22 21
23 21 17 15 15 15 16 14 14 13 12 13 14 14 15 17 18 20 22 22 25 24 25 21 20 20 20 20 19 18 17 17 19 20 19 20 21 21 21 21 21 20 20
17 17 18 17 13 13 14 15 16 15 13 13 16 16 16 16 18 23 23 21 22 22 20 15 15 15 16 16 16 17 17 17 19 19 20 20 20 20 19 20 19 19 18
16 16 17 15 12 13 13 13 22 20 19 18 20 18 16 19 22 23 24 23 24 23 16 14 15 16 16 16 16 16 17 19 18 20 19 19 18 18 18 19 20 19 17
16 16 17 11 10 9 7 7 7 11 16 19 19 19 20 20 21 23 22 22 20 20 15 16 16 16 17 17 17 17 17 18 18 19 18 18 19 20 20 18 18 19 18
18 20 13 11 10 8 8 9 9 7 7 9 15 18 19 20 21 21 20 17 14 16 16 16 16 17 17 17 18 17 18 18 18 18 19 20 20 19 18 18 19 19 18
16 14 13 12 11 11 10 10 9 9 10 11 12 14 17 21 19 17 18 14 15 15 16 16 17 17 18 18 18 18 18 17 20 20 17 19 19 20 19 20 20 23 24
15 17 13 9 9 10 11 10 10 11 11 12 12 12 13 15 14 14 15 15 15 15 16 17 17 18 19 18 18 18 17 17 17 18 19 20 21 22 21 21 21 21 21
15 14 14 8 9 11 12 10 10 12 12 12 12 13 19 15 13 14 14 14 15 15 16 17 18 18 18 19 19 18 18 17 17 19 20 21 22 23 23 23 23 24 24
10 9 9 8 10 12 10 10 11 12 12 12 12 13 18 13 14 14 15 15 16 16 17 18 18 18 19 19 19 19 18 17 18 20 22 23 24 24 24 26 26 26 26
9 8 7 8 11 12 10 11 11 13 14 14 14 14 14 14 14 15 15 16 16 16 17 18 18 18 18 20 20 21 20 20 22 23 23 24 27 28 27 27 27 26 25
7 7 7 8 11 9 11 12 14 15 15 15 14 14 15 14 15 15 15 16 16 16 17 17 18 18 19 19 21 22 22 23 24 27 31 31 30 28 28 28 27 27 25
7 7 7 8 9 10 12 13 14 14 14 14 14 14 14 14 14 14 15 15 15 15 16 17 18 18 18 19 20 21 23 28 32 32 34 32 31 29 29 29 29 28 25
8 8 8 9 11 12 13 11 9 10 9 14 14 12 13 13 14 14 13 14 14 15 15 17 18 17 18 19 21 24 29 32 33 36 32 31 31 30 30 30 28 28 26

GFSGL_sfc_dewp_057.txt.gz
Dewpoint
48 46 46 46 45 45 45 44 42 41 40 38 36 34 30 28 25 23 22 22 23 25 24 23 24 23 24 23 24 23 23 23 21 20 20 21 21 22 23 24 26 24 25
44 43 43 43 43 43 42 41 39 41 38 34 32 28 26 24 21 20 20 22 24 26 25 22 21 21 22 22 22 22 22 21 21 19 20 22 22 23 24 24 24 24 25
42 41 41 41 42 43 41 38 38 33 30 29 27 26 23 23 21 22 22 21 21 24 26 27 25 22 22 23 22 22 22 21 21 21 21 23 23 24 24 25 25 25 25
39 40 41 41 41 39 39 37 32 27 26 25 23 21 21 21 23 26 28 29 29 28 27 25 23 23 22 21 20 21 21 21 22 22 22 22 23 24 24 24 22 23 22
34 35 37 37 35 33 31 29 26 24 22 23 25 28 31 32 32 33 33 32 30 24 22 21 22 24 26 26 24 23 23 23 23 23 23 22 20 24 23 23 23 23 22
31 30 31 29 28 27 27 26 27 28 30 31 32 33 34 35 37 35 30 24 22 21 20 20 20 22 25 27 28 28 26 24 21 20 17 22 24 24 24 23 23 22 21
29 29 27 28 29 29 29 30 31 32 33 33 32 32 33 34 35 34 29 25 24 22 19 20 20 20 25 23 26 28 28 29 28 26 25 24 23 24 24 23 24 24 24
32 32 33 33 32 32 32 32 32 33 32 32 32 32 33 34 33 32 27 22 20 20 20 21 21 22 24 25 25 25 25 25 26 25 25 25 25 26 28 27 25 23 22
33 33 34 33 33 33 32 32 32 32 32 32 32 30 28 28 27 28 24 21 20 19 20 21 23 23 26 27 25 26 26 25 26 27 27 28 29 28 26 23 21 21 19
33 34 33 33 33 32 32 32 32 33 32 31 28 26 26 19 25 21 22 21 20 20 22 22 25 24 27 28 26 23 21 20 20 22 20 19 20 20 25 22 21 19 20
34 34 34 34 33 33 32 32 32 32 30 25 16 16 17 20 20 24 26 22 22 23 22 22 22 27 28 27 26 20 21 22 21 17 17 18 19 20 21 22 22 21 20
33 33 33 33 35 34 32 31 29 21 16 15 15 15 15 15 23 23 25 25 25 23 22 22 23 27 26 24 22 24 25 25 17 17 18 19 20 20 21 22 22 23 24
33 33 33 32 28 20 16 14 13 13 13 13 14 13 14 16 18 25 25 25 25 23 24 24 25 23 22 21 23 24 23 18 17 18 19 20 20 21 21 21 22 22 22
29 23 16 15 15 14 15 14 13 12 12 12 12 13 15 16 18 20 22 22 24 23 23 18 19 19 20 20 19 18 17 17 19 20 19 20 20 20 20 20 19 20 19
16 17 17 15 13 14 15 13 13 13 12 13 15 15 15 15 17 23 23 22 22 22 20 15 15 15 16 16 16 17 17 18 19 19 19 19 19 19 19 19 19 18 17
16 16 15 14 15 16 17 17 23 22 20 21 22 19 17 20 22 23 24 23 22 23 16 14 15 16 16 16 16 17 17 19 18 18 18 18 18 18 18 19 21 19 17
16 16 16 11 8 7 6 7 6 11 19 21 21 20 20 20 21 22 22 21 19 19 15 15 16 16 17 17 17 17 16 17 17 17 17 17 17 18 20 18 18 18 18
17 19 11 9 8 8 8 9 8 7 8 10 15 18 19 21 21 20 20 17 14 15 16 15 16 16 17 17 17 17 17 17 16 16 18 19 19 19 19 18 19 19 19
15 13 11 10 10 11 10 9 9 10 10 11 12 14 17 20 19 18 18 14 14 15 15 16 16 17 17 18 18 17 16 16 19 19 17 17 19 21 20 20 20 24 24
15 17 14 10 10 10 10 9 10 11 11 11 11 12 12 14 13 14 15 15 14 15 15 16 17 17 18 17 17 16 16 16 16 17 18 19 21 22 21 21 22 23 23
15 14 14 8 10 11 10 9 11 11 11 11 12 13 19 14 13 13 14 14 15 15 15 16 17 17 17 17 17 16 16 17 17 18 18 21 22 23 24 23 24 24 26
13 10 8 8 11 12 10 11 11 12 12 13 13 14 18 14 14 14 15 15 16 16 17 17 17 17 18 17 17 17 18 18 18 19 21 23 24 24 25 27 26 26 26
9 8 7 9 12 12 11 11 12 14 14 14 14 14 14 14 14 14 15 15 15 16 16 17 17 17 17 17 19 20 19 18 20 22 22 23 26 29 30 28 27 27 27
7 7 6 9 9 9 11 12 13 15 15 14 14 14 14 14 14 14 14 15 15 15 16 16 17 17 18 18 19 21 22 22 23 24 27 30 31 30 30 28 28 28 28
7 6 7 8 9 9 11 13 13 14 14 14 14 14 14 13 13 13 14 14 13 14 14 16 16 17 17 18 19 20 22 27 30 31 32 32 30 29 30 29 29 28 26
7 7 7 8 10 12 12 12 10 9 9 13 13 11 12 13 13 13 12 13 13 13 13 15 16 15 16 18 19 22 28 30 31 35 34 32 30 30 30 30 30 27 27

GFSGL_sfc_dewp_060.txt.gz
Dewpoint
46 45 45 45 46 45 45 44 44 45 44 43 42 40 37 33 30 27 24 24 24 25 26 25 27 29 31 29 28 25 25 24 21 21 21 20 20 21 22 24 25 25 25
42 42 44 45 45 44 43 42 41 41 40 38 35 32 29 24 22 21 22 25 25 27 27 27 27 28 28 26 26 25 23 22 22 21 20 21 21 22 23 23 24 24 25
40 41 43 43 44 43 41 40 39 37 35 32 28 25 24 23 22 24 27 27 27 29 30 31 30 29 27 26 24 25 25 21 22 21 21 22 23 23 23 24 24 26 25
40 41 42 42 41 41 38 36 33 31 30 28 25 23 24 25 26 28 30 31 31 31 31 29 28 27 26 24 21 21 22 21 22 22 22 22 23 24 23 24 23 23 23
35 36 36 36 36 35 33 32 32 32 30 27 27 29 30 31 32 34 34 33 32 31 31 31 30 29 27 25 25 25 23 23 23 21 22 22 20 22 24 24 23 23 23
30 30 30 30 31 33 32 32 34 32 30 32 33 35 36 37 38 36 33 31 31 29 27 23 21 23 27 27 26 27 27 25 22 19 18 21 23 24 23 23 23 23 22
29 29 30 31 32 33 33 33 33 33 33 34 35 35 36 37 37 36 33 30 29 26 22 21 20 21 25 24 26 28 28 29 28 27 25 24 23 23 24 23 25 25 24
32 32 32 33 33 33 33 33 34 34 33 33 34 34 34 36 37 34 31 26 21 21 21 21 21 23 24 25 25 26 26 26 26 25 25 25 25 25 26 27 25 23 22
34 34 34 33 33 33 33 33 34 33 33 32 32 33 33 34 35 33 28 21 21 20 21 22 24 23 26 28 26 26 26 24 25 26 27 28 29 28 26 23 21 21 19
34 34 34 34 33 33 33 32 32 32 32 31 31 32 33 29 31 28 25 21 20 21 23 22 25 25 27 28 25 23 20 19 20 22 21 19 20 20 26 22 20 18 20
34 35 34 34 33 33 32 32 32 32 30 26 22 20 21 22 24 28 27 23 23 23 22 22 22 27 27 26 25 20 20 22 22 17 17 18 19 20 21 21 22 19 20
34 33 33 33 34 33 32 31 28 22 18 16 15 14 15 16 24 25 26 25 25 23 22 23 24 25 24 24 22 24 26 24 17 17 18 19 20 20 21 21 22 22 22
34 33 34 33 28 21 18 14 13 14 14 13 13 12 14 17 19 25 25 25 25 23 23 24 24 22 22 21 23 24 23 18 17 18 19 19 20 20 20 20 20 20 19
30 22 16 15 14 14 15 13 12 12 12 12 11 13 15 16 18 20 22 22 24 22 22 18 18 19 21 21 19 18 17 18 20 20 18 19 20 18 19 19 18 18 18
17 17 16 15 14 14 12 10 11 10 12 12 14 14 15 16 18 23 23 21 22 21 19 15 15 16 16 17 17 17 18 18 19 18 18 18 18 18 18 19 18 18 17
15 14 15 16 17 18 18 19 24 23 24 23 23 19 17 20 22 23 23 22 22 22 15 14 15 16 16 16 17 17 17 18 17 18 17 17 16 16 17 19 20 18 17
15 15 15 11 8 8 8 8 7 13 21 21 21 20 21 21 22 22 21 21 18 18 15 14 15 16 16 17 17 16 16 17 15 15 15 15 16 18 21 18 18 19 18
17 18 10 8 8 8 8 8 7 7 8 9 15 18 20 21 21 20 20 16 14 15 15 14 15 16 16 16 16 16 16 16 15 15 16 18 19 19 19 19 20 20 20
15 12 10 9 10 11 9 9 9 10 10 10 11 13 17 20 19 18 18 14 14 14 15 15 16 16 16 17 17 16 15 15 19 19 16 17 19 20 20 21 21 24 25
13 16 14 12 10 10 9 9 10 10 11 11 11 11 13 15 13 14 14 14 14 14 15 15 16 16 17 16 16 16 15 15 14 15 17 19 20 21 22 23 23 24 23
16 15 14 9 9 10 9 9 10 11 11 11 12 13 19 14 13 13 14 14 14 14 15 15 16 16 16 16 16 15 15 17 16 17 18 20 21 22 24 25 25 25 26
13 11 8 9 12 11 9 10 11 11 12 13 13 14 18 14 13 14 14 14 15 15 16 16 16 16 17 16 16 16 17 18 19 19 20 21 22 23 24 27 28 27 26
10 8 7 10 11 14 11 11 12 14 14 14 14 14 14 14 14 13 14 15 15 15 16 16 17 16 16 17 17 18 18 19 21 21 21 21 23 24 30 28 27 27 27
7 6 6 9 9 8 10 11 13 14 15 14 13 13 14 14 13 13 14 14 14 14 15 15 15 16 16 17 18 19 21 22 22 22 24 26 29 31 29 28 27 27 28
7 6 6 9 11 9 10 12 13 13 13 13 13 14 14 13 13 13 13 13 12 12 13 14 15 15 15 16 17 18 21 25 28 29 31 32 32 31 29 29 28 29 29
6 6 6 7 8 10 11 11 10 9 9 12 12 11 12 12 12 12 12 12 12 13 12 13 15 14 16 17 18 21 27 29 30 32 33 33 32 30 30 30 30 29 27

GFSGL_sfc_dewp_063.txt.gz
Dewpoint
44 45 46 47 47 48 49 49 49 48 48 49 47 46 44 42 39 35 30 27 25 25 26 26 28 31 31 30 31 31 30 28 26 24 22 22 21 22 22 24 25 25 25
43 44 45 46 46 47 46 45 45 46 45 44 43 39 36 33 29 26 24 24 24 27 29 29 30 31 32 32 32 31 29 28 24 20 21 21 21 23 23 24 24 24 24
42 43 44 45 44 44 42 42 42 40 39 37 34 30 27 25 23 24 26 27 28 29 31 31 32 33 33 33 31 29 28 25 26 25 22 23 23 24 24 25 25 25 24
39 40 40 40 39 38 37 35 34 32 30 28 26 26 26 28 29 30 30 31 32 32 33 33 32 32 32 31 30 29 28 26 26 24 23 25 24 25 26 25 23 23 22
31 32 34 34 33 32 32 32 32 31 30 31 31 32 32 33 34 34 34 34 34 33 33 33 32 32 33 32 29 29 27 25 25 27 26 26 25 24 23 24 22 22 24
31 31 32 32 33 34 34 34 34 35 36 35 36 36 36 36 38 38 34 33 33 31 29 28 29 30 31 30 28 27 27 26 29 28 28 25 24 24 23 22 24 25 22
32 31 32 33 33 34 34 35 35 35 36 36 36 36 36 37 39 38 35 31 30 29 26 23 23 25 27 24 26 26 27 28 29 28 26 24 23 22 26 27 27 26 23
34 33 33 33 33 34 34 33 33 34 34 33 32 33 36 36 36 34 32 28 23 24 27 26 23 23 24 25 25 28 28 27 26 24 24 24 25 27 27 27 25 24 23
34 34 34 34 34 34 33 33 34 33 32 32 33 34 34 34 34 32 26 23 22 22 23 23 24 23 26 27 27 29 24 22 23 25 27 28 28 27 26 25 25 23 21
34 34 35 35 34 33 33 32 32 32 32 33 32 33 34 33 33 33 24 21 22 22 23 22 25 25 26 27 24 22 20 19 22 25 21 20 21 21 25 22 23 23 22
35 35 34 34 34 34 33 33 32 31 30 27 26 23 23 25 29 28 27 24 23 23 22 22 23 26 26 25 24 20 20 24 22 18 18 19 20 20 21 22 23 24 22
34 34 33 34 35 34 32 28 24 21 18 15 14 14 15 20 26 26 26 26 25 23 22 23 23 24 22 23 22 25 25 24 18 18 19 20 21 23 24 24 23 24 24
34 34 32 28 23 19 14 14 14 14 14 12 10 12 15 18 20 26 26 25 25 22 22 23 22 21 22 21 23 24 22 18 18 20 21 22 23 23 24 24 25 25 25
28 18 15 14 14 14 14 12 12 12 11 9 10 13 15 17 19 21 22 22 23 21 21 18 18 20 21 21 19 18 18 18 20 21 20 21 22 23 23 23 23 23 22
16 16 16 14 11 11 11 10 10 10 12 11 14 14 15 17 19 23 23 21 21 21 19 14 15 16 17 17 17 18 18 18 20 19 20 20 20 21 21 23 23 22 21
14 14 16 17 18 20 20 20 25 25 24 24 23 19 18 21 22 23 22 22 21 21 14 14 15 16 17 16 17 17 18 19 19 19 19 19 20 20 21 24 26 23 21
15 15 17 14 14 16 14 12 15 17 22 22 21 20 22 22 23 22 21 21 18 18 14 16 16 17 17 18 18 19 19 19 19 19 19 19 20 20 23 23 23 23 23
16 19 10 8 7 8 7 6 6 6 7 9 15 18 21 21 21 20 20 15 13 14 15 16 17 17 18 18 19 19 19 19 19 19 19 20 21 21 22 23 24 24 24
16 12 9 9 10 10 8 8 9 9 9 10 11 13 17 20 20 18 17 13 14 14 15 16 16 17 18 19 19 18 18 18 20 21 19 19 21 22 23 24 24 26 26
13 15 13 13 12 9 8 9 9 10 10 10 11 11 13 16 15 14 14 14 14 14 15 16 17 18 18 19 18 18 18 18 19 19 19 21 22 23 23 24 24 25 25
16 17 16 9 9 8 8 9 10 10 11 11 12 13 19 16 14 14 14 14 15 15 15 16 17 18 18 18 18 18 18 19 20 21 21 22 23 23 24 25 25 26 29
15 13 9 9 11 10 9 10 10 11 12 13 13 13 17 14 14 14 14 15 15 16 16 17 17 18 19 19 19 18 18 19 20 22 23 22 23 24 24 25 26 30 28
12 8 7 10 11 14 12 10 11 13 13 14 13 13 13 13 13 14 14 15 15 16 16 16 17 17 18 19 19 20 19 19 21 23 22 22 23 24 24 27 29 28 27
8 6 7 10 10 9 9 10 11 14 15 14 13 12 13 13 13 13 14 15 15 15 15 15 16 16 17 18 20 20 21 21 22 22 23 23 25 28 30 30 29 29 28
7 6 6 8 10 10 9 13 12 13 13 13 12 12 13 13 12 13 14 15 14 14 14 15 16 16 16 17 18 19 21 24 27 29 30 31 30 31 31 30 30 29 29
7 5 5 7 8 8 10 11 13 13 13 13 13 13 13 13 13 14 14 14 14 14 14 14 16 15 16 18 20 22 27 30 30 31 33 32 32 30 30 31 30 30 29

GFSGL_sfc_dewp_066.txt.gz
Dewpoint
44 46 47 48 48 49 50 50 50 51 51 52 52 51 50 49 48 46 41 38 36 35 36 34 32 33 32 31 32 32 33 33 32 33 33 32 28 26 24 24 25 24 24
43 46 47 47 48 48 48 48 48 48 48 48 48 47 45 43 39 34 31 28 28 28 30 30 31 32 33 34 34 33 33 33 32 30 28 28 26 26 28 27 23 22 23
42 44 44 44 44 43 43 43 42 43 41 41 39 36 33 30 30 27 27 29 29 30 32 32 32 33 34 34 33 33 33 33 30 28 26 27 27 25 24 25 24 24 22
37 39 39 38 38 37 36 33 31 30 29 29 28 27 28 28 29 29 31 33 35 35 34 34 34 34 34 33 34 32 30 28 28 27 25 24 25 25 26 24 22 22 21
34 36 36 35 34 33 33 33 33 32 32 32 32 32 33 33 34 35 36 37 36 34 34 34 33 34 35 33 31 29 28 27 27 28 27 25 26 23 22 22 20 21 23
34 34 34 34 35 35 35 36 36 37 36 36 37 37 37 38 39 39 36 34 33 32 30 30 32 32 32 31 30 30 28 27 29 29 29 25 23 22 21 20 23 24 23
32 33 33 34 34 35 35 35 35 35 35 35 36 37 37 38 39 38 36 33 31 31 29 29 29 28 28 24 25 27 27 28 28 27 25 23 21 21 26 29 26 27 25
33 33 34 34 34 34 35 34 33 34 33 33 32 32 32 34 37 36 33 29 27 28 28 27 25 23 23 25 25 27 28 27 26 23 23 22 23 25 26 28 26 24 24
34 34 34 34 35 35 34 34 34 34 33 33 33 33 34 34 33 31 28 28 29 27 24 22 23 22 24 28 27 30 25 22 21 23 26 28 29 28 27 25 26 26 23
35 35 36 35 35 34 34 34 33 34 33 34 33 34 33 32 33 30 25 22 20 20 22 21 24 25 26 26 24 22 21 17 22 26 22 21 21 22 24 24 25 25 24
36 36 36 36 35 34 33 33 33 33 32 30 28 26 27 29 28 29 26 23 22 21 21 20 21 25 25 24 24 20 19 24 24 20 19 20 21 22 23 24 25 27 25
35 34 35 35 35 34 31 29 25 23 20 18 17 16 19 23 26 27 27 26 25 21 20 21 21 23 22 22 23 24 26 25 19 19 21 22 24 26 27 27 27 27 27
35 34 33 31 22 15 14 14 14 13 12 10 9 11 14 18 21 25 25 25 24 21 21 22 21 20 21 20 22 24 23 20 19 22 23 25 26 27 27 28 31 31 29
29 25 18 14 13 13 14 13 12 10 7 7 8 12 15 17 20 22 22 21 21 19 22 18 17 19 20 21 19 19 19 19 21 22 23 24 25 26 26 27 26 27 25
18 15 15 14 9 9 10 8 7 11 12 10 15 14 15 17 20 23 22 20 21 20 21 13 14 16 18 17 18 19 19 19 22 22 23 23 24 24 25 28 26 27 25
14 14 14 14 15 18 19 20 26 25 25 24 22 19 18 21 22 23 22 22 20 21 12 12 15 17 18 18 18 19 20 21 22 23 23 23 23 24 25 27 28 26 25
14 15 16 15 16 17 15 15 19 21 22 22 21 20 22 22 22 21 21 21 17 17 13 16 18 19 19 20 21 22 23 23 23 23 23 23 23 24 26 26 26 26 25
16 20 14 13 13 11 6 5 4 4 4 7 14 17 20 21 20 20 20 15 10 13 16 18 19 19 20 21 22 22 23 23 23 23 22 23 24 25 25 25 26 24 25
17 14 11 10 9 9 7 6 7 7 7 7 9 11 15 20 19 18 17 12 13 14 16 18 19 20 21 22 22 22 22 22 23 23 23 23 24 25 25 25 26 25 26
15 15 12 8 11 7 7 7 7 7 7 8 9 10 11 17 19 14 13 14 14 15 15 17 19 21 22 22 22 22 22 22 23 24 24 25 25 26 25 26 25 26 26
14 15 15 10 7 7 6 6 7 8 9 9 10 11 18 18 17 13 13 13 14 16 17 18 20 22 23 23 23 22 22 23 23 24 25 25 25 25 25 24 26 26 26
16 15 13 8 8 8 6 7 8 8 10 10 11 11 17 14 13 14 13 15 16 16 17 18 20 22 23 23 23 23 22 22 23 24 25 25 25 25 24 25 25 27 28
15 13 7 7 9 10 11 8 9 10 11 12 12 11 11 11 12 14 15 15 16 17 17 18 19 20 22 23 23 23 22 23 24 25 24 23 24 24 25 26 28 30 29
12 8 6 7 9 11 9 7 8 12 13 12 12 11 11 12 12 13 14 16 17 17 18 18 18 19 20 21 22 24 25 24 25 24 23 23 24 25 27 29 30 28 29
10 6 5 7 8 10 6 8 9 10 11 11 11 11 11 12 13 15 15 17 18 18 17 17 18 19 20 20 20 21 23 25 26 28 30 30 30 30 31 31 29 30 30
8 6 5 6 7 9 8 9 12 14 16 15 14 15 15 15 15 16 17 17 17 17 17 17 18 19 19 20 21 23 27 29 30 31 32 32 32 31 31 31 30 29 30

GFSGL_sfc_dewp_069.txt.gz
Dewpoint
44 46 47 47 47 48 49 49 49 49 50 50 50 51 52 52 51 49 45 43 40 39 39 37 36 37 37 36 36 36 36 36 34 33 34 34 34 33 32 30 28 26 26
43 45 45 45 46 46 45 46 46 47 47 47 48 48 47 46 43 41 40 37 37 36 35 35 35 34 35 36 35 34 34 34 33 32 32 32 32 32 30 30 28 24 24
41 42 41 41 40 39 38 37 38 38 37 36 35 36 34 35 31 31 31 31 32 33 33 34 35 35 35 34 34 34 33 33 33 32 30 29 29 29 27 26 26 26 24
39 39 38 37 37 36 35 34 33 32 31 30 30 30 30 30 31 32 33 34 35 35 36 36 37 36 35 34 33 33 32 31 30 29 27 28 27 27 29 26 25 25 23
36 37 37 37 36 35 35 35 34 34 33 33 33 34 34 35 35 36 36 36 35 34 35 35 35 36 36 34 32 31 30 29 28 30 29 28 29 27 24 25 23 23 25
35 35 36 36 36 36 36 36 36 37 37 37 38 38 37 38 39 38 35 33 33 32 31 34 34 34 34 34 33 33 32 29 31 31 31 27 25 24 24 23 26 25 24
33 34 35 35 35 35 35 35 35 35 36 35 35 34 34 37 39 38 36 32 31 31 32 31 29 29 30 27 26 26 26 27 28 28 26 24 23 23 28 28 27 27 25
33 34 35 35 35 36 35 34 34 34 34 34 33 33 33 35 37 36 35 32 32 32 31 30 26 23 23 26 26 28 29 28 28 25 25 23 24 26 27 28 27 26 25
34 34 35 35 35 35 34 34 35 34 33 33 34 33 32 32 33 33 31 31 30 29 29 27 24 22 26 28 28 30 26 24 21 22 24 27 29 30 29 27 26 26 24
35 35 35 35 33 34 34 33 33 34 34 33 35 33 32 31 30 27 24 22 22 21 22 22 25 26 26 27 25 23 22 19 22 27 25 24 24 23 25 25 26 25 25
36 36 35 36 34 34 34 34 35 34 33 31 28 28 27 27 28 28 27 24 22 22 21 20 21 25 25 24 24 23 20 23 25 23 21 21 22 24 25 26 26 29 26
36 35 35 35 34 34 34 31 27 25 21 18 17 18 21 23 27 27 27 26 25 21 19 21 22 24 23 23 23 23 26 26 22 20 22 24 26 27 28 27 27 27 28
35 35 34 32 25 18 16 16 14 13 11 9 11 13 15 19 21 24 25 24 24 21 21 23 22 20 21 22 22 24 24 21 21 23 25 26 28 27 27 27 28 29 29
32 30 21 14 14 14 16 13 11 9 8 10 11 14 16 18 20 22 22 22 21 20 23 22 16 20 21 22 21 20 20 20 22 23 24 25 26 26 25 26 26 26 25
22 16 15 15 12 10 11 11 8 16 19 13 17 15 16 18 21 23 23 21 22 21 22 15 14 16 18 18 19 20 20 20 23 24 23 23 23 24 24 26 26 26 26
15 16 15 14 14 19 20 21 27 26 25 24 23 21 19 21 22 23 23 23 22 21 16 11 14 18 19 19 19 20 22 23 23 24 22 23 23 23 23 25 27 25 25
15 16 16 15 16 16 16 19 21 22 23 22 20 21 22 22 22 21 22 22 18 19 12 17 19 20 21 22 23 23 22 23 24 23 24 23 23 23 23 25 25 25 25
19 22 17 16 17 15 10 9 8 8 6 9 16 18 19 21 21 21 21 19 11 14 17 19 20 21 21 22 23 22 23 23 23 23 23 24 24 24 23 24 25 25 25
18 18 16 16 14 12 9 8 7 7 6 6 9 14 14 18 21 21 18 13 14 15 17 19 20 21 22 22 24 24 24 23 23 24 24 24 24 23 23 24 24 26 26
18 19 16 12 12 9 8 8 7 7 6 7 8 9 10 15 20 18 15 15 15 15 16 18 20 22 22 23 22 23 23 22 22 23 24 25 24 25 25 24 25 24 24
17 17 17 12 11 8 8 7 7 8 8 9 9 10 15 19 19 16 14 15 15 17 18 19 20 22 23 23 23 24 24 24 23 24 24 24 24 24 24 24 24 24 24
17 17 16 12 10 9 8 8 8 8 9 9 10 11 16 16 15 15 15 16 17 18 18 19 20 21 23 23 22 23 22 22 23 23 24 24 24 24 24 24 24 24 25
18 17 14 9 10 11 11 8 9 9 9 10 11 11 10 11 11 15 16 16 17 18 19 19 20 20 22 22 24 23 23 21 22 24 23 22 21 22 23 23 24 25 26
17 15 10 8 9 10 11 9 8 10 10 11 12 11 11 11 12 14 15 16 17 18 19 19 20 19 20 20 21 22 23 24 25 24 23 22 21 23 23 24 26 29 28
15 12 8 8 9 12 10 8 8 9 10 10 10 11 11 12 13 16 17 18 19 19 19 19 19 19 18 18 18 19 21 24 26 28 28 28 28 28 29 29 29 29 29
13 10 7 7 9 10 9 10 14 16 17 18 17 17 17 17 17 18 18 18 18 18 18 18 18 17 17 18 19 21 26 28 29 31 30 30 30 31 30 30 29 28 28

GFSGL_sfc_dewp_072.txt.gz
Dewpoint
44 46 46 47 47 48 47 47 47 48 48 48 49 49 50 50 50 47 45 44 42 41 40 40 39 38 39 39 39 39 38 37 36 33 34 35 35 35 34 32 32 29 28
43 43 42 42 41 39 38 39 41 40 38 38 40 40 39 38 40 41 39 39 38 37 37 37 37 37 37 37 37 37 35 35 35 32 32 32 32 33 32 31 29 27 26
40 39 39 38 37 35 34 34 32 32 31 30 30 30 31 30 31 32 33 34 35 35 35 35 36 36 35 35 35 34 34 33 33 32 31 32 32 31 30 29 28 27 26
38 38 37 36 35 35 35 34 34 33 33 33 33 33 33 34 35 35 36 36 36 36 36 36 36 35 35 34 34 33 32 31 31 29 29 29 28 27 27 26 26 25 23
37 37 36 36 36 36 36 36 36 35 35 36 36 36 36 36 36 36 35 35 34 34 35 35 36 36 36 35 34 32 31 29 29 30 29 29 29 26 24 24 22 24 25
35 36 36 36 36 36 36 35 35 36 37 36 37 38 37 37 38 37 34 32 32 32 32 33 33 34 35 36 34 33 32 30 31 29 28 27 25 24 23 25 25 24 22
34 35 35 35 35 35 35 34 35 33 34 34 34 35 36 36 38 37 35 32 31 32 32 32 32 32 31 30 28 26 27 28 28 28 26 25 23 22 24 22 23 21 23
34 35 35 35 35 35 35 34 34 34 33 32 32 33 34 36 37 36 34 32 32 32 32 32 31 27 27 29 28 27 28 28 28 26 25 23 22 25 27 24 24 25 26
34 35 35 35 35 34 34 34 34 33 32 33 32 32 31 31 32 32 31 29 28 27 28 28 25 24 26 28 28 29 26 22 21 20 21 25 28 29 29 25 21 20 22
35 35 34 34 35 34 34 32 33 34 33 32 32 30 31 27 28 27 27 27 23 23 22 24 26 26 27 27 24 22 21 18 22 25 24 24 24 22 24 24 23 14 24
36 34 34 34 34 34 33 33 31 29 27 25 28 27 27 28 27 29 29 25 23 22 20 20 21 25 24 24 24 22 20 23 25 23 20 21 22 24 25 26 26 26 26
36 35 35 35 34 33 31 28 28 26 22 19 19 20 22 25 28 27 27 26 26 20 19 21 23 24 22 22 22 24 26 26 23 20 21 22 23 23 27 28 27 28 28
35 35 34 33 33 32 23 20 17 14 12 10 12 14 17 19 23 24 24 24 23 21 22 23 22 19 21 22 22 24 24 21 20 21 22 21 21 21 24 27 29 29 29
34 33 30 17 15 15 16 13 12 10 9 10 12 14 16 18 21 23 23 22 24 22 24 23 17 18 20 21 21 20 20 20 21 20 19 21 22 25 24 26 26 26 26
29 19 16 17 14 14 23 16 17 22 21 15 16 16 17 18 22 24 23 22 22 22 22 16 13 15 18 19 19 19 20 20 21 21 23 24 23 24 24 25 24 25 25
16 17 16 13 12 20 22 24 27 26 25 25 24 21 20 21 23 23 23 23 23 21 18 12 15 18 20 20 20 21 22 22 22 24 23 23 23 23 23 24 25 24 24
16 16 16 16 17 18 20 23 22 23 23 22 20 21 22 21 23 22 22 22 21 17 15 17 18 20 20 21 20 21 23 23 24 24 24 24 23 23 23 23 22 23 23
18 23 17 16 17 16 14 15 17 19 16 16 17 18 20 20 22 21 21 20 13 14 17 17 18 20 20 19 22 23 23 23 23 23 23 22 22 21 19 19 19 22 23
19 19 17 18 16 13 9 8 7 7 6 6 10 15 17 18 20 22 21 16 15 16 17 18 19 19 18 22 22 23 23 23 23 23 22 23 23 22 21 20 22 24 25
19 22 19 14 13 10 9 8 8 7 7 7 8 9 11 14 18 20 18 17 16 16 17 17 18 18 17 22 23 23 23 23 22 22 22 22 22 22 22 22 22 22 22
19 19 21 13 13 10 9 8 8 8 8 8 9 10 14 18 18 18 16 16 16 16 17 18 17 16 13 21 22 23 23 23 23 22 21 22 22 22 22 23 23 23 24
18 18 17 13 13 10 9 8 8 8 9 9 10 11 16 17 17 16 16 16 17 17 18 17 15 14 13 13 18 21 21 21 20 21 20 21 22 22 22 22 22 23 23
19 18 16 12 11 13 12 9 9 9 9 10 11 11 11 12 12 15 16 17 17 17 18 18 16 14 14 14 14 18 21 20 21 21 21 21 20 20 20 21 22 23 23
18 17 15 10 11 11 11 10 9 12 10 10 11 12 12 12 12 13 16 16 16 17 16 16 16 14 14 13 14 15 18 21 22 22 22 21 20 21 22 22 23 24 24
18 16 12 10 11 12 11 12 9 9 9 11 12 11 12 12 12 14 15 15 14 14 15 16 16 14 14 12 13 13 17 22 24 26 26 26 26 25 26 27 28 29 28
17 14 11 9 11 11 12 11 13 13 15 16 15 15 15 16 16 16 15 14 14 15 15 15 15 13 12 13 13 16 23 25 27 29 29 29 28 28 28 29 30 29 29

GFSGL_sfc_dewp_075.txt.gz
Dewpoint
44 43 42 40 39 39 40 42 42 40 41 44 46 46 46 45 46 45 44 43 42 41 41 40 39 40 40 40 40 40 40 39 38 34 35 35 35 35 35 36 35 33 32
41 39 38 37 35 34 33 32 32 32 32 33 35 35 33 35 36 39 39 39 39 38 38 38 37 38 38 38 38 37 36 36 37 33 33 33 34 34 33 32 30 28 28
38 36 36 35 35 34 33 33 32 32 31 31 31 31 32 32 33 34 35 36 36 36 36 36 36 36 35 35 35 34 34 35 34 33 32 33 32 32 31 30 29 29 27
37 36 36 35 35 35 35 34 33 33 33 34 34 35 35 36 36 36 36 35 36 36 36 36 36 35 35 34 34 34 33 32 32 31 29 30 29 29 29 26 25 26 23
37 36 36 36 36 36 36 36 37 37 37 37 36 36 36 36 35 34 35 35 34 35 35 36 36 37 37 36 34 33 33 32 31 31 30 29 29 26 25 25 23 25 25
36 36 36 36 36 36 35 36 35 35 36 36 37 36 36 36 38 37 34 33 33 33 32 33 34 34 35 36 37 36 32 31 31 30 28 27 25 24 23 24 24 22 22
35 35 35 35 35 35 35 34 34 34 34 34 35 35 36 37 37 37 35 30 29 30 31 31 31 31 31 31 30 29 28 28 29 28 26 25 23 22 22 21 24 22 22
35 35 35 36 35 35 34 34 34 33 33 33 33 34 35 37 37 35 34 31 30 31 30 28 27 27 27 29 28 27 27 27 27 26 26 24 23 24 26 24 24 25 25
35 35 36 36 35 35 34 33 33 33 32 32 31 29 28 30 32 32 30 26 26 26 27 26 25 24 27 29 25 24 23 21 21 23 22 26 28 29 29 25 21 18 19
35 35 35 36 35 34 33 33 33 33 32 29 26 27 30 26 29 30 28 26 23 24 24 23 25 25 26 25 23 22 20 18 23 24 23 23 23 23 26 24 22 12 15
35 34 35 35 34 34 33 33 31 25 25 24 27 26 27 27 28 29 28 24 22 21 20 20 21 25 24 23 23 21 20 22 25 22 20 21 23 25 26 26 26 16 22
35 34 34 35 35 33 31 28 28 26 22 20 21 22 24 26 28 26 26 26 24 19 20 22 23 23 21 22 22 24 26 26 22 20 21 22 22 22 25 26 26 27 28
35 34 34 34 32 31 28 26 23 19 15 13 15 16 17 22 23 24 25 23 24 21 22 23 23 19 21 22 23 24 23 20 20 21 21 19 19 19 20 26 27 29 29
34 34 32 31 30 28 20 17 13 11 10 11 14 15 16 18 22 23 22 22 24 22 23 21 20 18 19 21 21 20 20 20 21 19 19 20 23 25 24 27 25 26 20
33 32 26 19 16 20 20 11 17 21 14 13 15 16 16 19 22 24 23 22 23 22 21 18 13 15 18 19 19 20 21 22 21 20 22 23 22 22 23 25 25 24 22
28 18 17 16 13 22 24 24 26 26 26 25 24 20 21 22 24 23 22 23 23 21 18 13 14 19 20 20 20 21 21 22 23 24 24 23 23 23 23 23 22 23 20
18 17 18 13 15 19 22 23 22 23 24 22 22 23 22 22 24 22 21 22 22 18 14 17 18 19 19 19 18 19 23 24 25 24 23 23 23 22 21 17 17 19 21
18 23 16 15 18 19 21 22 21 19 16 15 20 20 21 21 22 22 22 21 12 14 17 16 16 18 18 17 20 22 22 24 23 23 23 23 20 21 19 17 17 17 19
17 21 18 18 19 18 15 13 12 13 8 6 11 16 18 20 19 22 23 17 15 16 16 17 18 17 17 16 20 22 23 23 23 23 23 22 16 19 19 19 20 23 24
19 23 21 17 17 14 10 9 8 7 6 6 7 9 11 17 18 19 20 18 16 16 16 16 17 17 15 12 14 22 23 23 22 22 18 18 20 21 20 20 21 20 20
19 22 24 16 14 12 10 9 8 8 8 8 8 10 16 15 16 18 17 16 16 16 16 16 16 14 11 9 10 21 21 21 21 22 19 19 20 20 20 21 21 21 22
20 20 21 15 13 12 10 9 9 8 8 8 9 10 17 15 18 18 17 16 16 16 17 17 14 13 11 9 10 12 20 19 20 20 19 18 19 20 21 20 20 20 21
20 19 19 15 13 15 14 9 9 9 9 9 10 10 11 12 13 15 15 16 16 17 17 17 15 13 12 11 10 11 13 18 18 18 19 19 19 19 20 19 20 21 22
19 18 17 15 12 12 12 11 9 12 10 9 10 11 12 12 12 13 15 15 16 16 16 16 15 13 12 11 11 11 12 15 17 18 19 19 19 20 21 22 22 23 23
20 18 16 15 13 13 11 12 10 10 10 11 11 12 13 13 13 15 15 15 15 15 15 15 14 13 12 11 11 9 13 21 21 21 23 22 22 21 22 23 25 26 26
23 24 20 14 13 13 12 13 15 15 15 15 14 15 15 15 16 16 16 16 15 15 15 15 14 12 11 11 11 14 22 23 24 26 27 28 26 26 27 27 26 27 27

GFSGL_sfc_dewp_078.txt.gz
Dewpoint
41 39 37 36 35 35 36 36 36 36 39 42 42 41 41 43 45 45 44 44 43 42 41 40 40 40 40 40 41 40 40 40 37 34 36 36 36 37 37 38 38 37 35
38 37 36 35 34 33 32 32 32 32 32 32 32 32 33 35 37 39 39 39 39 38 38 38 38 38 38 38 37 36 36 36 37 34 34 34 34 35 35 34 33 30 30
36 35 35 34 34 33 33 33 33 33 33 34 34 34 34 35 35 36 36 36 36 37 37 37 37 36 36 36 35 35 34 34 34 34 31 34 33 32 31 31 30 29 27
36 36 35 35 35 35 35 35 35 35 35 35 35 35 35 35 35 35 35 34 35 35 35 35 36 35 35 34 34 34 33 32 32 32 31 31 31 30 30 26 25 25 23
36 36 36 36 36 36 36 36 36 36 36 36 36 36 35 35 34 34 34 34 34 34 36 36 36 37 37 35 33 33 34 33 32 31 30 30 27 26 24 24 23 24 23
36 36 36 36 36 36 36 35 35 36 36 36 35 35 35 35 38 37 34 33 33 33 32 33 33 33 34 37 37 35 33 32 28 28 26 26 25 23 23 23 23 21 20
35 35 35 35 35 35 34 34 34 34 35 35 36 37 36 36 37 37 35 28 27 31 30 25 29 30 30 29 29 29 29 29 29 27 24 24 23 22 21 18 22 18 21
35 35 36 35 35 34 34 34 33 33 34 34 34 34 35 37 37 36 34 27 26 25 24 24 25 25 26 28 27 27 26 26 25 27 26 25 23 23 24 22 23 24 24
35 36 36 36 35 34 33 33 33 33 33 33 32 30 28 29 32 31 28 25 25 25 26 25 25 25 29 29 24 24 22 21 23 28 26 27 28 29 28 25 21 18 18
35 36 36 36 35 34 33 33 33 30 27 27 26 26 29 26 31 30 27 25 23 24 24 22 26 25 25 25 23 22 20 19 22 25 23 21 23 25 29 24 22 12 13
35 35 36 35 35 34 33 33 31 24 25 23 26 25 26 27 27 28 27 22 21 20 20 20 21 25 23 23 24 21 21 21 25 21 20 21 23 24 26 26 24 14 21
35 35 35 34 34 33 33 27 27 26 24 23 23 24 25 25 27 25 25 26 23 19 20 22 22 24 21 22 22 24 25 25 21 20 22 22 22 22 22 23 25 27 28
34 34 34 34 32 31 28 26 25 21 19 18 19 20 20 23 22 26 25 24 24 21 21 23 24 19 20 21 23 24 24 20 20 20 20 18 19 18 22 27 28 28 28
33 33 33 32 31 28 27 24 19 16 13 12 14 15 16 18 21 23 22 22 23 22 23 21 19 18 20 21 21 20 20 20 20 19 18 20 24 24 24 26 24 25 24
34 33 32 30 29 25 19 15 12 12 13 12 14 15 16 18 22 25 24 22 23 23 21 17 13 15 18 19 20 21 22 22 20 21 24 24 23 24 24 24 24 23 22
33 31 29 22 17 20 17 22 25 27 25 23 23 20 20 22 25 25 23 23 23 22 18 13 14 18 19 19 20 21 21 22 23 23 24 24 23 23 22 17 14 15 19
32 24 20 16 18 21 22 23 23 24 25 24 25 25 24 24 25 24 22 22 23 21 13 15 17 18 18 19 18 16 21 23 25 24 23 23 23 22 21 16 14 14 17
26 26 18 14 15 19 21 22 21 20 18 15 22 21 23 22 23 24 23 21 13 14 17 15 15 17 18 16 16 16 22 23 24 23 23 23 23 18 16 14 14 14 16
23 22 18 17 17 20 20 21 21 19 17 10 12 18 21 23 22 22 24 20 16 15 16 16 17 17 16 15 15 15 23 23 23 23 23 22 16 13 17 14 17 22 23
20 23 22 17 17 20 16 17 15 13 10 6 7 8 10 18 17 18 20 19 18 17 16 16 16 16 15 11 8 10 21 22 21 22 22 20 15 16 18 18 19 18 19
20 22 26 18 17 18 14 11 9 8 8 8 7 8 16 15 15 15 17 17 17 16 16 16 15 14 12 7 3 6 12 18 21 21 20 20 16 17 18 19 20 20 20
23 21 24 20 16 15 13 11 9 8 8 8 8 9 19 17 16 17 18 18 18 17 16 16 15 13 12 8 7 6 9 13 17 19 19 19 16 18 18 19 19 19 19
25 21 20 21 16 17 16 11 9 9 9 8 9 9 9 13 15 17 17 16 16 16 17 17 16 13 12 10 8 8 8 11 14 13 15 17 18 18 18 18 18 18 19
25 22 20 19 16 14 14 13 10 12 9 9 9 9 10 11 12 13 15 16 16 16 17 16 15 13 11 10 9 8 8 11 11 13 12 15 17 18 19 19 20 21 21
26 23 20 18 16 16 13 13 12 10 10 10 8 9 11 12 13 15 16 16 16 16 15 15 15 13 12 10 10 8 11 20 19 18 18 18 18 17 18 19 20 21 22
27 24 25 25 19 17 15 14 16 16 16 15 14 16 15 16 16 17 17 17 16 16 15 15 14 13 11 10 10 13 21 23 23 24 24 26 25 24 25 24 24 25 25

GFSGL_sfc_dewp_081.txt.gz
Dewpoint
39 37 36 35 34 34 34 34 35 36 39 39 39 40 41 44 45 44 44 44 43 42 42 41 40 41 39 40 40 40 40 40 38 35 36 36 37 38 38 39 39 39 38
37 36 35 34 33 33 32 32 32 32 33 33 33 34 35 37 38 40 39 40 40 39 39 39 38 38 38 38 37 37 36 37 37 35 34 34 35 36 36 36 35 33 32
36 35 34 34 33 33 33 33 34 34 34 35 35 35 35 36 36 36 36 36 37 37 37 37 37 36 35 35 35 31 31 35 35 34 33 33 33 33 33 33 31 29 27
36 35 35 35 35 35 36 36 36 35 35 35 35 35 35 35 35 35 35 35 34 34 34 34 33 33 32 31 31 31 31 31 31 30 31 32 31 31 30 27 25 24 23
36 36 36 36 36 36 35 36 36 36 35 35 35 35 35 35 34 35 35 35 34 35 35 36 36 36 36 34 32 31 31 30 31 31 30 30 29 26 24 24 22 23 22
36 36 36 36 36 36 36 36 36 36 36 35 35 35 36 35 38 37 35 33 34 34 33 33 33 31 34 36 35 34 33 29 27 26 28 24 23 23 23 22 21 19 19
36 35 36 36 35 35 35 35 34 35 36 36 36 35 36 35 37 37 35 29 31 31 26 24 28 29 28 27 29 30 31 31 30 26 24 23 22 22 20 18 21 17 20
35 35 35 35 35 35 34 34 34 34 34 35 34 34 35 36 37 36 33 25 25 24 23 23 24 24 27 27 27 26 26 23 25 27 26 25 24 22 23 21 21 23 24
35 35 36 36 35 34 33 33 33 33 33 33 32 29 28 29 31 31 27 24 25 24 25 25 25 25 28 29 24 24 21 20 25 29 28 28 29 29 28 27 24 18 18
35 36 36 36 35 34 33 33 33 32 31 28 27 26 30 26 31 30 26 24 23 23 22 21 27 25 25 25 22 21 19 19 22 25 23 21 24 26 29 24 21 10 12
36 36 36 36 35 34 33 33 30 27 25 22 25 24 25 27 28 29 26 22 21 21 20 20 21 26 24 23 24 21 20 21 25 21 20 22 24 24 25 26 23 14 21
36 36 35 35 34 34 32 30 27 26 24 23 23 24 25 24 26 26 27 26 23 19 19 21 22 25 21 22 23 23 25 24 20 20 22 21 21 21 21 22 24 26 28
35 34 34 34 33 33 30 27 25 24 23 21 22 22 22 23 22 27 25 24 25 21 21 23 25 23 20 21 23 24 25 20 20 19 19 18 18 17 22 26 28 28 28
34 34 34 32 32 31 29 27 23 20 18 17 16 16 16 18 20 22 22 21 23 22 22 22 20 19 21 21 21 20 20 20 20 18 17 19 23 25 23 26 24 24 24
33 33 33 32 32 29 26 23 19 17 16 13 14 15 16 17 20 24 23 22 22 24 21 15 13 15 18 19 20 21 21 22 20 20 23 24 24 24 24 25 24 23 18
34 33 32 31 29 26 20 16 23 21 25 23 21 18 17 20 23 27 26 24 24 24 19 14 13 18 19 19 19 20 21 21 23 24 24 24 23 23 23 16 12 12 16
34 32 32 28 22 20 17 19 22 25 26 26 26 25 24 24 25 26 25 23 23 23 16 15 16 17 17 18 17 16 14 21 24 24 23 23 23 23 21 13 12 11 15
33 33 28 21 18 20 20 21 21 22 21 19 24 24 25 24 24 26 25 23 18 13 17 15 15 16 17 16 16 12 13 20 24 23 23 23 23 22 12 11 11 12 14
31 30 23 19 17 20 20 21 21 20 17 13 13 18 24 25 24 24 25 22 19 15 15 15 16 16 16 15 16 13 11 12 17 22 23 23 22 15 13 12 14 21 22
30 29 24 18 16 19 19 19 20 19 18 16 11 9 11 21 18 19 19 20 19 18 17 16 16 16 15 13 11 8 7 11 13 19 21 22 21 19 14 16 17 17 17
29 27 30 19 17 18 18 17 18 18 16 13 10 8 15 13 16 17 16 17 17 18 18 17 16 15 14 12 9 9 8 9 11 12 18 20 19 19 16 18 18 18 18
28 26 26 22 18 17 17 16 14 13 11 9 8 8 19 16 15 14 15 16 17 18 18 18 16 15 15 13 11 10 8 8 9 10 13 18 18 18 16 17 17 17 18
29 26 24 24 19 20 19 16 14 12 10 9 8 7 7 13 16 18 18 18 18 18 18 18 17 16 15 14 11 10 8 10 12 10 11 14 15 17 16 16 17 17 17
30 28 27 24 22 18 17 17 14 15 11 9 9 8 9 9 10 13 16 17 17 17 17 17 18 17 16 13 11 9 9 10 8 10 8 11 13 15 16 17 18 18 19
31 30 28 27 24 23 17 16 15 13 12 10 8 9 10 10 11 15 17 18 18 18 17 17 17 16 15 14 12 9 11 19 19 15 15 14 14 15 16 17 18 19 19
32 29 28 27 27 25 25 20 18 17 17 16 14 14 14 15 16 19 19 19 18 18 18 17 17 16 15 14 12 13 20 22 22 24 24 24 21 21 20 19 19 20 22

GFSGL_sfc_dewp_084.txt.gz
Dewpoint
38 36 35 34 34 34 34 34 35 36 37 38 39 41 43 45 45 45 45 45 44 43 43 42 41 41 41 40 39 39 38 38 39 35 36 36 37 38 39 39 39 39 39
36 35 34 34 33 33 33 33 33 33 34 34 35 37 38 38 40 41 40 41 41 40 40 40 39 39 38 37 38 37 34 36 38 35 34 35 35 36 36 36 35 34 33
36 35 34 34 34 33 34 34 34 35 35 36 36 36 36 36 36 36 36 37 37 37 38 37 37 37 36 36 35 34 33 33 32 31 32 34 33 33 33 33 32 30 28
36 35 35 35 35 35 35 35 35 35 35 35 35 35 35 35 35 35 35 35 34 34 34 34 33 32 31 30 30 30 30 30 30 29 29 31 31 31 30 28 26 25 24
36 35 35 35 35 35 35 35 35 35 35 35 35 35 35 35 36 35 35 35 35 35 36 36 36 36 37 35 31 29 29 29 29 28 28 28 28 26 25 23 22 22 22
36 35 36 36 36 35 36 36 36 36 35 35 35 36 36 37 38 37 35 34 34 34 32 32 31 32 34 36 34 34 31 27 24 22 19 23 23 22 23 22 21 19 18
36 36 36 36 36 35 35 35 35 36 36 36 36 36 36 36 38 38 36 33 32 29 26 26 28 30 28 27 30 32 31 32 30 25 23 22 22 22 20 17 21 16 19
35 35 36 36 35 35 35 34 35 35 35 35 34 35 36 37 37 36 33 26 25 23 23 23 24 25 28 25 26 26 24 22 26 26 25 24 24 23 22 20 21 23 24
35 35 35 36 35 35 34 34 34 34 33 33 33 31 30 31 33 31 27 24 25 24 25 24 25 25 27 28 23 24 21 20 26 30 28 28 29 29 27 27 27 19 18
35 36 36 36 35 34 34 33 33 33 32 30 28 28 31 28 30 29 25 23 23 23 21 21 27 25 25 25 22 20 18 19 23 24 22 21 25 28 29 24 21 10 12
36 36 36 36 35 34 34 33 32 31 28 25 26 26 26 27 28 28 26 21 20 21 20 20 21 26 23 23 26 19 20 22 25 21 20 23 24 24 25 25 22 13 16
36 36 36 35 35 34 33 31 30 27 25 24 25 25 25 24 27 28 28 25 23 18 19 21 22 25 20 22 24 23 25 24 20 20 21 20 20 20 21 22 23 23 28
36 35 35 34 34 32 30 29 27 26 24 23 23 23 24 23 22 26 25 26 26 21 21 23 24 23 21 21 23 24 25 20 20 19 19 17 18 17 21 25 27 28 27
35 34 34 33 33 31 30 28 26 24 23 22 21 20 20 20 20 22 22 21 24 22 22 22 20 20 22 22 21 20 20 20 20 18 17 18 21 25 25 26 24 23 23
34 34 33 32 32 30 28 27 24 22 21 18 17 16 16 16 18 23 23 21 22 23 22 15 12 15 17 18 19 20 21 21 19 18 20 24 23 25 24 25 24 21 16
33 33 33 32 31 31 27 23 29 25 26 25 22 18 16 19 22 27 29 27 25 25 20 16 13 16 18 18 19 19 20 21 21 20 21 24 23 23 23 23 20 9 10
33 33 33 32 30 29 25 19 18 24 28 29 27 25 24 21 26 27 28 25 24 24 20 16 15 17 17 17 17 15 14 18 15 17 23 23 23 23 23 20 8 8 10
34 35 33 31 29 26 21 18 20 22 22 22 26 27 27 26 26 27 27 24 21 18 17 16 15 16 16 16 15 12 12 13 14 16 16 23 23 22 22 15 9 6 12
33 33 31 28 27 26 21 19 20 20 20 17 14 19 26 26 26 25 27 23 20 18 15 15 16 16 15 15 15 13 10 7 9 9 13 22 22 22 20 17 13 20 21
33 33 30 26 23 21 20 19 19 19 19 17 14 12 12 24 19 21 21 21 20 20 19 17 17 16 15 13 11 10 6 6 7 9 12 12 13 21 20 19 16 15 15
33 33 33 25 21 19 18 18 18 18 18 18 17 15 18 15 19 19 19 19 20 20 20 19 18 17 16 14 13 11 10 8 7 7 8 12 12 14 19 18 17 16 16
33 31 32 28 23 19 18 17 17 17 18 17 16 13 23 18 14 15 16 17 18 18 18 18 19 18 16 15 14 12 13 12 10 8 9 10 13 17 18 17 15 15 16
33 31 29 29 25 24 22 18 17 16 15 15 14 10 8 15 16 18 17 17 18 19 19 19 19 19 18 16 15 15 14 13 13 12 10 11 12 14 16 16 15 15 15
34 32 30 28 26 24 22 20 18 18 15 14 12 10 9 8 11 16 19 20 19 19 20 19 19 19 19 18 16 14 14 13 12 12 10 9 12 14 15 15 15 15 16
34 32 31 30 28 28 26 27 21 17 15 14 12 11 10 10 10 14 16 19 19 19 19 18 19 19 18 17 16 14 14 19 17 14 12 12 13 14 14 15 15 16 17
35 33 32 31 31 31 31 29 28 26 25 22 16 16 15 15 16 18 19 19 19 19 19 19 18 17 17 16 16 16 20 21 21 23 23 21 18 18 18 18 17 17 17

GFSGL_sfc_dewp_087.txt.gz
Dewpoint
39 38 37 36 36 36 36 37 38 38 39 40 42 44 45 46 47 48 48 47 46 45 45 44 42 42 42 41 42 42 42 43 43 37 38 37 38 39 39 39 39 39 38
37 36 35 35 35 35 35 35 35 36 36 37 39 40 40 41 42 44 43 43 43 42 42 41 40 39 39 39 40 38 38 39 41 38 36 36 36 36 36 36 35 33 34
36 35 35 35 35 35 35 35 36 36 36 37 37 38 38 38 38 39 39 39 39 39 39 39 38 38 37 37 37 37 36 36 37 37 34 34 34 34 34 34 31 29 27
36 35 35 35 35 35 36 36 36 36 36 36 36 36 36 37 37 37 37 36 36 35 36 36 35 35 35 35 34 34 34 34 35 35 34 33 32 32 30 28 27 26 25
36 36 36 36 36 36 36 36 36 36 35 35 35 36 36 37 36 36 36 36 36 37 37 37 36 36 36 35 33 33 33 32 32 33 31 30 29 27 26 25 23 23 23
36 36 36 36 36 36 36 36 35 36 36 36 36 37 37 37 39 39 37 36 35 35 33 33 33 33 36 36 35 34 31 30 31 31 30 27 25 24 24 23 23 23 19
36 36 36 36 36 36 36 36 36 36 37 36 36 36 36 37 38 38 37 35 34 33 32 32 31 30 29 30 33 32 32 33 29 26 23 24 23 23 25 27 25 26 23
36 36 36 36 36 35 35 35 36 37 36 37 35 36 38 37 38 37 35 31 28 27 27 28 29 28 27 27 27 27 25 28 27 24 24 24 25 25 25 26 26 27 27
36 36 36 36 36 35 35 35 35 35 34 34 35 35 36 36 35 33 28 26 26 25 25 27 27 26 30 26 25 26 22 21 28 30 29 29 29 29 27 27 28 27 23
36 36 36 36 36 35 35 34 34 34 33 31 31 30 31 30 30 29 25 24 24 24 25 26 28 25 25 28 21 18 19 19 26 24 21 23 26 29 28 25 27 27 26
36 37 37 36 36 35 34 34 33 32 30 29 28 28 29 29 29 29 27 21 21 21 20 20 23 26 24 25 25 18 20 23 26 21 21 24 24 24 24 25 25 28 27
37 37 36 36 36 35 34 33 31 29 27 26 26 26 26 26 29 28 26 24 24 19 18 20 22 24 22 24 25 25 29 25 20 20 22 23 24 25 25 25 25 27 27
36 36 35 35 35 34 32 30 29 26 25 24 25 24 24 24 25 29 29 28 25 19 20 23 26 25 23 21 24 25 27 21 20 21 23 24 25 26 26 26 27 29 27
35 35 35 34 33 32 31 30 28 26 24 23 23 22 23 22 22 25 26 26 27 24 25 24 21 21 21 21 23 23 20 20 21 23 23 24 25 26 25 25 25 25 25
35 35 34 33 33 31 30 29 28 26 25 23 23 21 20 18 19 23 24 21 21 22 22 16 12 13 16 18 19 20 21 22 24 23 23 23 23 23 23 25 25 24 22
34 34 33 33 32 31 29 29 32 30 30 28 25 21 17 19 22 26 28 27 26 27 22 17 14 13 15 16 18 19 21 23 23 24 24 24 24 24 24 25 25 22 20
34 34 34 33 31 31 29 28 26 28 30 28 29 27 25 19 25 27 29 29 27 26 22 20 18 16 17 19 20 21 22 23 24 25 24 24 24 24 24 23 23 21 20
34 35 33 33 32 31 30 28 23 21 23 25 28 29 28 27 26 28 30 28 23 24 22 21 20 19 18 18 19 21 22 22 22 23 24 24 24 24 23 22 22 20 19
35 34 34 32 31 31 29 26 22 20 21 20 19 24 28 29 28 28 29 25 22 22 19 18 17 18 18 19 19 20 20 20 21 22 23 23 23 24 22 21 20 20 21
35 35 34 31 30 30 27 25 22 19 19 19 17 15 14 26 25 24 24 25 24 23 22 21 20 19 20 20 20 19 19 18 21 20 20 21 23 23 22 20 18 19 18
34 34 35 30 28 29 27 25 22 19 18 18 18 17 19 19 23 23 23 23 23 23 23 23 23 23 22 21 20 19 17 18 17 17 18 18 18 19 21 21 19 18 18
34 34 34 31 30 26 24 24 20 19 18 18 18 18 25 21 17 19 20 20 22 22 22 23 23 22 22 22 21 20 18 18 17 16 16 16 16 17 19 19 18 18 17
35 33 32 34 31 31 30 24 20 19 18 17 17 17 16 21 21 19 17 16 18 19 20 20 21 22 22 22 22 21 19 19 19 18 16 15 16 17 18 18 18 17 16
35 34 32 31 31 30 30 29 24 24 20 18 16 15 14 14 16 18 19 19 19 19 21 21 22 22 23 22 21 20 20 20 19 17 16 15 15 16 17 17 17 16 16
35 34 33 32 31 32 31 31 29 27 27 23 17 15 14 13 13 16 17 21 22 22 22 22 22 22 22 21 20 19 19 20 18 16 16 15 15 15 15 16 16 17 17
35 34 34 33 33 32 32 31 31 30 29 29 28 27 24 19 17 19 19 20 21 21 22 21 21 22 22 21 20 19 20 21 22 23 20 18 18 18 18 18 18 18 18

GFSGL_sfc_dewp_090.txt.gz
Dewpoint
43 43 43 42 41 42 42 42 43 43 44 45 46 48 49 50 50 51 50 49 48 48 49 48 46 45 44 44 45 46 46 47 46 40 39 39 40 41 40 41 40 39 38
41 40 40 40 40 40 39 39 39 40 40 41 42 44 44 45 46 48 47 47 47 46 45 44 42 42 42 43 44 43 44 44 44 40 38 38 39 38 38 38 36 34 35
39 39 38 38 38 38 38 38 38 39 39 39 40 41 41 42 43 44 44 44 44 43 43 43 42 41 40 41 41 41 40 39 41 41 37 36 35 36 36 35 33 32 26
39 38 38 38 38 37 37 37 37 38 38 38 39 39 39 40 40 40 41 40 40 40 40 39 39 39 39 39 38 38 38 38 39 38 37 36 36 34 33 31 30 28 26
38 38 38 37 37 37 37 37 37 37 37 38 38 38 39 39 39 40 40 39 39 38 38 37 37 37 37 36 37 37 37 36 36 38 36 34 34 31 30 27 25 24 24
38 38 38 37 37 38 38 37 37 37 37 37 38 38 38 38 40 39 39 39 38 38 37 37 37 38 37 37 36 33 32 33 34 34 34 30 26 25 25 24 24 24 21
38 37 37 37 37 38 37 37 37 37 38 38 38 38 38 39 40 40 38 38 37 36 36 36 33 32 34 34 34 33 33 32 29 27 24 22 23 23 28 29 25 26 22
37 37 37 38 37 37 37 37 38 38 38 38 38 39 39 38 38 38 37 35 33 32 31 30 28 26 26 26 25 28 28 27 25 22 24 23 24 25 25 29 27 26 27
37 38 38 38 37 37 37 37 37 37 36 36 38 38 37 37 37 36 32 30 27 26 26 28 28 28 28 27 27 27 23 27 31 30 30 30 29 29 28 28 29 28 25
38 38 37 38 37 37 37 36 35 36 35 35 35 35 36 35 34 31 26 22 22 23 24 25 26 25 30 24 19 20 20 20 24 23 23 25 27 29 28 27 28 30 29
38 38 38 38 38 37 37 35 35 34 33 32 31 31 28 27 27 29 26 21 21 22 23 24 26 27 25 28 20 16 16 21 26 21 20 22 23 25 25 26 26 31 29
38 38 38 38 37 36 35 34 33 31 30 28 27 27 27 27 28 29 28 22 23 19 17 18 20 25 24 25 25 25 29 26 21 20 22 23 24 26 27 27 26 28 27
37 37 37 37 36 35 34 32 31 29 27 26 26 25 25 26 27 29 27 26 25 17 18 21 25 27 23 23 25 26 29 23 20 22 23 26 28 28 29 29 29 29 31
35 36 36 35 35 34 33 31 30 28 27 26 24 23 23 23 24 27 27 28 27 23 24 26 22 21 23 18 23 26 24 21 21 24 25 26 27 27 26 26 26 26 25
35 35 35 35 35 33 32 31 30 30 29 26 23 22 22 21 21 25 26 26 25 23 23 19 17 16 19 18 19 20 20 20 23 23 26 26 25 25 25 26 26 25 24
35 35 35 34 34 32 31 31 34 33 33 29 27 24 21 22 23 27 29 28 26 25 21 16 13 12 13 13 15 17 19 22 23 26 26 26 26 26 26 26 26 24 23
35 35 34 34 33 32 31 30 30 32 32 32 31 29 27 19 25 25 28 29 28 26 23 20 19 18 16 16 18 20 23 23 30 28 28 27 26 26 25 24 24 23 22
35 36 35 34 33 32 32 31 31 29 28 28 30 30 30 29 25 27 29 30 26 27 25 24 24 22 19 20 21 23 24 24 26 26 26 26 26 26 25 24 23 22 22
35 35 35 34 33 33 32 31 30 27 24 22 24 27 30 30 30 27 29 28 26 24 25 24 23 22 21 22 23 23 24 25 25 25 25 26 25 25 24 24 23 21 21
35 35 36 34 33 32 31 30 29 28 24 21 20 20 23 29 28 27 26 28 28 26 24 23 22 22 23 24 24 24 24 23 24 24 24 24 24 24 23 22 21 21 20
35 35 37 34 32 32 30 29 29 28 26 22 19 19 22 24 27 26 26 26 27 27 27 26 26 27 27 27 26 25 24 23 23 23 23 23 23 22 21 21 21 20 20
35 35 35 34 32 32 32 32 30 28 27 24 20 19 25 22 19 23 24 25 25 26 26 27 28 28 29 28 27 26 24 23 23 23 22 21 21 20 20 20 20 20 20
35 34 34 34 33 33 32 31 31 30 28 25 22 19 18 22 22 22 21 21 23 25 25 25 27 27 27 28 28 27 26 25 24 24 22 20 20 19 19 19 19 19 19
35 35 34 33 34 32 32 31 30 31 30 30 27 21 19 18 20 22 24 24 22 21 22 23 24 25 26 27 27 27 26 26 26 24 23 22 20 19 19 19 19 19 19
35 35 34 34 33 33 32 32 32 30 30 30 30 30 29 26 19 20 22 24 26 25 23 22 25 26 26 26 26 26 25 23 23 22 21 20 19 19 19 19 19 19 19
34 34 34 34 33 33 33 32 32 32 31 31 31 30 30 29 29 26 23 23 24 25 25 25 26 27 27 26 26 25 24 23 23 23 20 19 18 18 18 19 19 19 20

GFSGL_sfc_dewp_093.txt.gz
Dewpoint
45 44 44 43 43 44 44 44 44 45 46 48 48 49 50 51 52 52 52 51 50 50 50 49 48 48 47 47 47 48 48 49 47 40 41 40 41 42 41 42 41 40 39
43 42 42 42 42 41 41 41 41 41 42 43 44 46 46 47 49 50 48 49 48 48 47 46 45 44 44 45 46 46 46 46 46 41 39 39 40 39 39 39 36 35 35
41 41 41 41 40 40 39 39 39 40 40 40 41 42 43 43 45 46 47 47 47 46 45 44 43 44 43 44 44 43 43 42 44 41 38 37 37 37 37 37 34 33 27
40 40 40 39 39 39 38 38 38 38 39 39 39 40 40 41 41 42 43 43 43 42 43 42 42 42 42 42 41 41 40 40 41 40 39 38 38 36 36 34 32 30 29
40 40 39 39 38 38 38 38 38 38 38 38 38 39 40 40 40 41 42 41 41 40 40 39 39 39 39 38 39 39 39 39 39 40 37 36 36 34 32 29 27 26 28
39 39 39 38 38 39 38 38 38 38 38 38 38 39 39 38 39 40 41 40 40 39 39 38 38 38 37 37 36 35 35 37 37 38 37 35 30 28 27 26 27 28 26
39 38 38 38 38 38 38 38 38 38 39 38 39 38 38 39 40 40 40 39 38 37 36 37 35 35 36 34 35 34 33 33 32 31 29 25 25 25 31 29 26 28 25
38 38 38 38 38 39 39 39 39 39 39 39 39 40 40 39 39 39 39 37 37 36 36 34 32 30 29 29 27 30 29 27 27 22 27 25 27 27 29 30 27 26 27
38 38 38 38 38 38 38 39 38 38 37 37 38 38 38 38 38 38 35 33 31 30 29 28 28 26 29 28 29 29 27 29 30 32 32 31 30 30 30 29 30 29 28
39 39 38 39 39 39 38 38 37 38 36 36 36 37 37 36 37 35 32 28 25 25 27 28 26 29 27 25 26 24 23 24 25 27 27 26 30 29 29 28 30 27 28
40 39 39 39 39 39 39 38 36 36 35 34 33 34 34 34 33 32 25 23 22 23 24 25 26 28 29 26 20 19 20 24 25 22 21 23 24 26 27 27 27 29 28
40 39 39 39 38 38 37 36 35 34 33 31 30 30 28 26 28 30 28 23 22 23 21 23 26 27 26 27 23 26 26 25 23 21 23 25 26 28 28 28 27 28 30
38 38 38 38 37 36 35 34 33 32 30 28 28 27 26 27 27 29 29 26 26 19 20 21 23 26 24 25 26 27 30 25 21 24 26 28 29 30 27 27 30 29 27
36 37 37 36 35 35 34 33 32 30 29 29 28 27 25 25 26 29 28 27 25 22 23 27 26 26 26 22 23 26 27 25 24 26 27 28 29 28 28 29 28 28 27
36 36 36 36 35 35 34 32 32 31 31 30 29 26 24 23 24 27 29 28 27 25 25 24 21 20 21 20 21 24 24 21 24 25 27 27 27 27 27 28 28 27 25
35 36 36 35 35 34 33 33 37 35 36 36 34 28 24 25 26 28 29 29 29 27 23 18 16 16 17 18 17 18 20 22 25 28 27 27 26 26 27 27 27 26 24
35 35 35 35 34 33 33 32 30 34 37 38 36 30 29 23 26 26 29 30 29 27 22 20 20 20 19 20 22 24 24 25 26 27 27 27 26 25 25 24 25 24 24
36 38 35 35 35 33 33 32 32 32 31 32 34 33 32 30 27 27 27 29 27 27 25 25 24 23 23 22 23 25 26 26 26 26 27 26 25 24 23 23 24 24 23
36 36 36 35 35 35 33 32 32 32 32 30 28 30 33 32 31 29 28 26 27 26 27 27 26 26 25 25 25 26 26 26 26 25 25 25 25 24 23 23 23 23 23
36 36 36 35 34 33 33 32 32 32 32 28 24 24 25 29 29 28 27 27 28 28 26 26 26 26 25 25 26 26 25 25 24 25 24 24 25 24 23 22 23 21 21
36 35 37 35 33 33 32 32 31 31 31 31 31 24 25 27 28 28 27 26 26 28 28 26 26 26 26 26 26 26 25 25 24 24 24 24 24 23 23 23 22 22 21
36 35 35 35 34 32 32 32 32 31 31 32 32 30 28 23 24 27 27 27 26 27 28 28 28 28 28 27 27 27 26 24 24 24 24 23 23 23 22 21 21 20 20
35 35 34 34 34 34 33 33 32 32 32 32 32 32 25 23 22 22 22 25 26 27 27 27 28 28 29 29 29 28 26 25 25 25 23 22 22 21 21 20 20 19 19
36 35 34 34 34 33 33 32 32 32 32 32 32 32 31 23 22 23 24 23 23 24 26 27 27 28 28 29 29 28 27 27 27 26 24 23 22 21 21 20 19 19 19
34 34 34 34 34 33 34 33 32 32 31 31 31 32 32 31 30 27 25 25 28 26 25 25 26 26 27 27 27 27 27 27 26 26 25 23 22 21 20 20 19 19 19
32 32 33 34 34 33 33 33 33 33 32 31 31 32 32 31 31 32 31 31 30 28 27 26 25 26 26 27 27 27 27 27 26 26 23 22 21 20 19 19 18 18 19

GFSGL_sfc_dewp_096.txt.gz
Dewpoint
46 45 45 45 44 44 44 44 44 44 45 46 47 48 49 50 51 52 52 52 52 51 51 50 49 49 48 47 46 47 48 48 46 40 41 41 41 42 42 41 41 40 38
44 43 43 42 42 42 41 41 41 41 42 42 43 45 45 45 48 50 49 50 50 49 48 47 46 46 45 45 46 45 46 46 45 40 39 39 40 40 39 39 35 35 34
42 41 41 41 41 40 40 39 40 40 40 41 41 42 42 42 43 45 48 48 48 47 46 45 44 44 44 44 42 40 41 41 42 39 36 38 37 37 37 36 34 30 26
41 40 40 40 39 39 39 38 38 39 39 39 39 40 40 41 41 42 43 44 43 43 43 43 43 43 42 40 39 38 39 38 38 39 38 37 36 35 35 34 30 29 27
40 40 39 39 39 38 38 38 38 38 38 38 39 39 40 39 39 41 41 41 40 40 40 39 39 40 41 40 38 36 37 37 37 36 37 35 33 33 31 28 26 25 25
40 39 39 38 38 38 38 38 38 38 38 38 39 39 39 39 40 41 41 39 39 37 36 36 38 39 38 39 39 38 37 36 34 37 31 32 31 27 26 24 24 23 22
39 39 39 38 39 39 38 38 38 38 38 38 38 38 39 40 40 41 41 39 38 36 36 36 36 37 35 34 35 35 35 35 34 32 31 26 24 25 27 25 24 23 22
39 38 39 39 39 39 38 38 37 37 38 38 36 37 39 39 40 41 40 37 37 36 36 34 33 31 32 28 29 28 27 29 29 25 25 26 27 26 27 27 25 25 25
39 38 39 39 39 38 37 37 38 38 36 35 37 37 37 38 40 39 36 33 33 31 29 29 28 27 30 30 29 28 27 28 32 33 32 32 31 31 28 28 25 23 23
39 39 39 39 39 38 37 38 36 37 35 36 36 37 37 36 38 38 34 29 27 26 27 27 31 28 30 30 28 25 26 27 27 27 25 30 30 29 30 26 25 18 20
40 39 39 39 38 37 36 37 36 35 35 35 35 35 36 35 35 36 31 24 24 24 25 25 26 32 28 25 22 22 22 25 26 23 22 23 26 25 26 26 27 20 16
39 39 39 38 38 38 37 36 35 35 34 33 32 31 31 30 35 34 29 24 25 24 23 25 27 29 29 28 22 24 26 27 23 21 22 23 24 23 24 26 26 25 24
38 38 37 38 37 36 36 35 34 33 32 31 30 30 28 27 27 31 30 28 24 21 21 24 29 29 27 27 26 28 28 24 21 23 24 23 22 22 22 23 25 26 21
37 37 37 36 36 35 35 34 33 32 31 30 29 29 27 26 26 28 28 27 27 21 22 24 25 27 26 25 26 25 28 25 23 23 24 24 24 20 21 21 22 27 26
36 36 37 36 36 35 35 33 33 32 32 31 31 30 28 25 26 30 29 27 25 24 25 26 23 21 23 22 20 25 26 25 23 23 23 23 25 24 22 22 27 26 24
35 36 36 35 35 35 34 33 36 35 35 35 34 32 27 29 29 30 31 32 31 30 24 21 21 21 21 20 20 21 23 24 23 24 23 24 23 22 20 23 27 26 24
36 36 36 36 35 34 33 32 31 34 37 37 37 37 35 26 28 29 30 31 30 30 23 21 20 19 18 20 21 22 21 23 19 22 24 21 19 18 23 21 25 25 25
36 38 36 35 35 34 33 32 32 31 31 32 37 38 37 33 28 29 28 30 28 28 25 24 23 23 22 21 22 22 22 21 22 23 20 20 21 19 14 14 17 17 17
36 36 36 35 34 34 33 32 32 32 32 32 31 34 37 38 33 31 29 25 26 27 27 25 25 25 24 24 23 23 23 22 20 18 22 22 21 18 16 18 18 24 22
36 37 36 34 34 34 33 32 31 31 32 32 31 30 32 34 31 30 29 26 26 27 27 27 27 27 26 25 25 24 23 25 22 23 23 23 22 23 21 20 20 18 20
36 35 37 35 33 33 33 32 32 31 31 32 31 32 33 29 29 29 29 28 26 27 28 27 27 27 27 26 25 24 24 24 23 23 24 24 23 23 23 23 22 21 20
36 35 34 34 33 33 32 32 32 32 31 31 32 32 36 33 27 27 28 28 28 27 28 28 28 27 27 26 25 25 24 24 24 23 23 23 23 23 23 23 22 21 19
35 34 34 34 34 35 34 33 32 32 32 32 32 32 32 32 31 26 26 28 28 28 27 29 29 28 28 27 27 26 25 25 25 25 23 23 23 23 23 22 21 20 20
34 33 34 34 34 33 33 33 32 33 32 32 32 32 32 32 31 31 28 26 27 27 28 28 28 29 29 29 29 29 28 28 28 26 24 23 23 22 21 21 20 20 19
30 32 32 33 33 33 33 33 32 32 32 32 32 32 32 32 32 30 28 27 27 28 27 26 28 28 29 29 29 30 29 30 27 26 25 24 23 22 21 21 20 20 20
26 26 27 29 31 32 32 32 32 33 32 32 32 32 32 32 32 32 32 31 31 30 29 30 30 29 29 29 30 29 30 30 29 28 26 24 23 22 21 20 20 19 20

GFSGL_sfc_dewp_099.txt.gz
Dewpoint
46 46 46 46 46 47 46 46 45 45 46 47 47 48 49 49 50 51 51 52 53 52 52 52 51 50 50 48 49 49 49 50 47 40 41 42 42 42 42 42 42 40 40
45 44 44 45 45 43 42 42 43 42 42 43 44 45 45 45 46 49 49 49 51 51 50 49 48 48 47 47 47 46 45 47 45 40 39 39 40 41 40 39 35 36 36
43 42 42 42 41 40 40 40 40 40 41 41 41 41 42 42 42 44 47 49 48 49 48 47 46 46 45 45 45 44 44 43 44 40 38 39 38 38 37 37 35 29 28
41 41 41 40 39 39 39 39 39 39 39 39 40 40 40 41 41 41 43 45 45 45 45 45 45 45 44 43 42 41 39 39 40 39 38 37 37 37 37 33 30 30 26
40 40 39 39 38 38 38 38 38 38 38 39 39 39 39 39 40 40 41 41 41 41 40 40 41 42 43 42 40 38 37 37 36 38 37 36 35 33 32 29 29 26 25
40 39 39 38 38 38 38 38 38 38 38 38 39 39 38 39 40 41 41 38 38 37 36 37 38 40 40 41 40 39 38 36 34 32 34 29 31 30 27 25 25 23 22
39 39 38 38 38 38 38 38 38 37 37 36 36 37 37 38 40 41 42 40 39 37 36 36 36 37 37 36 38 37 38 38 37 35 33 31 26 26 26 25 24 23 22
39 39 38 39 38 38 38 37 36 36 36 36 36 35 36 38 40 41 40 38 37 37 37 36 36 33 32 31 27 27 29 29 26 26 27 26 26 27 27 26 24 24 25
38 38 39 39 38 38 37 36 36 38 37 37 37 34 34 37 41 39 38 36 35 35 34 33 31 30 33 33 28 27 27 29 32 33 31 32 31 31 29 27 25 25 23
39 38 39 39 38 37 36 36 36 37 36 36 35 35 37 37 39 38 35 32 30 28 28 28 32 28 32 32 28 27 26 27 28 27 29 31 30 31 31 27 26 19 21
40 39 39 39 38 37 35 35 37 36 35 35 35 36 36 36 36 38 36 28 27 26 27 26 28 31 31 31 30 26 26 27 28 23 24 27 25 26 26 27 27 21 15
39 39 38 37 38 37 35 36 36 35 35 34 34 33 34 34 37 37 36 28 27 25 25 25 26 33 29 27 23 26 27 29 24 22 23 23 25 24 25 26 26 26 24
38 37 37 37 37 36 36 35 35 35 34 33 32 32 31 29 29 35 35 30 26 24 24 27 29 30 29 29 25 26 29 25 23 23 24 24 24 24 23 24 25 23 19
37 36 36 36 36 36 36 35 34 33 33 32 31 31 30 28 27 28 30 30 29 25 25 26 28 30 28 27 28 26 27 24 23 23 25 25 24 21 21 21 16 17 23
37 37 37 37 37 35 35 34 34 33 33 32 31 31 30 29 27 30 29 27 26 24 24 26 25 25 25 23 22 25 27 27 25 24 25 25 26 25 24 18 17 21 23
36 36 37 36 36 35 34 34 36 36 36 36 36 34 33 34 32 34 32 32 30 29 25 24 24 23 22 24 21 20 25 27 25 25 25 26 25 23 21 19 20 21 22
35 36 36 36 34 35 34 33 32 34 37 37 37 38 37 35 35 33 31 32 33 31 26 24 23 23 21 22 22 23 23 25 25 25 23 24 22 20 25 19 17 17 17
34 37 36 36 35 35 34 33 33 32 32 33 37 38 38 38 34 32 30 30 29 30 29 26 23 22 21 21 22 23 23 24 24 23 23 23 22 19 17 16 16 15 15
35 36 36 35 35 35 33 33 32 32 32 32 32 34 37 39 38 36 30 26 27 28 29 26 26 24 23 23 23 23 23 23 23 23 23 23 22 22 19 21 19 24 21
36 37 37 34 34 34 33 32 32 32 32 32 32 32 32 35 34 34 33 28 27 28 27 27 27 26 26 25 25 24 23 23 25 23 23 23 23 23 23 21 21 21 22
36 36 37 35 34 33 33 32 32 32 32 32 32 33 35 32 32 32 31 30 28 26 27 27 27 27 27 27 27 25 24 24 24 25 23 23 23 23 24 24 23 23 22
35 34 34 34 34 33 33 33 32 32 32 32 32 32 36 34 31 30 31 30 30 29 28 28 28 28 28 28 28 26 25 24 24 24 24 24 24 24 24 24 23 23 22
33 33 33 33 33 34 34 33 32 32 32 32 32 32 32 32 32 32 31 31 32 30 29 28 29 29 29 29 28 27 26 25 25 24 23 24 24 24 24 23 22 22 22
30 30 32 32 33 33 32 32 32 33 32 32 32 32 32 32 32 32 32 32 32 32 32 30 29 29 30 30 29 28 28 27 27 26 25 24 23 24 23 22 22 21 21
26 26 25 26 29 31 31 32 32 32 32 32 32 32 32 32 32 32 32 32 32 31 30 31 32 31 31 30 29 28 28 29 28 28 27 25 24 24 23 22 21 21 20
24 24 24 24 24 24 24 27 28 31 32 32 32 32 32 32 32 32 33 32 31 31 31 30 30 31 32 32 32 32 31 31 31 31 27 26 24 23 22 22 21 20 20

GFSGL_sfc_dewp_102.txt.gz
Dewpoint
48 48 48 48 48 49 49 48 48 48 48 48 49 49 49 49 49 50 51 51 51 52 52 53 54 52 52 51 50 50 51 51 49 40 42 42 43 43 42 42 42 40 41
45 46 45 46 45 45 45 44 44 43 43 43 45 45 45 45 45 47 48 48 49 52 52 50 51 49 49 48 48 48 48 48 46 41 40 40 41 42 41 39 37 36 38
44 43 43 42 42 41 40 41 41 41 41 41 42 42 42 42 42 43 44 47 48 49 50 48 48 47 47 46 46 46 46 45 44 41 39 39 38 39 39 37 33 30 31
42 42 41 41 40 39 39 39 39 40 39 39 40 40 40 40 41 41 42 44 45 46 46 46 46 46 45 45 44 43 42 42 42 40 38 37 37 38 38 34 32 30 25
41 41 40 39 39 38 38 38 38 38 38 39 39 39 38 38 40 40 40 41 40 40 41 41 42 43 45 44 42 41 40 40 39 39 38 37 35 35 35 33 30 26 25
40 39 39 38 38 38 38 38 38 38 38 38 38 38 37 39 40 41 41 38 38 37 37 38 39 42 42 43 42 41 40 36 35 37 36 35 34 33 31 28 26 24 23
39 39 38 38 38 38 38 38 37 36 36 36 36 36 36 37 41 41 42 40 39 38 36 37 37 38 38 39 39 39 40 41 39 36 35 34 31 29 27 26 25 24 23
39 38 38 38 38 38 37 36 35 35 35 35 37 36 35 37 40 41 40 38 38 38 38 37 37 34 34 32 29 29 29 26 29 32 34 31 28 28 28 27 25 25 25
39 38 38 38 38 37 36 35 35 35 34 37 37 36 33 35 40 41 39 37 36 35 36 35 34 33 35 33 28 28 29 30 32 33 32 32 32 32 30 27 26 26 24
38 38 38 39 38 37 36 35 33 35 37 36 35 34 36 34 39 40 36 34 33 32 29 30 36 31 35 33 27 26 28 29 29 30 30 31 31 31 31 26 27 24 23
39 39 39 38 38 37 35 36 34 35 36 35 35 35 36 37 36 39 38 31 30 28 28 27 28 33 33 33 31 27 25 29 29 27 26 26 26 27 27 28 27 24 18
40 39 38 38 38 36 35 35 34 36 35 35 35 34 35 35 37 37 39 35 30 27 27 27 27 33 31 31 29 29 30 30 25 23 25 25 25 26 26 27 27 26 26
38 38 37 36 36 36 36 34 35 35 35 34 34 33 33 33 31 37 37 37 31 26 25 27 28 32 32 29 27 26 28 26 23 23 24 25 26 26 25 26 26 25 22
37 36 35 35 35 36 36 36 35 34 34 33 33 32 33 32 29 28 33 33 34 28 27 28 30 30 30 28 27 26 27 24 24 24 25 26 25 24 24 23 20 19 18
36 36 37 37 38 36 36 35 35 34 34 33 33 33 32 31 30 30 30 29 28 27 24 24 25 26 26 25 25 26 28 26 25 24 25 26 26 26 25 21 20 17 16
36 36 37 37 37 36 35 35 37 37 37 37 37 35 33 35 36 34 35 35 33 31 25 25 25 25 25 25 23 22 25 28 27 25 25 26 26 25 24 19 18 18 16
35 35 35 37 36 35 34 34 33 34 37 38 38 38 38 37 36 37 36 35 33 32 26 24 25 26 25 24 25 24 23 26 26 26 24 26 26 25 26 21 20 19 17
33 36 35 34 34 35 35 34 33 33 32 33 35 38 38 38 38 37 38 35 30 32 29 28 26 25 24 24 24 24 24 24 26 25 25 24 25 23 22 21 21 21 18
33 34 35 35 35 35 34 33 33 33 32 33 32 34 36 38 38 38 36 33 28 29 30 29 28 26 24 24 24 24 24 24 24 24 24 24 24 24 24 23 23 25 23
36 37 37 35 34 34 34 33 33 32 32 32 32 32 32 34 33 34 35 33 28 27 29 29 28 27 27 26 26 25 24 24 24 24 23 24 24 24 24 24 23 22 24
35 35 37 35 34 34 33 33 33 32 32 32 32 33 36 32 32 33 33 33 33 29 28 28 28 28 28 27 27 26 25 24 24 24 24 24 24 23 24 24 23 23 23
34 33 33 33 33 33 33 33 33 32 32 32 32 33 36 35 33 32 32 33 33 33 30 28 28 28 28 28 28 27 26 25 25 25 24 24 23 23 24 24 24 23 23
29 30 32 32 32 34 33 33 32 32 32 32 32 32 32 32 33 33 32 32 32 33 33 32 30 29 30 29 29 29 27 27 27 26 25 24 24 24 24 23 23 23 23
26 26 27 28 29 31 32 32 32 33 32 32 32 32 32 32 32 32 33 33 33 32 33 32 32 31 31 31 30 30 30 29 29 28 26 25 24 24 24 23 23 23 22
25 24 24 24 24 24 24 25 28 30 31 32 32 32 32 32 32 32 33 33 33 32 32 32 32 32 31 32 32 32 30 30 29 28 27 25 24 24 24 23 23 22 22
23 23 23 23 22 22 23 23 22 23 25 25 26 29 31 32 32 32 32 32 32 32 32 32 31 32 32 32 32 33 34 34 33 32 28 26 25 24 24 24 23 22 22

GFSGL_sfc_dewp_105.txt.gz
Dewpoint
53 51 51 51 50 49 50 49 49 49 49 49 50 50 49 49 49 49 49 49 49 49 52 52 52 53 53 53 52 52 52 52 50 41 42 43 43 43 43 43 42 42 43
49 49 48 48 47 46 46 45 45 44 45 45 46 45 45 44 44 44 45 47 47 48 51 51 51 50 50 50 50 50 50 49 47 41 40 41 41 43 42 41 39 36 39
45 46 45 44 43 42 42 42 42 41 42 42 42 42 41 41 41 41 42 44 45 47 47 49 49 48 48 47 47 47 46 46 45 42 39 40 40 42 40 37 34 31 33
44 43 42 42 41 40 40 40 40 40 40 40 40 40 40 39 40 40 40 41 42 43 43 43 44 45 46 46 45 45 44 44 43 41 39 38 38 39 39 35 32 29 27
42 41 41 40 39 39 38 39 39 39 39 39 39 38 38 38 40 39 39 39 39 39 39 39 40 42 44 45 44 43 42 42 42 40 38 37 35 37 36 34 32 27 26
41 40 39 39 38 38 38 38 38 37 37 37 37 37 37 39 41 41 41 38 37 37 36 37 38 40 41 43 43 42 42 40 38 38 37 36 35 35 33 32 28 27 25
40 39 38 38 38 38 37 37 36 36 36 35 35 35 35 36 41 42 42 38 37 39 38 37 38 38 38 39 39 39 40 41 40 37 36 36 34 33 32 30 27 26 24
39 38 38 38 38 37 37 36 35 35 34 34 37 37 34 36 40 40 41 35 35 37 38 38 37 36 35 34 31 31 30 29 31 36 36 36 34 32 32 29 27 25 26
39 38 38 38 38 37 36 34 34 34 34 34 37 37 35 33 38 41 39 34 34 35 36 36 36 35 36 35 31 31 29 31 32 33 33 34 33 33 30 27 27 26 24
39 39 38 38 37 36 35 34 34 34 34 36 36 36 36 34 38 40 39 34 33 34 32 31 36 34 36 35 28 28 29 29 29 31 29 31 32 32 31 26 28 25 24
39 39 38 38 37 36 34 36 35 33 33 36 35 35 33 35 37 39 39 34 32 31 29 29 29 36 36 35 32 26 26 29 30 28 27 27 27 28 28 27 27 26 23
39 39 38 38 38 36 35 35 33 35 36 36 35 34 34 35 37 38 39 39 33 29 28 28 28 32 34 34 34 31 30 31 25 26 25 25 26 26 27 27 27 27 27
38 37 37 36 36 35 34 35 36 36 35 35 34 34 33 33 33 36 38 39 38 30 26 27 30 31 34 30 30 27 29 27 23 24 25 26 26 27 26 26 26 26 25
37 36 36 35 35 35 36 36 36 35 35 34 33 33 34 32 33 31 30 35 35 35 30 29 29 30 30 31 30 26 27 26 24 24 25 26 26 24 24 24 22 21 21
37 36 36 36 36 35 36 36 35 35 35 34 34 34 33 33 33 33 31 30 31 31 27 23 24 27 29 27 26 26 27 26 26 25 25 25 25 25 25 23 21 21 21
36 36 36 37 35 36 35 35 38 38 37 38 38 36 34 36 36 37 37 36 35 35 29 23 23 25 26 27 26 24 25 28 27 25 25 26 26 25 25 22 21 22 21
33 34 34 36 36 36 35 34 32 35 38 38 39 39 39 38 38 38 38 37 37 36 30 25 24 25 25 26 26 26 25 26 27 27 25 25 25 25 26 23 23 22 22
32 35 32 32 32 34 34 32 33 33 33 33 35 37 38 39 39 38 38 37 34 33 29 28 25 25 25 26 26 26 25 25 26 27 26 25 26 25 25 24 23 22 22
34 32 32 32 33 34 33 34 34 33 33 33 33 34 36 37 38 39 38 35 32 28 29 29 28 27 27 26 25 25 24 24 24 24 25 25 25 24 24 25 24 26 24
36 36 37 35 34 34 34 33 33 33 33 33 33 33 33 34 33 33 34 34 33 31 28 29 29 29 28 27 26 25 24 24 25 24 24 25 25 24 24 24 24 24 25
34 33 35 33 33 34 33 33 33 33 32 33 33 34 36 33 32 32 33 33 33 33 31 28 29 28 29 28 28 27 26 25 24 24 23 23 23 23 24 24 24 24 24
28 32 32 32 32 32 33 33 33 32 32 32 33 33 36 35 33 32 32 33 34 34 34 33 30 29 29 29 29 28 27 26 26 25 24 23 23 23 23 23 24 24 23
27 26 27 28 30 32 32 32 32 32 32 32 32 32 32 32 32 32 33 33 33 33 33 33 32 31 30 30 30 29 28 28 27 27 26 25 24 23 23 23 23 23 23
25 24 24 24 25 25 26 28 29 31 31 32 32 32 32 32 32 32 32 33 33 32 33 32 32 33 32 32 31 30 30 30 30 28 26 25 24 24 23 23 23 23 22
24 24 24 23 23 23 23 23 23 23 24 25 26 27 28 30 32 32 32 32 32 32 32 32 32 32 32 32 32 32 32 33 32 30 28 27 26 25 25 24 23 23 23
22 22 22 22 22 22 23 23 23 24 23 24 24 24 25 26 27 28 30 30 32 32 32 33 32 32 32 32 32 33 34 35 33 34 31 29 27 26 25 25 24 24 23

GFSGL_sfc_dewp_108.txt.gz
Dewpoint
53 52 53 52 51 51 51 50 49 49 50 50 50 49 49 48 48 48 48 49 50 50 50 52 52 52 51 51 52 52 52 53 52 42 43 44 44 44 45 44 44 44 45
50 50 49 49 49 48 47 46 47 46 46 46 46 45 44 43 43 43 44 44 45 46 47 49 50 50 48 49 50 49 50 50 49 44 41 42 42 43 43 41 38 38 42
48 47 47 46 45 44 44 43 43 43 43 43 43 42 41 41 40 40 41 41 42 44 44 44 46 46 45 46 47 47 47 47 46 43 39 41 41 42 41 38 36 36 37
45 44 44 43 43 42 41 41 41 41 40 40 40 40 39 39 39 39 39 39 40 40 40 40 40 41 42 45 45 45 45 45 44 42 40 39 39 41 39 35 32 30 28
43 42 41 40 40 39 39 39 39 39 39 39 38 38 38 38 40 39 39 38 37 37 38 38 38 40 43 44 44 43 43 43 43 41 39 38 37 38 38 36 33 28 26
41 40 39 39 38 38 38 38 38 37 38 38 37 37 37 39 42 42 40 37 37 36 36 36 36 39 40 42 43 43 43 41 39 39 38 37 36 37 35 34 30 28 28
40 39 39 38 38 38 37 37 36 36 36 35 35 35 35 35 41 42 42 36 36 35 35 35 37 38 38 38 38 38 39 40 42 39 38 37 36 35 34 32 30 30 28
39 38 38 38 37 37 37 36 35 35 35 36 37 37 34 35 39 40 40 34 34 34 34 35 36 37 36 37 33 33 31 31 32 37 37 38 37 36 35 34 30 26 26
38 38 38 38 37 36 36 35 35 35 34 33 36 37 36 33 38 40 39 35 33 32 35 35 36 35 36 38 32 32 30 30 33 35 35 35 35 36 32 30 28 28 25
38 38 38 38 37 37 36 35 34 34 35 34 36 36 36 34 37 39 40 35 34 33 31 31 33 37 37 37 29 29 29 29 31 31 30 31 32 34 32 27 28 26 24
39 39 38 38 37 37 35 36 36 33 33 35 36 36 35 33 34 39 39 37 34 32 30 29 29 32 37 37 34 26 26 29 31 28 28 27 27 28 28 27 27 24 22
39 39 38 37 38 36 35 36 33 33 33 35 35 34 33 34 37 38 39 39 38 31 29 28 28 32 33 35 34 34 31 30 28 27 26 26 26 26 27 28 28 28 27
39 38 38 37 37 36 35 35 34 34 35 36 35 34 34 34 34 36 38 39 39 34 29 28 30 30 32 34 31 32 29 29 25 26 26 23 26 27 25 25 26 27 26
38 37 36 36 35 34 35 35 35 36 35 34 34 33 34 34 34 33 33 33 36 36 34 31 30 29 31 31 32 28 26 28 25 24 23 24 26 23 24 25 22 22 21
37 37 36 36 37 35 35 35 35 36 34 33 33 34 33 32 33 34 33 31 31 32 32 25 23 25 27 28 27 27 26 27 26 24 24 24 25 25 25 21 22 22 20
36 36 36 36 36 36 34 36 38 38 38 38 38 36 34 36 37 37 38 38 37 35 32 25 23 23 25 27 27 25 26 27 27 26 26 26 25 24 24 23 21 18 19
33 33 33 35 36 37 36 35 34 35 39 39 39 39 39 39 39 39 38 38 37 36 34 28 25 24 24 26 26 26 24 26 26 26 24 24 25 25 26 23 22 21 20
32 35 32 31 31 32 32 32 34 33 33 33 36 38 38 38 38 39 39 38 34 34 32 31 28 25 25 24 25 25 25 25 26 27 26 25 25 25 24 23 24 23 23
35 35 34 32 30 32 32 33 33 33 33 33 33 35 37 37 37 38 38 36 34 33 31 30 28 26 25 24 25 25 25 24 25 25 26 25 25 25 24 25 24 26 25
34 35 36 34 34 34 34 33 33 33 33 33 33 33 34 34 33 33 33 32 33 33 32 30 29 28 27 26 24 25 25 25 25 24 23 25 25 25 25 24 24 24 26
28 31 33 32 32 32 33 33 33 33 32 32 33 34 37 34 32 32 32 32 33 33 33 32 30 30 30 28 27 26 26 26 25 26 25 23 23 24 25 25 24 24 24
26 28 27 29 32 32 32 32 32 32 32 32 32 33 36 34 33 32 32 33 33 34 34 34 33 31 31 31 30 29 28 27 26 26 25 25 24 24 24 24 24 24 23
25 25 24 25 25 27 27 30 31 31 32 32 32 32 32 32 32 32 32 32 32 32 33 33 33 33 33 32 32 31 29 28 28 27 26 25 24 24 23 23 23 23 23
24 24 23 23 23 24 24 24 24 25 25 26 27 29 29 29 31 32 32 32 32 32 32 32 32 32 33 32 32 32 31 31 32 30 28 27 25 25 24 24 23 23 23
23 22 23 23 22 22 22 23 23 23 23 23 24 25 24 24 25 26 26 30 30 32 32 32 32 32 32 32 32 32 32 33 32 32 31 29 28 26 25 24 23 23 23
22 21 21 22 22 21 22 23 23 23 22 23 24 24 22 21 22 22 22 23 23 25 27 29 30 31 32 32 32 33 34 35 34 35 32 30 28 27 27 26 25 24 23

GFSGL_sfc_dewp_111.txt.gz
Dewpoint
56 57 57 56 56 56 55 53 52 53 53 53 53 52 50 49 49 50 50 50 50 50 52 52 50 51 52 53 53 53 54 54 51 46 45 45 45 46 46 46 46 46 48
54 54 53 53 53 52 50 50 50 49 49 49 48 46 45 44 45 45 45 46 47 48 48 50 48 49 50 50 50 51 51 51 50 48 43 43 44 45 45 43 40 41 44
51 51 50 50 49 48 47 47 46 46 45 45 44 43 42 42 41 41 42 43 44 45 45 45 45 46 47 48 48 49 49 48 47 45 41 42 42 43 42 41 38 38 40
48 48 47 47 46 45 44 43 43 43 42 41 41 40 40 40 40 40 40 41 42 42 42 42 42 43 43 45 46 46 46 46 45 44 41 40 41 42 41 37 35 34 31
45 45 44 43 42 41 41 40 40 40 40 39 39 39 40 41 40 40 40 40 40 40 40 39 40 41 42 43 45 45 44 44 44 43 41 40 39 39 39 38 35 32 30
43 42 41 40 40 40 39 39 39 39 39 39 39 39 40 41 43 43 40 39 39 38 39 39 39 39 40 42 43 43 43 43 42 41 40 39 38 39 37 36 32 30 30
41 40 39 39 39 39 38 38 38 38 38 38 37 38 38 41 43 42 40 38 38 38 38 39 38 38 38 38 38 38 37 39 41 42 40 39 38 38 37 35 33 33 33
40 39 39 39 38 38 38 38 38 38 38 38 39 38 38 39 41 41 40 38 36 36 37 37 38 38 37 38 36 35 33 32 34 33 39 39 39 38 37 37 35 29 27
39 39 39 38 38 37 37 37 37 37 37 37 38 39 37 37 39 41 39 37 36 35 35 35 36 36 37 38 34 34 31 31 33 38 37 37 37 38 35 32 31 31 27
39 39 39 38 38 38 37 37 36 37 37 38 38 38 38 37 38 40 40 37 35 34 33 33 33 34 38 38 33 30 29 30 31 31 30 31 33 35 33 31 33 33 30
40 39 39 39 38 38 37 37 37 37 36 38 37 37 37 36 36 39 40 38 36 35 33 31 31 33 34 37 37 29 28 29 32 29 28 28 28 28 28 28 30 35 32
40 39 39 39 38 37 37 38 36 36 36 37 37 36 35 35 38 38 39 40 39 35 34 31 29 32 33 35 35 35 34 30 29 28 28 28 27 28 29 29 29 30 30
39 39 38 38 37 36 37 36 35 35 35 36 36 35 35 35 35 37 38 39 39 38 33 31 31 32 31 32 34 34 33 30 27 27 27 28 28 30 29 29 30 30 30
38 38 38 37 37 36 37 36 36 36 36 36 35 35 35 35 35 35 34 34 36 37 37 34 32 30 30 30 33 30 27 29 28 27 26 27 28 28 28 28 28 28 28
39 38 38 37 38 36 36 36 36 36 37 36 36 35 34 34 34 35 34 33 33 33 33 29 27 26 26 28 29 29 27 26 29 27 27 26 26 27 27 27 27 27 27
37 37 37 37 37 37 36 36 38 38 38 39 38 36 35 36 36 37 37 38 38 38 33 29 28 27 25 25 26 27 27 28 28 29 27 27 27 27 27 26 27 26 26
33 34 34 34 35 37 36 36 35 36 40 40 39 39 39 39 39 39 39 39 39 38 35 31 30 29 27 26 27 28 28 28 30 30 29 28 28 27 28 26 26 26 26
34 35 33 33 33 33 33 33 34 34 34 35 37 39 39 39 39 39 39 40 36 36 34 33 31 30 28 28 28 28 28 28 28 29 29 29 28 28 27 27 26 26 26
34 35 35 35 34 35 34 34 34 34 34 34 34 35 37 38 39 38 38 36 34 34 34 33 32 31 30 29 29 28 28 28 28 28 28 28 28 28 27 27 27 27 26
30 33 34 33 33 33 33 33 33 33 33 33 33 33 34 35 33 33 34 33 33 34 33 33 32 31 30 30 30 29 28 28 29 28 27 28 28 28 27 27 27 26 27
26 29 31 31 32 32 32 32 32 32 32 32 32 34 36 33 33 32 33 33 33 33 33 34 33 32 32 32 31 30 29 29 28 29 28 27 27 27 27 27 27 26 27
25 26 25 26 27 27 31 32 32 32 32 32 32 33 35 33 32 32 32 32 33 33 34 33 33 33 33 32 32 32 30 30 30 29 28 27 27 26 26 26 26 26 26
24 24 23 23 23 25 25 25 27 27 28 29 29 31 32 32 32 32 32 32 32 33 33 33 33 33 34 33 33 33 32 31 32 31 29 28 27 27 26 26 25 25 25
23 22 22 22 22 23 22 23 23 23 23 23 24 25 25 25 25 27 29 30 31 32 32 32 32 32 32 33 33 33 33 33 33 32 32 30 28 27 26 26 25 25 24
22 21 21 21 21 21 21 22 22 22 23 22 22 24 23 22 21 22 23 25 26 27 27 28 30 31 31 32 32 33 32 34 33 32 32 31 30 29 28 27 26 25 25
21 20 20 20 21 20 19 20 22 23 23 23 23 24 23 22 21 21 22 24 25 23 23 25 24 24 24 26 26 27 29 32 34 35 33 32 30 29 29 28 27 27 27

GFSGL_sfc_dewp_114.txt.gz
Dewpoint
61 61 60 60 60 60 60 60 59 60 60 59 58 57 55 55 55 55 54 52 52 52 53 52 51 50 51 52 53 53 52 53 52 51 51 49 47 49 48 48 49 49 50
59 59 59 59 58 58 57 57 57 57 56 54 53 52 51 50 51 50 49 49 49 49 49 49 48 48 49 51 51 50 51 52 51 50 47 46 47 47 47 46 44 43 45
57 56 55 56 56 54 53 53 53 52 51 50 49 48 46 46 45 45 44 45 45 46 47 47 47 47 48 49 48 48 49 48 49 48 46 43 44 45 44 42 40 41 42
55 54 53 53 53 53 51 50 49 49 48 47 45 44 43 42 42 41 42 43 43 43 44 44 44 44 45 46 46 46 46 47 47 47 44 43 43 43 43 40 37 37 36
52 52 51 50 49 49 48 47 45 45 44 43 41 41 41 41 41 41 42 42 42 42 42 41 42 42 41 43 44 44 44 43 45 45 43 42 41 40 40 39 37 35 34
49 48 47 45 45 45 44 44 43 42 41 41 41 41 41 40 43 42 42 41 40 40 40 40 40 40 41 41 43 43 43 43 43 43 43 41 40 40 39 37 34 33 33
44 44 43 43 42 42 41 41 41 41 41 41 40 41 42 43 44 42 41 41 40 40 40 40 39 39 40 39 39 38 38 38 39 40 41 41 40 40 39 37 35 34 35
42 41 41 41 41 40 40 41 41 41 41 41 41 41 42 42 43 42 40 39 39 38 38 39 38 38 38 39 39 38 38 35 34 36 35 37 39 39 39 39 37 32 28
41 41 41 40 40 40 40 41 41 41 41 41 40 40 40 40 42 42 40 38 38 37 36 37 37 37 37 38 38 37 35 34 33 37 37 38 38 39 38 35 33 32 29
41 41 40 40 40 40 40 40 42 41 40 40 40 40 40 39 40 41 40 38 37 36 35 34 34 35 37 38 38 35 34 32 32 32 31 32 33 36 34 32 35 34 32
41 41 41 40 41 40 41 40 40 40 40 39 39 39 38 38 38 40 41 38 37 36 36 35 33 34 35 37 39 35 33 30 31 30 29 29 29 29 29 30 31 35 34
41 41 41 41 39 39 40 39 39 39 39 38 38 37 37 37 38 39 40 40 39 37 36 35 33 32 34 35 36 37 35 32 30 28 28 28 29 30 30 31 30 32 32
40 40 40 39 39 38 38 38 37 37 37 37 37 37 37 36 36 39 40 40 40 39 38 37 34 32 32 33 35 35 36 33 30 28 28 30 31 32 32 32 32 33 33
39 39 39 39 38 37 38 38 37 37 37 38 37 37 37 36 37 37 37 38 39 39 39 37 35 33 31 30 30 33 31 30 29 29 29 29 30 31 30 31 32 32 33
40 39 39 38 38 37 37 37 37 37 38 38 38 38 37 36 36 37 36 35 35 35 35 33 31 30 29 28 28 29 29 29 29 29 30 30 29 29 29 31 31 31 31
36 37 38 38 38 38 38 38 39 39 39 39 39 38 37 38 37 37 38 38 38 37 34 32 31 30 29 29 27 26 27 28 29 30 30 31 30 30 30 30 31 30 29
35 35 35 35 35 36 37 36 35 38 40 40 40 40 40 38 39 39 39 39 39 39 36 33 32 31 30 29 30 30 30 29 34 34 33 33 32 31 30 29 29 29 28
34 35 35 34 35 35 35 35 35 36 36 36 38 40 40 40 40 40 40 40 37 38 36 35 34 33 32 31 31 33 33 32 32 32 33 33 33 32 30 30 29 28 28
33 34 34 35 35 36 36 35 35 35 35 35 36 36 37 39 39 39 39 37 36 35 35 35 34 33 32 32 34 35 34 34 34 33 33 33 33 32 31 30 30 28 28
30 29 32 34 34 34 34 34 34 34 34 34 34 34 34 36 34 35 35 34 34 34 34 35 34 34 33 33 33 34 34 33 33 33 33 33 33 32 30 30 28 29 28
26 26 28 26 28 30 32 33 33 33 33 33 33 34 36 33 33 33 33 33 33 33 34 34 35 35 34 34 33 33 32 33 33 33 33 33 32 31 29 28 28 28 29
24 24 24 24 24 24 27 28 30 31 32 33 32 33 35 34 33 33 33 33 33 33 34 33 34 34 34 33 33 33 33 33 33 32 32 31 31 30 29 28 28 28 28
25 23 23 23 23 24 24 23 25 25 25 26 27 28 31 31 32 32 33 33 33 33 33 33 33 33 34 34 33 33 32 33 33 33 33 31 30 29 29 29 28 27 27
24 21 20 20 21 21 21 21 22 22 23 22 22 23 24 23 23 24 25 27 27 28 30 32 33 32 33 33 33 33 33 33 33 33 33 32 31 30 30 29 29 28 27
24 21 19 19 20 19 19 20 21 21 22 22 21 21 23 22 22 22 21 23 25 26 26 26 27 27 27 27 28 28 29 32 33 32 32 32 32 32 31 30 29 28 28
23 20 19 19 20 20 20 19 21 22 23 22 22 23 23 23 22 22 22 23 24 25 24 23 24 24 24 25 25 24 24 25 27 28 30 32 31 31 31 30 29 29 28

GFSGL_sfc_dewp_117.txt.gz
Dewpoint
61 60 60 60 60 60 60 61 61 61 62 62 62 61 61 60 60 59 58 57 57 55 54 53 52 52 52 53 54 52 51 52 50 51 52 51 50 50 48 49 50 50 51
61 60 60 59 59 59 59 60 61 60 61 60 60 58 58 58 56 55 53 53 52 51 51 51 50 48 50 51 51 51 50 51 50 47 49 48 48 48 48 47 45 44 46
60 59 58 58 59 58 57 58 59 58 58 57 56 55 54 52 52 51 49 48 48 48 49 49 49 48 48 50 50 49 48 47 48 48 47 45 45 45 44 43 41 42 43
57 57 57 57 56 56 55 56 55 55 55 53 51 49 48 46 46 45 45 45 45 45 46 46 46 46 46 47 47 47 45 46 45 45 47 45 43 44 44 41 39 39 38
55 54 54 54 53 53 52 53 52 52 50 48 45 44 43 43 42 43 44 44 44 44 44 43 44 42 42 43 43 45 44 43 43 44 43 43 42 41 41 40 38 36 36
52 50 50 50 50 49 48 47 48 46 44 43 43 42 42 39 44 45 44 43 43 43 42 41 41 40 41 41 43 42 43 42 41 41 42 41 41 40 40 38 35 34 35
48 47 47 47 46 46 46 46 47 45 43 43 43 42 42 42 44 43 43 43 42 42 42 42 41 39 40 40 41 40 40 38 38 39 38 40 41 40 39 36 35 35 35
45 46 46 45 45 44 44 43 43 43 43 43 43 44 44 43 43 42 42 42 41 40 40 40 40 39 39 39 39 39 39 38 36 37 37 36 36 38 39 38 37 34 29
42 42 43 42 42 41 42 42 42 43 43 42 42 42 43 43 43 42 41 40 40 38 37 38 38 38 39 38 39 37 37 36 35 37 36 36 38 40 40 36 33 33 31
42 42 42 42 42 42 44 43 43 42 41 42 41 41 42 41 43 42 41 39 38 37 37 36 37 37 38 39 38 37 35 34 32 33 31 32 32 33 34 32 34 33 33
42 42 42 42 42 42 42 42 42 41 41 41 40 40 39 40 40 42 42 39 38 37 37 36 35 36 36 36 38 37 35 32 31 32 30 30 30 30 30 30 31 34 33
42 41 42 42 41 41 41 41 41 40 40 39 38 38 38 38 40 41 42 42 40 38 37 37 35 33 34 35 36 36 37 35 32 29 29 29 30 31 32 32 32 33 33
40 41 40 40 39 39 39 39 38 39 39 38 38 38 38 37 37 40 41 41 41 39 39 38 37 33 33 33 35 36 36 36 32 30 30 30 31 33 32 32 33 33 32
39 39 39 39 39 38 39 39 38 38 38 38 38 38 38 37 38 38 39 40 40 40 40 39 38 35 34 32 31 32 33 33 31 31 31 31 31 30 29 30 30 32 31
40 40 40 39 39 38 38 38 38 38 39 39 39 39 38 38 38 39 38 37 38 38 38 35 34 32 31 30 30 30 31 31 30 30 31 31 30 30 29 30 28 29 28
35 36 37 38 39 38 38 38 40 41 41 41 41 40 39 39 39 39 39 39 38 38 35 33 33 32 30 30 29 29 29 29 30 31 31 31 29 29 28 29 27 26 25
35 35 35 35 35 35 37 37 36 38 41 41 41 41 41 39 40 40 40 39 39 39 35 33 33 32 31 30 30 31 31 31 31 32 31 30 29 30 29 27 27 25 25
34 35 35 35 35 34 35 35 36 36 36 37 40 41 41 41 41 40 40 40 37 39 36 35 34 34 33 32 31 32 33 33 31 31 30 29 29 28 28 27 26 24 24
32 32 33 35 35 35 35 35 35 35 35 35 36 36 37 39 40 40 41 38 36 36 36 35 35 34 33 33 32 33 33 34 33 31 30 29 29 29 28 27 27 28 27
28 27 29 32 32 33 33 33 33 33 34 34 34 34 35 35 34 35 36 34 35 35 34 35 34 34 34 33 33 33 33 33 33 32 31 31 30 30 28 27 27 27 27
26 25 26 25 26 27 28 32 32 32 32 32 33 34 36 34 33 32 33 33 33 33 33 33 34 34 34 34 33 33 32 33 33 32 32 32 30 29 29 28 27 27 26
24 24 24 24 24 24 25 27 26 28 29 31 32 33 35 33 32 32 32 32 32 32 33 32 33 33 33 33 33 33 32 32 32 32 32 32 32 31 30 30 28 27 26
27 24 22 22 23 24 25 24 24 25 24 24 26 27 29 30 30 31 31 32 32 32 32 32 32 33 33 33 33 32 32 32 33 33 32 32 31 31 31 30 29 28 27
25 23 21 20 21 21 22 21 22 22 23 22 22 22 24 24 23 24 25 27 28 28 30 31 31 30 31 31 32 32 32 32 32 32 32 32 31 31 31 30 29 29 29
26 24 21 19 20 20 19 20 20 21 22 22 22 22 22 23 23 24 23 24 26 26 27 27 27 26 25 27 27 27 28 28 30 30 32 32 31 30 30 30 29 29 28
27 24 21 20 21 21 21 21 22 22 23 23 23 24 24 24 24 24 23 23 25 25 26 25 25 23 22 23 23 23 24 24 26 26 28 28 29 30 30 30 29 29 28